[[{"header":{"parameterUnit":"m.s-1","parameterCategory":1,"la1":31.0,"la2":29.5877,"lo1":-88.7671,"lo2":-86.6584,"dy":0.0162,"dx":0.0185,"nx":115,"ny":88,"refTime":"2023-11-14T18:00:00:Z","depth":0,"parameterNumber":2,"parameterNumberName":"U-component_of_WINDS"},"data":[0.0,0.0,0.0,0.0,0.0,0.0,0.0,0.0,0.0,0.0,0.0,0.0,0.0,0.0,0.0,0.0,0.0,0.0,0.0,0.0,0.0,0.0,0.0,0.0,0.0,0.0,0.0,0.0,0.0,0.0,0.0,0.0,0.0,0.0,0.0,0.0,0.0,0.0,0.0,0.0,0.0,0.0,0.0,0.0,0.0,0.0,0.0,0.0,0.0,0.0,0.0,0.0,0.0,0.0,0.0,0.0,0.0,0.0,0.0,0.0,0.0,0.0,0.0,0.0,0.0,0.0,0.0,0.0,0.0,0.0,0.0,0.0,0.0,0.0,0.0,0.0,0.0,0.0,0.0,0.0,0.0,0.0,0.0,0.0,0.0,0.0,0.0,0.0,0.0,0.0,0.0,0.0,0.0,0.0,0.0,0.0,0.0,0.0,0.0,0.0,0.0,0.0,0.0,0.0,0.0,0.0,0.0,0.0,0.0,0.0,0.0,0.0,0.0,0.0,0.0,0.0,0.0,0.0,0.0,0.0,0.0,0.0,0.0,0.0,0.0,0.0,0.0,0.0,0.0,0.0,0.0,0.0,0.0,0.0,0.0,0.0,0.0,0.0,0.0,0.0,0.0,0.0,0.0,0.0,0.0,0.0,0.0,0.0,0.0,0.0,0.0,0.0,0.0,0.0,0.0,0.0,0.0,0.0,0.0,0.0,0.0,0.0,0.0,0.0,0.0,0.0,0.0,0.0,0.0,0.0,0.0,0.0,0.0,0.0,0.0,0.0,0.0,0.0,0.0,0.0,0.0,0.0,0.0,0.0,0.0,0.0,0.0,0.0,0.0,0.0,0.0,0.0,0.0,0.0,0.0,0.0,0.0,0.0,0.0,0.0,0.0,0.0,0.0,0.0,0.0,0.0,0.0,0.0,0.0,0.0,0.0,0.0,0.0,0.0,0.0,0.0,0.0,0.0,0.0,0.0,0.0,0.0,0.0,0.0,0.0,0.0,0.0,0.0,0.0,0.0,0.0,0.0,0.0,0.0,0.0,0.0,0.0,0.0,0.0,0.0,0.0,0.0,0.0,0.0,0.0,0.0,0.0,0.0,0.0,0.0,0.0,0.0,0.0,0.0,0.0,0.0,0.0,0.0,0.0,0.0,0.0,0.0,0.0,0.0,0.0,0.0,0.0,0.0,0.0,0.0,0.0,0.0,0.0,0.0,0.0,0.0,0.0,0.0,0.0,0.0,0.0,0.0,0.0,0.0,0.0,0.0,0.0,0.0,0.0,0.0,0.0,0.0,0.0,0.0,0.0,0.0,0.0,0.0,0.0,0.0,0.0,0.0,0.0,0.0,0.0,0.0,0.0,0.0,0.0,0.0,0.0,0.0,0.0,0.0,0.0,0.0,0.0,0.0,0.0,0.0,0.0,0.0,0.0,0.0,0.0,0.0,0.0,0.0,0.0,0.0,0.0,0.0,0.0,0.0,0.0,0.0,0.0,0.0,0.0,0.0,0.0,0.0,0.0,0.0,0.0,0.0,0.0,0.0,0.0,0.0,0.0,0.0,0.0,0.0,0.0,0.0,0.0,0.0,0.0,0.0,0.0,0.0,0.0,0.0,0.0,0.0,0.0,0.0,0.0,0.0,0.0,0.0,0.0,0.0,0.0,0.0,0.0,0.0,0.0,0.0,0.0,0.0,0.0,0.0,0.0,0.0,0.0,0.0,0.0,0.0,0.0,0.0,0.0,0.0,0.0,0.0,0.0,0.0,0.0,0.0,0.0,0.0,0.0,0.0,0.0,0.0,0.0,0.0,0.0,0.0,0.0,0.0,0.0,0.0,0.0,0.0,0.0,0.0,0.0,0.0,0.0,0.0,0.0,0.0,0.0,0.0,0.0,0.0,0.0,0.0,0.0,0.0,0.0,0.0,0.0,0.0,0.0,0.0,0.0,0.0,0.0,0.0,0.0,0.0,0.0,0.0,0.0,0.0,0.0,0.0,0.0,0.0,0.0,0.0,0.0,0.0,0.0,0.0,0.0,0.0,0.0,0.0,0.0,0.0,0.0,0.0,0.0,0.0,0.0,0.0,0.0,0.0,0.0,0.0,0.0,0.0,0.0,0.0,0.0,0.0,0.0,0.0,0.0,0.0,0.0,0.0,0.0,0.0,0.0,0.0,0.0,0.0,0.0,0.0,0.0,0.0,0.0,0.0,0.0,0.0,0.0,0.0,0.0,0.0,0.0,0.0,0.0,0.0,0.0,0.0,0.0,0.0,0.0,0.0,0.0,0.0,0.0,0.0,0.0,0.0,0.0,0.0,0.0,0.0,0.0,0.0,0.0,0.0,0.0,0.0,0.0,0.0,0.0,0.0,0.0,0.0,0.0,0.0,0.0,0.0,0.0,0.0,0.0,0.0,0.0,0.0,0.0,0.0,0.0,0.0,0.0,0.0,0.0,0.0,0.0,0.0,0.0,0.0,0.0,0.0,0.0,0.0,0.0,0.0,0.0,0.0,0.0,0.0,0.0,0.0,0.0,0.0,0.0,0.0,0.0,0.0,0.0,0.0,0.0,0.0,0.0,0.0,0.0,0.0,0.0,0.0,0.0,0.0,0.0,0.0,0.0,0.0,0.0,0.0,0.0,0.0,0.0,0.0,0.0,0.0,0.0,0.0,0.0,0.0,0.0,0.0,0.0,0.0,0.0,0.0,0.0,0.0,0.0,0.0,0.0,0.0,0.0,0.0,0.0,0.0,0.0,0.0,0.0,0.0,0.0,0.0,0.0,0.0,0.0,0.0,0.0,0.0,0.0,0.0,0.0,0.0,0.0,0.0,0.0,0.0,0.0,0.0,0.0,0.0,0.0,0.0,0.0,0.0,0.0,0.0,0.0,0.0,0.0,0.0,0.0,0.0,0.0,0.0,0.0,0.0,0.0,0.0,0.0,0.0,0.0,0.0,0.0,0.0,0.0,0.0,0.0,0.0,0.0,0.0,0.0,0.0,0.0,0.0,0.0,0.0,0.0,0.0,0.0,0.0,0.0,0.0,0.0,0.0,0.0,0.0,0.0,0.0,0.0,0.0,0.0,0.0,0.0,0.0,0.0,0.0,0.0,0.0,0.0,0.0,0.0,0.0,0.0,0.0,0.0,0.0,0.0,0.0,0.0,0.0,0.0,0.0,0.0,0.0,0.0,0.0,0.0,0.0,0.0,0.0,0.0,0.0,0.0,0.0,0.0,0.0,0.0,0.0,0.0,0.0,0.0,0.0,0.0,0.0,0.0,0.0,0.0,0.0,0.0,0.0,0.0,0.0,0.0,0.0,0.0,0.0,0.0,0.0,0.0,0.0,0.0,0.0,0.0,0.0,0.0,0.0,0.0,0.0,0.0,0.0,0.0,0.0,0.0,0.0,0.0,0.0,0.0,0.0,0.0,0.0,0.0,0.0,0.0,0.0,0.0,0.0,0.0,0.0,0.0,0.0,0.0,0.0,0.0,0.0,0.0,0.0,0.0,0.0,0.0,0.0,0.0,0.0,0.0,0.0,0.0,0.0,0.0,0.0,0.0,0.0,0.0,0.0,0.0,0.0,0.0,0.0,0.0,0.0,0.0,0.0,0.0,0.0,0.0,0.0,0.0,0.0,0.0,0.0,0.0,0.0,0.0,0.0,0.0,0.0,0.0,0.0,0.0,0.0,0.0,0.0,0.0,0.0,0.0,0.0,0.0,0.0,0.0,0.0,0.0,0.0,0.0,0.0,0.0,0.0,0.0,0.0,0.0,0.0,0.0,0.0,0.0,0.0,0.0,0.0,0.0,0.0,0.0,0.0,0.0,0.0,0.0,0.0,0.0,0.0,0.0,0.0,0.0,0.0,0.0,0.0,0.0,0.0,0.0,0.0,0.0,0.0,0.0,0.0,0.0,0.0,0.0,0.0,0.0,0.0,0.0,0.0,0.0,0.0,0.0,0.0,0.0,0.0,0.0,0.0,0.0,0.0,0.0,0.0,0.0,0.0,0.0,0.0,0.0,0.0,0.0,0.0,0.0,0.0,0.0,0.0,0.0,0.0,0.0,0.0,0.0,0.0,0.0,0.0,0.0,0.0,0.0,0.0,0.0,0.0,0.0,0.0,0.0,0.0,0.0,0.0,0.0,0.0,0.0,0.0,0.0,0.0,0.0,0.0,0.0,0.0,0.0,0.0,0.0,0.0,0.0,0.0,0.0,0.0,0.0,0.0,0.0,0.0,0.0,0.0,0.0,0.0,0.0,0.0,0.0,0.0,0.0,0.0,3.9458,0.0,0.0,0.0,0.0,0.0,0.0,0.0,0.0,0.0,0.0,0.0,0.0,0.0,0.0,0.0,0.0,0.0,0.0,0.0,0.0,0.0,0.0,0.0,0.0,0.0,0.0,0.0,0.0,0.0,0.0,0.0,0.0,0.0,0.0,0.0,0.0,0.0,0.0,0.0,0.0,0.0,0.0,0.0,0.0,0.0,0.0,0.0,0.0,0.0,0.0,0.0,0.0,0.0,0.0,0.0,0.0,0.0,0.0,0.0,0.0,0.0,0.0,0.0,0.0,0.0,0.0,0.0,0.0,0.0,0.0,0.0,0.0,0.0,0.0,0.0,0.0,0.0,0.0,0.0,0.0,0.0,0.0,0.0,0.0,0.0,0.0,0.0,0.0,0.0,0.0,0.0,0.0,0.0,0.0,0.0,0.0,0.0,0.0,0.0,0.0,0.0,0.0,0.0,0.0,0.0,0.0,0.0,0.0,0.0,0.0,4.1076,4.0864,4.0547,4.0282,4.0014,0.0,0.0,0.0,0.0,0.0,0.0,0.0,0.0,0.0,0.0,0.0,0.0,0.0,0.0,0.0,0.0,0.0,0.0,0.0,0.0,0.0,0.0,0.0,0.0,0.0,0.0,0.0,0.0,0.0,0.0,0.0,0.0,0.0,0.0,0.0,0.0,0.0,0.0,0.0,0.0,0.0,0.0,0.0,0.0,0.0,0.0,0.0,0.0,0.0,0.0,0.0,0.0,0.0,0.0,0.0,0.0,0.0,0.0,0.0,0.0,0.0,0.0,0.0,0.0,0.0,0.0,0.0,0.0,0.0,0.0,0.0,0.0,0.0,0.0,0.0,0.0,0.0,0.0,0.0,0.0,0.0,0.0,0.0,0.0,0.0,0.0,0.0,0.0,0.0,0.0,0.0,0.0,0.0,0.0,0.0,0.0,0.0,0.0,0.0,0.0,0.0,0.0,0.0,0.0,0.0,0.0,0.0,0.0,0.0,0.0,0.0,0.0,4.093,4.0656,4.0571,0.0,0.0,0.0,0.0,0.0,0.0,0.0,0.0,0.0,0.0,0.0,0.0,0.0,0.0,0.0,0.0,0.0,0.0,0.0,0.0,0.0,0.0,0.0,0.0,0.0,0.0,0.0,0.0,0.0,0.0,0.0,0.0,0.0,0.0,0.0,0.0,0.0,0.0,0.0,0.0,0.0,0.0,0.0,0.0,0.0,0.0,0.0,0.0,0.0,0.0,0.0,0.0,0.0,0.0,0.0,0.0,0.0,0.0,0.0,0.0,0.0,0.0,0.0,0.0,0.0,0.0,0.0,0.0,0.0,0.0,0.0,0.0,0.0,0.0,0.0,0.0,0.0,0.0,0.0,0.0,0.0,0.0,0.0,0.0,0.0,0.0,0.0,0.0,0.0,0.0,0.0,0.0,0.0,0.0,0.0,0.0,0.0,0.0,0.0,0.0,0.0,0.0,0.0,0.0,0.0,0.0,0.0,0.0,0.0,0.0,4.2025,4.2025,4.1696,0.0,4.11,0.0,0.0,0.0,0.0,0.0,0.0,0.0,0.0,0.0,0.0,0.0,0.0,0.0,0.0,0.0,0.0,0.0,0.0,0.0,0.0,0.0,0.0,0.0,0.0,0.0,0.0,0.0,0.0,0.0,0.0,0.0,0.0,0.0,0.0,0.0,0.0,0.0,0.0,0.0,0.0,0.0,0.0,0.0,0.0,0.0,0.0,0.0,0.0,0.0,0.0,0.0,0.0,0.0,0.0,0.0,0.0,0.0,0.0,0.0,0.0,0.0,0.0,0.0,0.0,0.0,0.0,0.0,0.0,0.0,0.0,0.0,0.0,0.0,0.0,0.0,0.0,0.0,0.0,0.0,0.0,0.0,0.0,0.0,0.0,0.0,0.0,0.0,0.0,0.0,0.0,0.0,0.0,0.0,0.0,0.0,0.0,0.0,0.0,0.0,0.0,0.0,0.0,0.0,0.0,0.0,0.0,0.0,0.0,0.0,0.0,4.2577,4.2577,4.2115,4.1659,0.0,0.0,0.0,0.0,0.0,0.0,0.0,0.0,0.0,0.0,0.0,0.0,0.0,0.0,0.0,0.0,0.0,0.0,0.0,0.0,0.0,0.0,0.0,0.0,0.0,0.0,0.0,0.0,0.0,0.0,0.0,0.0,0.0,0.0,0.0,0.0,0.0,0.0,0.0,0.0,0.0,0.0,0.0,0.0,0.0,0.0,0.0,0.0,0.0,0.0,0.0,0.0,0.0,0.0,0.0,0.0,0.0,0.0,0.0,0.0,0.0,0.0,0.0,0.0,0.0,0.0,0.0,0.0,0.0,0.0,0.0,0.0,0.0,0.0,0.0,0.0,0.0,0.0,0.0,0.0,0.0,0.0,0.0,0.0,0.0,0.0,0.0,0.0,0.0,0.0,0.0,0.0,0.0,0.0,0.0,0.0,0.0,0.0,0.0,0.0,0.0,0.0,0.0,0.0,0.0,0.0,0.0,0.0,0.0,0.0,4.3664,4.3408,4.3263,4.2717,4.2189,4.1562,0.0,0.0,0.0,0.0,0.0,0.0,0.0,0.0,0.0,0.0,0.0,0.0,0.0,0.0,0.0,0.0,0.0,0.0,0.0,0.0,0.0,0.0,0.0,0.0,0.0,0.0,0.0,0.0,0.0,0.0,0.0,0.0,0.0,0.0,0.0,0.0,0.0,0.0,0.0,0.0,0.0,0.0,0.0,0.0,0.0,0.0,0.0,0.0,0.0,0.0,0.0,0.0,0.0,0.0,0.0,0.0,0.0,0.0,0.0,0.0,0.0,0.0,0.0,0.0,0.0,0.0,0.0,0.0,0.0,0.0,0.0,0.0,0.0,0.0,0.0,0.0,0.0,0.0,0.0,0.0,0.0,0.0,0.0,0.0,0.0,0.0,0.0,0.0,0.0,0.0,0.0,0.0,0.0,0.0,0.0,0.0,0.0,0.0,0.0,0.0,0.0,0.0,0.0,0.0,0.0,0.0,0.0,0.0,4.4585,4.485,4.4709,4.4128,4.3631,4.3045,0.0,0.0,0.0,0.0,0.0,0.0,0.0,0.0,0.0,0.0,0.0,0.0,0.0,0.0,0.0,0.0,0.0,0.0,0.0,0.0,0.0,0.0,0.0,0.0,0.0,0.0,0.0,0.0,0.0,0.0,0.0,0.0,0.0,0.0,0.0,0.0,0.0,0.0,0.0,0.0,0.0,0.0,0.0,0.0,0.0,0.0,0.0,0.0,0.0,0.0,0.0,0.0,0.0,0.0,0.0,0.0,0.0,0.0,0.0,0.0,0.0,0.0,0.0,0.0,0.0,0.0,0.0,0.0,0.0,0.0,0.0,0.0,0.0,0.0,0.0,0.0,0.0,0.0,0.0,0.0,0.0,0.0,0.0,0.0,0.0,0.0,0.0,0.0,0.0,0.0,0.0,0.0,0.0,0.0,0.0,0.0,0.0,0.0,0.0,0.0,0.0,0.0,0.0,0.0,0.0,0.0,0.0,0.0,0.0,4.6239,4.5846,4.5141,4.4232,4.4153,4.3767,0.0,0.0,0.0,0.0,0.0,0.0,0.0,0.0,0.0,0.0,0.0,0.0,0.0,0.0,0.0,0.0,0.0,0.0,0.0,0.0,0.0,0.0,0.0,0.0,0.0,0.0,0.0,0.0,0.0,0.0,0.0,0.0,0.0,0.0,0.0,0.0,0.0,0.0,0.0,0.0,0.0,0.0,0.0,0.0,0.0,0.0,0.0,0.0,0.0,0.0,0.0,0.0,0.0,0.0,0.0,0.0,0.0,0.0,0.0,0.0,0.0,0.0,0.0,0.0,0.0,0.0,0.0,0.0,0.0,0.0,0.0,0.0,0.0,0.0,0.0,0.0,0.0,0.0,0.0,0.0,0.0,0.0,0.0,0.0,0.0,0.0,0.0,0.0,0.0,0.0,0.0,0.0,0.0,0.0,0.0,0.0,0.0,0.0,0.0,0.0,0.0,0.0,0.0,0.0,0.0,0.0,0.0,0.0,0.0,4.7324,0.0,4.5902,0.0,4.5024,4.4661,0.0,0.0,0.0,0.0,0.0,0.0,0.0,0.0,0.0,0.0,0.0,0.0,0.0,0.0,0.0,0.0,0.0,0.0,0.0,0.0,0.0,0.0,0.0,0.0,0.0,0.0,0.0,0.0,0.0,0.0,0.0,0.0,0.0,0.0,0.0,0.0,0.0,0.0,0.0,0.0,0.0,0.0,0.0,0.0,0.0,0.0,0.0,0.0,0.0,0.0,0.0,0.0,0.0,0.0,0.0,0.0,0.0,0.0,0.0,0.0,0.0,0.0,0.0,0.0,0.0,0.0,0.0,0.0,0.0,0.0,0.0,0.0,0.0,0.0,0.0,0.0,0.0,0.0,0.0,0.0,0.0,0.0,0.0,0.0,0.0,0.0,0.0,0.0,0.0,0.0,0.0,0.0,0.0,0.0,0.0,0.0,0.0,0.0,0.0,0.0,0.0,0.0,0.0,0.0,0.0,0.0,0.0,0.0,4.7703,4.7674,4.7353,4.7002,4.678,4.6163,4.562,0.0,0.0,0.0,0.0,0.0,0.0,0.0,0.0,0.0,0.0,0.0,0.0,0.0,0.0,0.0,0.0,0.0,0.0,0.0,0.0,0.0,0.0,0.0,0.0,0.0,0.0,0.0,0.0,0.0,0.0,0.0,0.0,0.0,0.0,0.0,0.0,0.0,0.0,0.0,0.0,0.0,0.0,0.0,0.0,0.0,0.0,0.0,0.0,0.0,0.0,0.0,0.0,0.0,0.0,0.0,0.0,0.0,0.0,0.0,0.0,0.0,0.0,0.0,0.0,0.0,0.0,0.0,0.0,0.0,0.0,0.0,0.0,0.0,0.0,0.0,0.0,0.0,0.0,0.0,0.0,0.0,0.0,0.0,0.0,0.0,0.0,0.0,0.0,0.0,0.0,0.0,0.0,0.0,0.0,0.0,0.0,0.0,0.0,0.0,0.0,0.0,0.0,0.0,0.0,0.0,0.0,0.0,0.0,0.0,4.7353,4.7265,4.7083,4.6806,4.639,4.599,0.0,0.0,0.0,0.0,0.0,0.0,0.0,0.0,0.0,0.0,0.0,0.0,0.0,0.0,0.0,0.0,0.0,0.0,0.0,0.0,0.0,0.0,0.0,0.0,0.0,0.0,0.0,0.0,0.0,0.0,0.0,0.0,0.0,0.0,0.0,0.0,0.0,0.0,0.0,0.0,0.0,0.0,0.0,0.0,0.0,0.0,0.0,0.0,0.0,0.0,0.0,0.0,0.0,0.0,0.0,0.0,0.0,0.0,0.0,0.0,0.0,0.0,0.0,0.0,0.0,0.0,0.0,0.0,0.0,0.0,0.0,0.0,0.0,0.0,0.0,0.0,0.0,0.0,0.0,0.0,0.0,0.0,0.0,0.0,0.0,0.0,0.0,0.0,0.0,0.0,0.0,0.0,0.0,0.0,0.0,0.0,0.0,0.0,0.0,0.0,0.0,0.0,0.0,0.0,0.0,0.0,0.0,0.0,0.0,4.6748,4.6254,4.5944,4.5828,4.5333,4.5363,4.5944,0.0,0.0,0.0,0.0,0.0,0.0,0.0,0.0,0.0,0.0,0.0,0.0,0.0,0.0,0.0,0.0,0.0,0.0,0.0,0.0,0.0,0.0,0.0,0.0,0.0,0.0,0.0,0.0,0.0,0.0,0.0,0.0,0.0,0.0,0.0,0.0,0.0,0.0,0.0,0.0,0.0,0.0,0.0,0.0,0.0,0.0,0.0,0.0,0.0,0.0,0.0,0.0,0.0,0.0,0.0,0.0,0.0,0.0,0.0,0.0,0.0,0.0,0.0,0.0,0.0,0.0,0.0,0.0,0.0,0.0,0.0,0.0,0.0,0.0,0.0,0.0,0.0,0.0,0.0,0.0,0.0,0.0,0.0,0.0,0.0,0.0,0.0,0.0,0.0,0.0,0.0,0.0,0.0,0.0,0.0,0.0,0.0,0.0,0.0,0.0,0.0,0.0,0.0,0.0,0.0,0.0,0.0,0.0,4.5901,4.4457,4.3826,4.4024,4.3398,4.3978,0.0,0.0,0.0,0.0,0.0,0.0,0.0,0.0,0.0,0.0,0.0,0.0,0.0,0.0,0.0,0.0,0.0,0.0,0.0,0.0,0.0,0.0,0.0,0.0,0.0,0.0,0.0,0.0,0.0,0.0,0.0,0.0,0.0,0.0,0.0,0.0,0.0,0.0,0.0,0.0,0.0,0.0,0.0,0.0,0.0,0.0,0.0,0.0,0.0,0.0,0.0,0.0,0.0,0.0,0.0,0.0,0.0,0.0,0.0,0.0,0.0,0.0,0.0,0.0,0.0,0.0,0.0,0.0,0.0,0.0,0.0,0.0,0.0,0.0,0.0,0.0,0.0,0.0,0.0,0.0,0.0,0.0,0.0,0.0,0.0,0.0,0.0,0.0,0.0,0.0,0.0,0.0,0.0,0.0,0.0,0.0,0.0,0.0,0.0,0.0,0.0,0.0,0.0,0.0,0.0,0.0,0.0,0.0,0.0,4.4568,4.1621,4.0615,4.1847,4.2708,4.3417,0.0,0.0,0.0,0.0,0.0,0.0,0.0,0.0,0.0,0.0,0.0,0.0,0.0,0.0,0.0,0.0,0.0,0.0,0.0,0.0,0.0,0.0,0.0,0.0,0.0,0.0,0.0,0.0,0.0,0.0,0.0,0.0,0.0,0.0,0.0,0.0,0.0,0.0,0.0,0.0,0.0,0.0,0.0,0.0,0.0,0.0,0.0,0.0,0.0,0.0,0.0,0.0,0.0,0.0,0.0,0.0,0.0,0.0,0.0,0.0,0.0,0.0,0.0,0.0,0.0,0.0,0.0,0.0,0.0,0.0,0.0,0.0,0.0,0.0,0.0,0.0,0.0,0.0,0.0,0.0,0.0,0.0,0.0,0.0,0.0,0.0,0.0,0.0,0.0,0.0,0.0,0.0,0.0,0.0,0.0,0.0,0.0,0.0,0.0,0.0,0.0,0.0,0.0,0.0,0.0,0.0,0.0,0.0,4.5223,4.4009,3.9812,3.7988,3.8753,4.089,4.2445,0.0,0.0,0.0,0.0,0.0,0.0,0.0,0.0,0.0,0.0,0.0,0.0,0.0,0.0,0.0,0.0,0.0,0.0,0.0,0.0,0.0,0.0,0.0,0.0,0.0,0.0,0.0,0.0,0.0,0.0,0.0,0.0,0.0,0.0,0.0,0.0,0.0,0.0,0.0,0.0,0.0,0.0,0.0,0.0,0.0,0.0,0.0,0.0,0.0,0.0,0.0,0.0,0.0,0.0,0.0,0.0,0.0,0.0,0.0,0.0,0.0,0.0,0.0,0.0,0.0,0.0,0.0,0.0,0.0,0.0,0.0,0.0,0.0,0.0,0.0,0.0,0.0,0.0,0.0,0.0,0.0,0.0,0.0,0.0,0.0,0.0,0.0,0.0,0.0,0.0,0.0,0.0,0.0,0.0,0.0,0.0,0.0,0.0,0.0,0.0,0.0,0.0,0.0,0.0,0.0,0.0,0.0,0.0,4.4342,4.3703,3.8959,3.6236,3.5839,3.8801,4.132,0.0,0.0,0.0,0.0,0.0,0.0,0.0,0.0,0.0,0.0,0.0,0.0,0.0,0.0,0.0,0.0,0.0,0.0,0.0,0.0,0.0,0.0,0.0,0.0,0.0,0.0,0.0,0.0,0.0,0.0,0.0,0.0,0.0,0.0,0.0,0.0,0.0,0.0,0.0,0.0,0.0,0.0,0.0,0.0,0.0,0.0,0.0,0.0,0.0,0.0,0.0,0.0,0.0,0.0,0.0,0.0,0.0,0.0,0.0,0.0,0.0,0.0,0.0,0.0,0.0,0.0,0.0,0.0,0.0,0.0,0.0,0.0,0.0,0.0,0.0,0.0,0.0,0.0,0.0,0.0,0.0,0.0,0.0,0.0,0.0,0.0,0.0,0.0,0.0,0.0,0.0,0.0,0.0,0.0,0.0,0.0,0.0,0.0,0.0,0.0,0.0,0.0,0.0,0.0,0.0,0.0,0.0,0.0,4.4631,4.2792,3.9739,3.7651,3.657,3.9349,4.107,0.0,0.0,0.0,0.0,0.0,0.0,0.0,0.0,0.0,0.0,0.0,0.0,0.0,0.0,0.0,0.0,0.0,0.0,0.0,0.0,0.0,0.0,0.0,0.0,0.0,0.0,0.0,0.0,0.0,0.0,0.0,0.0,0.0,0.0,0.0,0.0,0.0,0.0,0.0,0.0,0.0,0.0,0.0,0.0,0.0,0.0,0.0,0.0,3.923,0.0,0.0,0.0,0.0,0.0,0.0,0.0,0.0,0.0,0.0,0.0,0.0,0.0,0.0,0.0,0.0,0.0,0.0,0.0,0.0,0.0,0.0,0.0,0.0,0.0,0.0,0.0,0.0,0.0,0.0,0.0,0.0,0.0,0.0,0.0,0.0,0.0,0.0,0.0,0.0,0.0,0.0,0.0,0.0,0.0,0.0,0.0,0.0,0.0,0.0,0.0,0.0,0.0,0.0,0.0,0.0,0.0,0.0,0.0,4.4742,4.2261,3.9898,3.8103,3.6938,3.9123,4.0605,0.0,0.0,0.0,0.0,0.0,0.0,0.0,0.0,0.0,0.0,0.0,0.0,0.0,0.0,0.0,0.0,0.0,0.0,0.0,0.0,0.0,0.0,0.0,0.0,0.0,0.0,0.0,0.0,0.0,0.0,0.0,0.0,0.0,0.0,0.0,0.0,0.0,0.0,0.0,0.0,0.0,0.0,0.0,0.0,0.0,0.0,0.0,0.0,0.0,0.0,0.0,0.0,0.0,0.0,0.0,0.0,0.0,0.0,0.0,0.0,0.0,0.0,0.0,0.0,0.0,0.0,0.0,0.0,0.0,0.0,0.0,0.0,0.0,0.0,0.0,0.0,0.0,0.0,0.0,0.0,0.0,0.0,0.0,0.0,0.0,0.0,0.0,0.0,0.0,0.0,0.0,0.0,0.0,0.0,0.0,0.0,0.0,0.0,0.0,0.0,0.0,0.0,0.0,0.0,0.0,0.0,0.0,4.7202,4.4639,4.1677,3.9773,3.823,3.704,3.8766,4.0312,4.1585,0.0,0.0,0.0,0.0,0.0,0.0,0.0,0.0,0.0,0.0,0.0,0.0,0.0,0.0,0.0,0.0,0.0,0.0,0.0,0.0,0.0,0.0,0.0,0.0,0.0,0.0,0.0,0.0,0.0,0.0,0.0,0.0,0.0,0.0,0.0,0.0,0.0,0.0,4.0469,4.0683,0.0,0.0,0.0,0.0,0.0,0.0,0.0,0.0,3.8903,0.0,0.0,0.0,0.0,0.0,0.0,0.0,0.0,0.0,0.0,0.0,0.0,0.0,0.0,0.0,0.0,0.0,0.0,0.0,0.0,0.0,0.0,0.0,0.0,0.0,0.0,0.0,0.0,0.0,0.0,0.0,0.0,0.0,0.0,0.0,0.0,0.0,0.0,0.0,0.0,0.0,0.0,0.0,0.0,0.0,0.0,0.0,0.0,0.0,0.0,0.0,0.0,0.0,0.0,0.0,0.0,4.6871,4.6348,4.4218,4.0356,3.9558,3.8743,3.7904,3.9414,4.1108,4.2882,0.0,0.0,0.0,0.0,0.0,0.0,0.0,0.0,0.0,0.0,0.0,0.0,0.0,0.0,0.0,0.0,0.0,0.0,0.0,0.0,0.0,0.0,0.0,0.0,0.0,0.0,0.0,0.0,0.0,0.0,0.0,0.0,0.0,0.0,0.0,0.0,0.0,0.0,0.0,3.9838,4.0177,0.0,0.0,0.0,0.0,0.0,0.0,0.0,0.0,3.7562,0.0,0.0,0.0,0.0,0.0,0.0,0.0,0.0,0.0,0.0,0.0,0.0,0.0,0.0,0.0,0.0,0.0,0.0,0.0,0.0,0.0,0.0,0.0,0.0,0.0,0.0,0.0,0.0,0.0,0.0,0.0,0.0,0.0,0.0,0.0,0.0,0.0,0.0,0.0,0.0,0.0,0.0,0.0,0.0,0.0,0.0,0.0,0.0,0.0,0.0,0.0,0.0,0.0,0.0,0.0,4.6988,4.5478,4.327,4.0324,3.9828,3.9099,3.8062,3.9944,4.1622,0.0,0.0,0.0,0.0,0.0,0.0,0.0,0.0,0.0,0.0,0.0,0.0,0.0,0.0,0.0,0.0,0.0,0.0,0.0,0.0,0.0,0.0,0.0,0.0,0.0,0.0,0.0,0.0,0.0,0.0,0.0,0.0,0.0,0.0,0.0,0.0,0.0,0.0,0.0,0.0,3.8613,3.8563,3.6365,0.0,0.0,0.0,0.0,0.0,0.0,3.7244,3.7766,0.0,0.0,0.0,0.0,0.0,0.0,0.0,0.0,0.0,0.0,0.0,0.0,0.0,0.0,0.0,0.0,0.0,0.0,0.0,0.0,0.0,0.0,0.0,0.0,0.0,0.0,0.0,0.0,0.0,0.0,0.0,0.0,0.0,0.0,0.0,0.0,0.0,0.0,0.0,0.0,0.0,0.0,0.0,0.0,0.0,0.0,0.0,0.0,0.0,0.0,0.0,0.0,0.0,0.0,0.0,4.7448,4.4843,4.2515,4.0582,4.0018,3.9252,3.8337,4.0749,4.2319,0.0,0.0,0.0,0.0,0.0,0.0,0.0,0.0,0.0,0.0,0.0,0.0,0.0,0.0,0.0,0.0,0.0,0.0,0.0,0.0,0.0,0.0,0.0,0.0,0.0,0.0,0.0,0.0,0.0,0.0,0.0,0.0,0.0,0.0,0.0,0.0,0.0,0.0,0.0,0.0,0.0,3.733,3.5094,3.67,0.0,0.0,0.0,0.0,3.7095,3.7238,0.0,0.0,0.0,0.0,0.0,0.0,0.0,0.0,0.0,0.0,0.0,0.0,0.0,0.0,0.0,0.0,0.0,0.0,0.0,0.0,0.0,0.0,0.0,0.0,0.0,0.0,0.0,0.0,0.0,0.0,0.0,0.0,0.0,0.0,0.0,0.0,0.0,0.0,0.0,0.0,0.0,0.0,0.0,0.0,0.0,0.0,0.0,0.0,0.0,0.0,0.0,0.0,0.0,0.0,0.0,0.0,4.7038,4.4642,4.2447,4.0553,3.9695,3.9222,3.9081,4.2112,4.3762,0.0,0.0,0.0,0.0,0.0,0.0,0.0,0.0,0.0,0.0,0.0,0.0,0.0,0.0,0.0,0.0,0.0,0.0,0.0,0.0,0.0,0.0,0.0,0.0,0.0,0.0,0.0,0.0,0.0,0.0,0.0,0.0,0.0,0.0,0.0,0.0,0.0,0.0,0.0,0.0,0.0,3.8217,3.6201,3.7649,3.8953,0.0,0.0,3.5869,3.5815,3.429,0.0,0.0,0.0,0.0,0.0,0.0,0.0,0.0,0.0,0.0,0.0,0.0,0.0,0.0,0.0,0.0,0.0,0.0,0.0,0.0,0.0,0.0,0.0,0.0,0.0,0.0,0.0,0.0,0.0,0.0,0.0,0.0,0.0,0.0,0.0,0.0,0.0,0.0,0.0,0.0,0.0,0.0,0.0,0.0,0.0,0.0,0.0,0.0,0.0,0.0,0.0,0.0,0.0,0.0,0.0,4.7938,4.7033,4.3785,4.1543,4.0491,3.9868,3.9205,3.8439,4.2286,4.4031,0.0,0.0,0.0,0.0,0.0,0.0,0.0,0.0,0.0,0.0,0.0,0.0,0.0,0.0,0.0,0.0,0.0,0.0,0.0,0.0,0.0,0.0,0.0,0.0,0.0,0.0,0.0,0.0,0.0,0.0,0.0,0.0,0.0,0.0,0.0,0.0,0.0,0.0,0.0,0.0,0.0,0.0,3.6222,3.7201,0.0,0.0,0.0,3.6836,3.7794,0.0,0.0,0.0,0.0,0.0,0.0,0.0,0.0,0.0,0.0,0.0,0.0,0.0,0.0,0.0,0.0,0.0,0.0,0.0,0.0,0.0,0.0,0.0,0.0,0.0,0.0,0.0,0.0,0.0,0.0,0.0,0.0,0.0,0.0,0.0,0.0,0.0,0.0,0.0,0.0,0.0,0.0,0.0,0.0,0.0,0.0,0.0,0.0,0.0,0.0,0.0,0.0,0.0,0.0,0.0,0.0,0.0,4.7288,4.3199,4.0961,4.0667,3.9946,3.9092,3.8202,4.1499,0.0,0.0,0.0,0.0,0.0,0.0,0.0,0.0,0.0,0.0,0.0,0.0,0.0,0.0,0.0,0.0,0.0,0.0,0.0,0.0,0.0,0.0,0.0,0.0,0.0,0.0,0.0,4.1017,0.0,0.0,0.0,0.0,0.0,0.0,0.0,0.0,0.0,0.0,0.0,0.0,0.0,0.0,3.6896,3.6692,3.7153,3.7218,0.0,0.0,3.781,3.8294,3.5615,3.4735,0.0,0.0,0.0,0.0,0.0,0.0,0.0,0.0,0.0,0.0,0.0,0.0,0.0,0.0,0.0,0.0,0.0,0.0,0.0,0.0,0.0,0.0,0.0,0.0,0.0,0.0,0.0,0.0,5.0422,0.0,0.0,0.0,0.0,0.0,0.0,0.0,0.0,0.0,0.0,0.0,0.0,0.0,0.0,0.0,0.0,0.0,0.0,0.0,0.0,0.0,0.0,0.0,0.0,0.0,0.0,4.7569,4.331,4.1123,4.1352,3.9817,3.8933,3.8829,3.9496,4.0771,0.0,0.0,0.0,0.0,0.0,0.0,0.0,0.0,0.0,0.0,0.0,0.0,0.0,0.0,0.0,0.0,0.0,0.0,0.0,0.0,0.0,0.0,0.0,0.0,0.0,0.0,0.0,0.0,0.0,0.0,0.0,0.0,0.0,0.0,0.0,0.0,0.0,0.0,0.0,0.0,0.0,3.8252,3.8258,3.8311,3.7565,0.0,0.0,3.7885,3.5303,3.3252,3.3345,3.7404,0.0,0.0,0.0,0.0,0.0,0.0,0.0,0.0,0.0,0.0,0.0,0.0,0.0,0.0,0.0,0.0,0.0,0.0,0.0,0.0,0.0,0.0,0.0,0.0,0.0,5.1129,0.0,0.0,4.8563,0.0,0.0,0.0,0.0,0.0,0.0,0.0,0.0,0.0,0.0,0.0,0.0,0.0,0.0,0.0,0.0,0.0,0.0,0.0,0.0,0.0,0.0,0.0,0.0,4.7745,4.7949,4.39,4.1423,4.0649,3.9694,3.8791,3.7954,3.8863,4.0399,0.0,0.0,0.0,0.0,0.0,0.0,0.0,0.0,0.0,0.0,0.0,0.0,0.0,0.0,0.0,0.0,0.0,0.0,0.0,0.0,0.0,0.0,0.0,0.0,0.0,0.0,0.0,0.0,3.6805,3.729,3.8633,0.0,0.0,0.0,0.0,0.0,0.0,0.0,0.0,0.0,0.0,3.8429,3.6837,3.7162,0.0,0.0,3.6758,3.7528,3.7921,3.5741,3.5536,4.0005,4.0765,0.0,0.0,0.0,0.0,0.0,0.0,0.0,0.0,0.0,0.0,0.0,0.0,0.0,0.0,0.0,0.0,0.0,0.0,0.0,0.0,0.0,0.0,0.0,0.0,0.0,0.0,0.0,0.0,0.0,0.0,0.0,0.0,0.0,0.0,0.0,0.0,0.0,0.0,0.0,0.0,0.0,0.0,0.0,0.0,0.0,0.0,0.0,0.0,0.0,0.0,0.0,0.0,4.7935,4.8285,4.4109,4.1485,4.0471,3.9614,3.8541,3.7334,3.7802,3.91,0.0,0.0,0.0,0.0,0.0,0.0,0.0,0.0,0.0,0.0,0.0,0.0,0.0,0.0,0.0,0.0,0.0,0.0,0.0,0.0,0.0,0.0,0.0,0.0,0.0,0.0,0.0,0.0,3.6887,3.7671,3.9555,0.0,0.0,0.0,0.0,0.0,0.0,0.0,0.0,0.0,0.0,3.8177,3.7201,3.7831,3.8341,3.8135,3.8668,3.9505,4.0479,3.8621,3.8031,4.0921,0.0,0.0,0.0,0.0,0.0,0.0,0.0,0.0,0.0,0.0,0.0,0.0,0.0,0.0,0.0,0.0,0.0,0.0,0.0,0.0,0.0,0.0,0.0,0.0,0.0,0.0,0.0,4.9115,0.0,0.0,4.7262,0.0,0.0,0.0,0.0,0.0,0.0,0.0,0.0,0.0,0.0,0.0,0.0,0.0,0.0,0.0,0.0,0.0,0.0,0.0,0.0,0.0,0.0,4.7897,4.8714,4.3902,4.1354,4.1193,3.9514,3.8112,3.7144,3.6045,3.6314,3.8015,0.0,0.0,0.0,0.0,0.0,0.0,0.0,0.0,0.0,0.0,0.0,0.0,0.0,0.0,0.0,0.0,0.0,0.0,0.0,0.0,0.0,0.0,0.0,0.0,0.0,0.0,4.167,4.0722,4.0009,0.0,0.0,0.0,0.0,0.0,0.0,0.0,0.0,0.0,0.0,3.9207,3.7666,4.0175,4.0992,4.1232,4.1347,4.35,4.4335,4.1886,4.1123,4.0366,0.0,0.0,0.0,0.0,0.0,0.0,0.0,0.0,0.0,0.0,0.0,0.0,0.0,0.0,0.0,0.0,0.0,0.0,0.0,0.0,0.0,0.0,0.0,0.0,0.0,0.0,0.0,4.9211,4.8696,0.0,0.0,0.0,0.0,0.0,0.0,0.0,0.0,0.0,0.0,0.0,4.7024,4.7299,0.0,0.0,0.0,0.0,0.0,0.0,0.0,0.0,0.0,0.0,0.0,0.0,4.8128,4.8412,4.3523,4.081,4.0697,3.8942,3.7664,3.6974,3.5791,3.5578,3.6469,0.0,0.0,0.0,0.0,0.0,0.0,0.0,0.0,0.0,0.0,0.0,0.0,0.0,0.0,0.0,0.0,0.0,0.0,0.0,0.0,0.0,0.0,0.0,0.0,0.0,3.9854,0.0,0.0,0.0,0.0,0.0,0.0,0.0,0.0,0.0,0.0,0.0,4.2713,4.1519,4.2029,4.2327,4.1702,4.2182,4.1909,0.0,0.0,0.0,0.0,0.0,0.0,0.0,0.0,0.0,0.0,0.0,0.0,0.0,0.0,4.2629,4.361,4.1724,3.995,3.9908,0.0,0.0,0.0,0.0,0.0,0.0,0.0,0.0,0.0,0.0,0.0,0.0,0.0,0.0,4.8874,0.0,4.8064,0.0,0.0,0.0,0.0,0.0,0.0,0.0,0.0,4.786,4.7359,4.6902,4.721,4.7225,0.0,4.7467,4.854,0.0,0.0,0.0,0.0,0.0,0.0,0.0,0.0,4.8054,4.8177,4.3349,4.0547,4.0051,3.8738,3.7491,3.6341,3.4927,3.42,3.4213,3.6303,3.7986,0.0,0.0,0.0,0.0,0.0,0.0,0.0,0.0,0.0,0.0,0.0,0.0,0.0,0.0,0.0,0.0,0.0,0.0,0.0,0.0,0.0,0.0,0.0,4.0273,0.0,0.0,0.0,0.0,0.0,0.0,0.0,0.0,0.0,4.3181,4.2782,4.2149,4.1161,4.2165,4.3125,4.3656,0.0,0.0,0.0,0.0,0.0,0.0,0.0,4.5245,4.5295,4.4267,4.269,4.0528,3.9458,3.8926,3.8926,0.0,0.0,4.0688,3.9032,3.7292,3.7362,3.7904,3.8367,3.8472,3.9242,3.9891,0.0,0.0,0.0,0.0,0.0,0.0,0.0,0.0,4.9769,4.9203,0.0,4.8745,0.0,0.0,0.0,0.0,0.0,0.0,0.0,0.0,4.7693,4.7333,4.7389,4.7416,4.7423,4.7526,4.7819,4.8055,4.8077,4.7253,0.0,0.0,0.0,0.0,0.0,0.0,4.7617,4.7726,4.3316,4.0473,3.9444,3.883,3.7472,3.5196,3.3553,3.2309,3.1455,3.3659,3.4494,3.3626,3.84,0.0,0.0,0.0,0.0,0.0,0.0,0.0,0.0,0.0,0.0,0.0,0.0,0.0,0.0,0.0,0.0,0.0,0.0,0.0,0.0,4.1541,0.0,0.0,0.0,0.0,0.0,0.0,0.0,0.0,0.0,0.0,4.3784,4.2114,4.1051,4.1776,0.0,0.0,0.0,0.0,4.4796,4.9722,5.1021,5.1007,5.0245,4.7757,4.4497,4.0563,0.0,0.0,3.5192,3.7121,3.8636,3.8718,3.6143,3.5075,3.8117,3.8066,3.7786,3.8024,3.7993,3.8419,3.8663,3.8851,3.9767,5.8449,0.0,0.0,0.0,0.0,5.3215,5.2221,5.151,5.1117,5.0424,4.9653,4.9083,0.0,0.0,0.0,0.0,0.0,0.0,4.8651,4.8205,4.7965,4.7566,4.7076,4.7382,4.7409,4.7154,4.6948,4.6675,4.6267,4.5126,4.635,4.9745,0.0,0.0,0.0,0.0,4.6526,4.567,4.1611,3.9335,3.926,3.7431,3.571,3.4102,3.3058,3.2113,3.1278,3.1213,3.1796,3.3116,3.4414,0.0,0.0,0.0,0.0,0.0,0.0,0.0,0.0,0.0,0.0,0.0,0.0,0.0,0.0,0.0,0.0,0.0,0.0,0.0,4.2085,4.0423,4.0652,0.0,0.0,0.0,0.0,0.0,0.0,0.0,0.0,0.0,4.2853,4.395,4.5006,0.0,0.0,4.8633,5.059,4.8164,4.5963,4.534,0.0,0.0,0.0,4.1702,4.1962,4.0379,3.7819,3.5961,3.6047,3.4833,3.3889,3.3876,3.2783,3.2305,3.3432,3.2799,3.2098,3.2076,3.2501,3.2926,3.3035,3.3819,3.4609,5.8289,5.7294,5.6287,5.6003,5.6087,5.4754,5.3798,5.3035,5.2255,5.1468,5.0657,4.9727,4.949,4.9744,4.9038,0.0,0.0,0.0,4.9227,4.8946,4.8802,4.847,4.8041,4.7917,4.7754,4.7471,4.6907,4.6339,4.5812,4.5192,4.5958,4.817,0.0,0.0,4.9172,4.6919,4.529,4.4242,4.0746,3.8734,3.845,3.6128,3.4365,3.3409,3.2543,3.1715,3.081,3.013,3.0221,3.1163,3.2115,3.4208,0.0,0.0,0.0,0.0,0.0,0.0,0.0,0.0,0.0,0.0,0.0,4.1925,4.3874,0.0,0.0,0.0,4.0895,4.1425,4.1486,4.1014,0.0,0.0,0.0,0.0,0.0,0.0,0.0,4.6925,4.4393,4.256,4.2806,4.4251,4.4981,4.4193,4.5597,4.7243,4.8725,0.0,4.348,4.2856,4.236,4.1258,3.9068,3.9322,3.9302,3.7478,3.5921,3.4715,3.4514,3.2986,3.1797,3.1743,3.1461,3.1323,3.182,3.1034,3.0435,3.0512,3.089,3.1276,3.1505,3.2073,3.2567,5.8516,5.9004,5.9092,5.8827,5.8201,5.669,5.5608,5.4769,5.3253,5.2352,5.1855,5.0622,5.0016,4.9955,4.9609,0.0,4.9512,4.9695,4.9946,5.0267,4.998,4.9816,4.97,4.8879,4.8467,4.8423,4.7469,4.6806,4.6381,4.6524,4.6497,4.6261,4.582,4.6423,4.7799,4.5803,4.4303,4.3515,4.0873,3.8755,3.7234,3.4942,3.3494,3.2874,3.2081,3.1202,3.0159,3.0108,2.957,2.8647,3.088,3.2228,3.2427,0.0,0.0,0.0,0.0,0.0,0.0,0.0,0.0,0.0,0.0,0.0,0.0,0.0,0.0,3.8544,3.9128,0.0,3.9842,4.2104,0.0,0.0,0.0,4.3367,4.1109,4.1217,4.168,4.2434,0.0,0.0,4.3082,0.0,4.2064,3.8928,3.8933,4.0356,4.3217,4.0617,3.9041,4.1702,4.1757,4.1463,4.0199,3.8635,3.6297,3.3488,3.2554,3.259,3.2186,3.1978,3.1856,3.1879,3.1734,3.1749,3.1971,3.1915,3.2067,3.2229,3.2229,3.2362,3.2759,3.3019,3.3292,6.1141,6.1294,6.1322,5.9612,5.6925,5.6581,5.5746,5.4519,5.4315,5.3773,5.2958,5.2071,5.1215,5.0526,5.0867,5.0875,5.057,5.1353,5.1405,5.0914,5.0781,5.0592,5.0227,4.996,4.9806,4.9738,4.8815,4.8076,4.7529,4.6513,4.6551,4.7465,4.7026,4.7403,4.8529,4.7853,4.6481,4.4412,4.2908,3.9933,3.5511,3.4105,3.2951,3.1797,3.1584,3.1046,3.0228,3.0004,2.9382,2.8367,2.8911,3.0018,3.1665,3.6163,0.0,0.0,0.0,0.0,0.0,0.0,0.0,0.0,0.0,4.3124,4.6014,0.0,4.2513,0.0,3.9015,3.6604,3.6668,3.6899,0.0,0.0,4.1048,4.1761,4.1677,4.0158,4.0105,4.2891,4.1536,4.0252,4.002,4.0281,3.9264,3.6003,3.9565,4.3052,4.4192,4.0918,3.8355,3.8646,3.6811,3.4854,3.4829,3.3939,3.3163,3.1965,3.2298,3.2779,3.2854,3.2833,3.2833,3.2776,3.2024,3.1772,3.2115,3.1988,3.2183,3.2975,3.2954,3.2706,3.2848,3.3566,3.4233,6.2945,6.3168,6.2502,6.0883,5.8664,5.8033,5.7103,5.5908,5.5454,5.4714,5.3858,5.2948,5.2113,5.1487,5.1782,5.171,5.1374,5.1876,5.1976,5.1724,5.1266,5.1122,5.123,5.0579,5.0248,5.0179,4.92,4.8329,4.7492,4.6286,4.5933,4.6499,4.594,4.629,4.7514,4.8452,4.8092,4.6447,4.3754,3.9816,3.4768,3.3844,3.3553,3.3805,3.3792,3.4105,3.4801,3.4698,3.4287,3.3557,3.3331,3.3722,3.4866,3.8622,4.131,0.0,0.0,0.0,0.0,0.0,0.0,0.0,0.0,0.0,0.0,0.0,4.1285,4.2289,3.8253,3.6183,3.7628,3.7453,3.7605,3.8355,3.8849,3.8832,3.8089,3.6975,3.7014,3.8939,3.8042,3.7128,3.6889,3.7094,3.6583,3.4737,3.7238,3.9462,3.9813,3.7637,3.5845,3.5444,3.3746,3.2519,3.2664,3.288,3.2937,3.2739,3.2834,3.2987,3.2839,3.2666,3.2561,3.2503,3.206,3.1833,3.2296,3.2243,3.2377,3.2977,3.3289,3.3432,3.3885,3.4495,3.4957,6.4318,6.4617,6.3332,6.2366,6.1522,6.0117,5.895,5.7928,5.6501,5.5376,5.4452,5.3501,5.2864,5.2488,5.2513,5.2315,5.2003,5.2025,5.2258,5.2517,5.167,5.1635,5.2215,5.0936,5.024,5.0139,4.9081,4.811,4.7144,4.6073,4.5407,4.5165,4.4555,4.4974,4.6471,4.8386,4.9043,4.8384,4.379,3.935,3.512,3.4809,3.5623,3.7426,3.7452,3.8467,4.058,4.0609,4.0444,4.0129,3.9703,3.9025,3.827,4.1649,4.3196,0.0,4.5735,0.0,0.0,0.0,0.0,0.0,0.0,0.0,0.0,3.9023,3.9185,3.9419,3.7236,3.6735,3.9057,3.9235,3.8378,3.627,3.6252,3.55,3.3363,3.3556,3.3848,3.3848,3.4118,3.4283,3.4426,3.4275,3.4376,3.454,3.4479,3.4655,3.4317,3.3793,3.3028,3.2445,3.2258,3.2442,3.3128,3.3692,3.3866,3.3821,3.3523,3.3048,3.2525,3.2192,3.1915,3.1904,3.2022,3.2172,3.2404,3.2459,3.2608,3.2977,3.3435,3.4081,3.4928,3.5321,3.5513,6.561,6.5368,6.5092,6.3775,6.1782,6.1127,5.996,5.8423,5.7064,5.5716,5.4487,5.3951,5.3482,5.3056,5.3039,5.2993,5.2957,5.3319,5.3312,5.2994,5.281,5.2385,5.1731,5.0941,5.0586,5.0492,4.9057,4.8263,4.8016,4.653,4.6573,4.7903,4.7393,4.7644,4.8705,0.0,0.0,0.0,4.3205,4.0224,3.8744,4.0422,4.1357,4.1342,4.0967,0.0,4.1434,4.0753,4.0141,3.9644,3.9768,0.0,0.0,0.0,0.0,0.0,0.0,0.0,0.0,0.0,0.0,0.0,3.9781,3.9932,3.924,4.0075,3.9511,3.6834,3.6349,3.5401,3.3343,3.3071,3.3081,3.3073,3.3453,3.3592,3.3355,3.3818,3.4194,3.4194,3.4245,3.4296,3.4227,3.4234,3.4253,3.4301,3.4183,3.4159,3.4155,3.3268,3.239,3.1822,3.1926,3.2282,3.3168,3.3327,3.3231,3.2748,3.3255,3.3329,3.2861,3.2822,3.2801,3.2586,3.2438,3.2308,3.2373,3.2464,3.2779,3.3326,3.374,3.4127,3.4766,3.5346,3.5718,6.699,0.0,6.5982,6.4817,0.0,6.2085,6.0912,5.9768,5.7862,5.6522,5.5598,5.4895,5.4454,5.421,5.398,5.3788,5.3569,5.3777,5.3873,5.3773,5.3255,5.2958,5.2876,5.1836,5.1151,5.0856,4.953,4.859,4.8036,4.6739,4.6402,4.7051,4.596,4.5516,4.5704,4.4353,4.3708,4.3856,4.1588,3.9002,3.6315,3.7357,3.8364,3.9165,0.0,0.0,0.0,0.0,0.0,0.0,0.0,0.0,0.0,0.0,0.0,3.4752,3.6832,3.7557,3.5946,3.5771,3.5196,3.3889,3.4574,3.5725,3.7362,3.6765,3.5633,3.399,3.4111,3.3689,3.2208,3.1988,3.2145,3.2531,3.2975,3.3323,3.3579,3.3962,3.4259,3.4271,3.4259,3.4215,3.4191,3.4228,3.4102,3.3948,3.3916,3.3744,3.3315,3.3204,3.294,3.2399,3.2102,3.2304,3.3162,3.3425,3.3332,3.3078,3.3127,3.3153,3.2872,3.2867,3.288,3.272,3.2724,3.2786,3.2796,3.2883,3.3146,3.3772,3.406,3.4362,3.4886,3.5228,3.5427,6.8091,6.7926,6.6696,6.5589,6.453,6.2987,6.1769,6.0676,0.0,0.0,0.0,5.5683,5.5272,5.5129,5.474,5.4364,5.3976,5.3976,5.4106,5.4293,5.3407,5.3304,5.3806,5.2435,5.1415,5.0811,4.9699,4.8649,4.7574,4.6544,4.5699,4.4969,4.3608,4.2466,4.1469,3.9156,3.8458,3.9365,3.9739,3.7965,3.4014,3.42,3.5213,3.6977,3.6911,3.7766,3.9822,3.9728,3.9554,3.9383,3.9441,3.8697,3.7115,3.7949,3.7693,3.5914,3.6911,3.6122,3.2593,3.2748,3.1662,2.8552,2.9738,3.1845,3.4673,3.2843,3.171,3.2,3.2205,3.2513,3.2761,3.2797,3.2905,3.3171,3.3388,3.3662,3.3835,3.404,3.4206,3.4233,3.4152,3.4063,3.4032,3.394,3.3721,3.3373,3.323,3.3122,3.2418,3.2696,3.2816,3.2491,3.1856,3.1972,3.2839,3.3112,3.3341,3.3087,3.2901,3.2751,3.2635,3.2655,3.2678,3.2719,3.3066,3.3313,3.3367,3.3356,3.3568,3.4076,3.4202,3.4329,3.4824,3.4867,3.4817,6.8485,6.8035,6.7868,6.6204,6.3723,6.3879,6.2432,5.9808,5.8204,5.6985,5.6178,5.5539,5.5098,5.4672,5.4625,5.4502,5.43,5.432,5.4074,0.0,5.3499,5.3014,5.2216,5.1515,5.071,4.9699,4.8649,4.7523,4.6493,4.5837,4.4878,4.3841,4.3433,4.2204,3.9929,3.8036,3.6572,3.5672,3.8579,3.9567,3.8687,4.037,4.1289,4.1335,4.0576,4.0439,4.0601,3.9719,3.9349,3.9303,3.8871,3.6752,3.2661,3.252,3.1164,2.8214,2.8141,2.8539,2.9302,2.9389,2.9511,2.9667,3.0552,3.1261,3.1533,3.2121,3.2531,3.2785,3.2857,3.3086,3.3545,3.3606,3.3702,3.3956,3.404,3.41,3.4161,3.4209,3.433,3.4535,3.4059,3.3665,3.3591,3.3079,3.2585,3.223,3.2295,3.2301,3.2122,3.1553,3.1049,3.088,3.0478,3.0766,3.166,3.1799,3.1765,3.157,3.2192,3.2382,3.1887,3.2507,3.292,3.2895,3.3261,3.3519,3.3615,3.3615,3.3689,3.3881,3.387,3.3934,3.4062,3.4018,3.4208,6.8731,6.8363,6.7284,6.5976,6.4545,6.341,6.1936,6.0347,5.9096,5.8078,5.7195,5.6371,5.573,5.5252,5.4986,5.4683,5.4341,5.4341,5.4358,5.4265,5.3667,5.3284,5.2893,5.154,5.073,5.0365,4.9031,4.8036,4.738,4.6529,4.5452,4.4178,4.2944,4.1377,3.9613,3.8432,3.7254,3.5966,3.6611,3.6436,3.539,3.6233,3.639,3.559,3.5219,3.4768,3.4255,3.377,3.3484,3.3382,3.2948,3.1575,2.9138,2.9357,2.8803,2.6986,2.7443,2.819,2.9016,2.934,2.9582,2.9851,3.0877,3.1534,3.1718,3.2669,3.3292,3.3412,3.3545,3.3613,3.3523,3.3609,3.3739,3.3858,3.3828,3.4064,3.4673,3.4617,3.4737,3.5081,3.4335,3.3704,3.3623,3.2806,3.2132,3.1756,3.164,3.1546,3.1262,3.0787,3.0586,3.104,3.0701,3.0433,3.0772,3.0998,3.0883,3.0571,3.1275,3.165,3.1439,3.2023,3.2275,3.2318,3.2804,3.3251,3.3282,3.3615,3.3798,3.3873,3.3862,3.3873,3.3862,3.3862,3.4087,6.8783,6.8475,6.6763,6.5756,6.5028,6.2575,6.1323,6.0892,5.9918,5.9031,5.8199,5.7087,5.6397,5.6061,5.5491,5.5059,5.4763,5.4714,5.4855,5.4953,5.4043,5.371,5.3693,5.1868,5.0989,5.0893,4.9584,4.8617,4.7955,4.7101,4.5953,4.4412,4.2178,4.0501,3.9616,3.8796,3.7873,3.6739,3.5416,3.3857,3.2195,3.1918,3.1231,3.0165,3.0054,2.9633,2.9018,2.8953,2.8812,2.8487,2.8196,2.7784,2.7241,2.7793,2.8018,2.7856,2.8638,2.9325,2.9728,3.0026,3.0291,3.0402,3.1513,3.2352,3.2744,3.3419,3.3982,3.414,3.4227,3.4081,3.3711,3.3619,3.3606,3.3454,3.3362,3.3568,3.4343,3.4327,3.432,3.4813,3.4011,3.3244,3.3072,3.2304,3.1526,3.1107,3.0896,3.0659,3.026,3.0151,3.0447,3.0725,3.0496,2.9893,2.9607,2.968,2.968,2.9319,2.9879,3.0393,3.0643,3.1004,3.1327,3.1401,3.197,3.2297,3.2338,3.2587,3.2966,3.3161,3.3345,3.356,3.3948,3.4013,3.4024,6.8594,6.8127,6.7339,6.5997,6.4075,6.201,6.1077,6.0804,5.987,5.9109,5.8554,5.7149,5.6759,5.692,5.599,5.5708,5.5989,5.5968,5.5662,5.5162,5.4596,5.4039,5.3495,5.2319,5.1239,5.0348,4.956,4.8406,4.7058,4.6714,4.553,4.3305,4.0964,3.9771,3.9503,3.8217,3.7159,3.6455,3.6016,3.5025,3.3577,3.2465,3.1455,3.0564,3.0263,2.9979,2.9663,2.9663,2.9381,2.8862,2.8749,2.8543,2.7967,2.7997,2.8383,2.9036,2.9229,2.9658,3.0537,3.0703,3.1045,3.1959,3.288,3.3534,3.3571,3.3934,3.4468,3.4845,3.4619,3.431,3.4568,3.4063,3.3391,3.292,3.2768,3.2718,3.2377,3.2113,3.2286,3.2742,3.2414,3.1693,3.1597,3.0899,3.0285,2.9958,2.9787,2.9718,2.9776,2.9739,2.9544,2.9209,2.8728,2.8507,2.8315,2.7802,2.7802,2.7619,2.8013,2.8709,2.9416,3.0026,3.0574,3.0329,3.0795,3.0857,3.0486,3.03,3.0802,3.1832,3.2167,3.2458,3.3571,3.3905,3.383,6.8532,6.7853,6.6384,6.4886,6.337,6.2194,6.1682,6.16,6.0877,6.0394,5.9987,5.8333,5.7197,5.6515,5.6105,5.5865,5.5733,5.5631,5.5293,5.4717,5.4192,5.3455,5.2555,5.1437,5.058,4.9982,4.9093,4.8227,4.7268,4.6142,4.4923,4.3741,4.1747,4.0708,4.0607,3.8972,3.7839,3.7415,3.6875,3.5977,3.4619,3.3164,3.1987,3.1142,3.0576,3.0299,3.0202,2.9846,2.9501,2.9213,2.8868,2.8637,2.8349,2.8752,2.9144,2.9663,3.0287,3.0639,3.0651,3.0789,3.0845,3.0879,3.186,3.2507,3.2529,3.3215,3.3782,3.3942,3.3365,3.2817,3.2685,3.2413,3.2212,3.2045,3.1875,3.1836,3.2455,3.22,3.2256,3.275,3.2006,3.1301,3.0986,3.0048,2.9245,2.9042,2.8828,2.8678,2.8685,2.8628,2.8554,2.8208,2.7683,2.73,2.726,2.7363,2.7104,2.6992,2.7404,2.8115,2.8292,2.855,2.8884,2.8865,2.9163,2.9339,2.92,2.9366,2.9826,3.0523,3.1108,3.1613,3.2663,3.2792,3.2792,6.8061,6.6991,6.5085,6.3672,6.2773,6.2348,6.2082,6.1868,6.1334,6.1033,6.0682,5.9141,5.7774,5.6649,5.6222,5.5887,5.5698,5.55,5.519,5.4696,5.406,5.3284,5.2304,5.1225,5.0552,5.0226,4.919,4.8283,4.7462,4.5752,4.4678,4.4192,4.2534,4.1649,4.1441,3.984,3.8692,3.8216,3.7687,3.6882,3.5676,3.4303,3.3143,3.2145,3.169,3.1456,3.1397,3.0634,3.0164,3.0164,2.9575,2.9222,2.9281,2.987,3.0339,3.056,3.1127,3.1322,3.0952,3.0935,3.0803,3.0639,3.1433,3.1891,3.1954,3.2458,3.27,3.2446,3.1651,3.1081,3.1515,3.1298,3.1246,3.1224,3.0884,3.1091,3.1659,3.157,3.1535,3.1999,3.1224,3.0688,3.0373,2.9292,2.84,2.8443,2.8152,2.7776,2.7776,2.7842,2.7759,2.7444,2.6968,2.6672,2.6596,2.6585,2.665,2.6511,2.6709,2.6888,2.7096,2.7087,2.6883,2.6841,2.7286,2.7334,2.7001,2.7533,2.8489,2.8977,2.9746,3.0604,3.1178,3.1423,3.1678,6.7086,6.5445,6.3798,6.2783,6.2209,6.2177,6.1857,6.133,6.0805,6.0246,5.978,5.901,5.8373,5.7761,5.6538,5.6201,5.6577,5.6028,5.5667,5.5452,5.4482,5.3838,5.3531,5.2389,5.1659,5.1214,5.0046,4.8693,4.7096,4.5816,4.507,4.4697,4.2921,4.194,4.1785,4.0535,3.9412,3.8697,3.8448,3.7852,3.6961,3.6233,3.5193,3.3972,3.3711,3.3616,3.3447,3.2421,3.1745,3.1756,3.1037,3.0766,3.0908,3.1403,3.1814,3.2028,3.154,3.138,3.1609,3.117,3.1136,3.1803,3.2042,3.2431,3.2113,3.1939,3.153,3.0832,3.0137,3.0236,3.1581,3.1266,3.0852,3.0383,3.0285,3.005,2.9549,2.9779,2.948,2.989,2.9873,2.9598,2.8995,2.8274,2.7872,2.7833,2.7776,2.7645,2.7579,2.7645,2.7313,2.6809,2.6514,2.6522,2.6575,2.604,2.5575,2.5364,2.5217,2.5274,2.5298,2.5281,2.4975,2.4789,2.5217,2.5209,2.4684,2.512,2.6198,2.7185,2.847,2.9347,2.9624,3.0389,3.0558,6.6147,6.4253,6.3231,6.2475,6.1932,6.155,6.1257,6.1059,6.084,6.0621,6.0341,5.9553,5.903,5.8772,5.7282,5.6735,5.6898,5.6619,5.6151,5.5439,5.4945,5.4137,5.293,5.2501,5.1825,5.093,4.9828,4.8399,4.6887,4.6154,4.5678,4.5219,4.3679,4.2822,4.2545,4.1117,4.0089,3.9971,3.9539,3.8937,3.8159,3.7908,3.7239,3.6136,3.4983,3.3952,3.3093,3.25,3.1802,3.0894,3.0882,3.1054,3.1222,3.1628,3.1941,3.1974,3.1546,3.1061,3.0812,3.0588,3.0364,3.0325,3.0916,3.1174,3.0871,3.097,3.0854,3.0259,2.9896,3.0099,3.0364,3.0244,2.9872,2.9868,2.9833,2.9778,2.9549,2.956,2.9683,2.9684,2.9433,2.8873,2.82,2.757,2.7111,2.7045,2.6725,2.6528,2.6462,2.6462,2.6297,2.6124,2.5977,2.5862,2.5311,2.494,2.444,2.4108,2.3876,2.3868,2.3902,2.3966,2.3731,2.3651,2.3726,2.3947,2.3755,2.4348,2.5174,2.5912,2.7187,2.7677,2.8002,2.8663,2.8746,6.5035,6.3397,6.2845,6.222,6.1492,6.1105,6.0919,6.0864,6.0698,6.0587,6.0472,5.9715,5.9229,5.8893,5.792,5.7177,5.6806,5.6577,5.5983,5.5209,5.4987,5.4113,5.2875,5.2723,5.2001,5.0737,4.9549,4.83,4.7095,4.6574,4.6268,4.6026,4.4352,4.3452,4.3219,4.1812,4.0959,4.0737,4.0437,3.9844,3.9085,3.897,3.8516,3.7601,3.6249,3.4982,3.3838,3.3226,3.2581,3.1764,3.1514,3.1514,3.163,3.165,3.1731,3.175,3.1311,3.0846,3.0456,3.0209,2.9897,2.9511,2.9967,3.0118,2.9803,3.0242,3.031,3.0002,2.9937,2.9937,2.9871,2.956,2.9437,2.9626,2.9664,2.9673,2.9673,2.9787,2.9713,2.9395,2.8601,2.7955,2.7505,2.6782,2.6454,2.6388,2.5804,2.5343,2.5343,2.5145,2.4981,2.4942,2.4837,2.4461,2.3972,2.3448,2.3693,2.3433,2.3156,2.3004,2.2737,2.2737,2.2665,2.2514,2.2634,2.2901,2.3296,2.3887,2.4421,2.4948,2.5409,2.5939,2.6384,2.6854,2.716,6.3664,6.2845,6.2534,6.1898,6.1055,6.0829,6.0829,6.0703,6.0294,6.0131,6.0079,5.9498,5.8958,5.8471,5.8188,5.7569,5.6572,5.5786,5.5395,5.5191,5.4708,5.4014,5.3113,5.3074,5.2296,5.0871,4.9695,4.8596,4.7647,4.7066,4.6738,4.6379,4.4753,4.3788,4.376,4.262,4.1666,4.1119,4.1061,4.0543,3.9435,3.9346,3.9066,3.8288,3.746,3.6778,3.6178,3.4872,3.4018,3.3776,3.2806,3.2288,3.2056,3.1556,3.1328,3.1425,3.098,3.0691,3.0717,3.0216,2.9926,2.9871,2.9918,2.9964,2.9899,2.9918,2.9927,2.9899,2.9899,2.9909,2.9796,2.9626,2.9588,2.9815,2.9777,2.9758,2.975,2.9797,2.9545,2.875,2.7627,2.6848,2.6585,2.6199,2.587,2.5606,2.5145,2.4683,2.4617,2.4221,2.3684,2.352,2.3717,2.3601,2.2783,2.2053,2.2602,2.2921,2.2746,2.255,2.2162,2.2032,2.1902,2.1751,2.209,2.2368,2.2645,2.3173,2.3324,2.3763,2.4013,2.4472,2.4999,2.5539,2.6055,6.3943,6.35,6.2314,6.169,6.123,6.0246,5.9876,6.0096,5.9947,6.0048,6.017,5.9641,5.93,5.8881,5.7988,5.7286,5.683,5.593,5.5389,5.5389,5.5219,5.4519,5.3657,5.3464,5.2505,5.0788,4.9853,4.8963,4.8097,4.7619,4.7192,4.6451,4.4982,4.4145,4.4005,4.2859,4.2038,4.1795,4.1848,4.1458,4.0645,4.0582,4.0264,3.9614,3.8912,3.806,3.6872,3.5371,3.3944,3.2602,3.2392,3.2127,3.1824,3.1268,3.1054,3.1048,3.0483,3.0112,3.0179,3.0068,2.9937,2.9937,2.9937,2.9937,2.9937,2.9937,2.9815,2.9766,2.9664,2.9616,2.9465,2.939,2.9456,2.9645,2.9531,2.9264,2.8931,2.8668,2.8152,2.7505,2.6971,2.6519,2.6133,2.5746,2.5483,2.5013,2.4683,2.4419,2.3957,2.3693,2.3619,2.3486,2.3405,2.2915,2.2178,2.1735,2.1916,2.2185,2.2079,2.2074,2.1727,2.1524,2.1308,2.1267,2.1608,2.1875,2.2154,2.2419,2.2585,2.2964,2.3506,2.3798,2.3963,2.4501,2.5152,6.3762,6.3317,6.2259,6.1478,6.1093,6.0028,5.9805,6.0019,6.0058,6.0024,5.9991,5.9686,5.9227,5.871,5.7754,5.7181,5.6932,5.6271,5.5873,5.557,5.5279,5.4634,5.3619,5.2818,5.2028,5.08,4.9855,4.9075,4.8395,4.7941,4.7435,4.6706,4.5327,4.441,4.4222,4.3404,4.2787,4.2345,4.2408,4.2091,4.1408,4.1217,4.0773,3.9805,3.8656,3.7503,3.6324,3.4903,3.3476,3.2371,3.2183,3.2054,3.1736,3.1218,3.0776,3.0515,3.0198,2.9937,2.9937,2.9937,2.9937,2.9937,2.9937,2.9937,2.9937,2.9937,2.9805,2.9711,2.9692,2.9626,2.9513,2.9399,2.9446,2.955,2.9123,2.8608,2.8092,2.7613,2.7196,2.6746,2.6469,2.5985,2.554,2.5285,2.5013,2.4419,2.3957,2.3759,2.323,2.2899,2.2899,2.2826,2.2547,2.2076,2.1627,2.1421,2.1362,2.1374,2.1365,2.1456,2.1435,2.1362,2.129,2.1274,2.1473,2.1411,2.1687,2.1873,2.211,2.2587,2.2889,2.3078,2.3295,2.4062,2.4724,6.3298,6.2351,6.2122,6.1451,6.064,6.041,6.039,6.0411,6.0354,6.0107,5.9706,5.9533,5.8861,5.8013,5.7704,5.7358,5.6875,5.6608,5.6263,5.5634,5.5006,5.4222,5.3582,5.1862,5.106,5.0958,4.9852,4.9138,4.8722,4.811,4.7556,4.7068,4.5789,4.4864,4.441,4.4222,4.353,4.2724,4.2913,4.2534,4.1471,4.1344,4.0773,3.9499,3.776,3.64,3.5563,3.4067,3.3106,3.2857,3.2287,3.1822,3.1798,3.1232,3.0515,3.0002,2.9937,3.0002,2.9937,3.0068,3.0123,3.0264,3.0133,2.9918,3.003,2.9974,2.9824,2.9749,2.9768,2.9796,2.973,2.9607,2.9457,2.9328,2.8608,2.7966,2.724,2.6768,2.6514,2.6343,2.5968,2.5417,2.4749,2.4617,2.4221,2.3626,2.3031,2.2767,2.2436,2.2104,2.1574,2.1574,2.1839,2.1508,2.1176,2.1309,2.1242,2.1023,2.1043,2.1228,2.1346,2.1346,2.1353,2.1272,2.127,2.1208,2.1195,2.1525,2.1618,2.1801,2.2026,2.2235,2.2835,2.3616,2.4238,6.3928,6.3213,6.2324,6.184,6.1453,6.0757,6.0587,6.0841,6.038,6.0265,6.0205,5.9463,5.8879,5.8486,5.7797,5.7374,5.7085,5.6437,5.604,5.5654,5.4574,5.4041,5.3455,5.1905,5.1143,5.126,5.0222,4.9425,4.9065,4.8371,4.7768,4.7128,4.5943,4.5129,4.4927,4.4473,4.4096,4.3656,4.3278,4.3026,4.2647,4.2091,4.1534,4.0645,3.9027,3.7684,3.6464,3.4283,3.2998,3.2868,3.1818,3.1167,3.1232,3.0645,3.0264,3.0068,3.0002,3.0198,3.0515,3.0645,3.0906,3.1362,3.0841,3.0587,3.0442,3.0112,2.9776,2.9541,2.9541,2.9598,2.9456,2.9399,2.8966,2.7993,2.7806,2.7454,2.6703,2.6204,2.5936,2.5812,2.5311,2.4873,2.4485,2.4089,2.356,2.2965,2.2568,2.2296,2.1906,2.1707,2.1375,2.1375,2.1441,2.111,2.0911,2.111,2.1043,2.0778,2.0897,2.1282,2.1341,2.1341,2.1341,2.1387,2.134,2.1285,2.1319,2.1433,2.1374,2.1346,2.1708,2.2162,2.2536,2.321,2.388,6.3537,6.317,6.2218,6.1715,6.1444,6.0843,6.0709,6.0708,6.0261,6.0063,5.9995,5.931,5.8799,5.8466,5.7908,5.7502,5.717,5.6597,5.6034,5.5306,5.4475,5.3971,5.3391,5.2044,5.1506,5.1638,5.0515,4.9709,4.9174,4.8525,4.7859,4.7128,4.6193,4.5567,4.5129,4.4864,4.4285,4.3782,4.3341,4.3089,4.2787,4.1838,4.1014,4.0047,3.8568,3.6774,3.5305,3.3765,3.3127,3.3062,3.2208,3.1492,3.1688,3.1167,3.0776,3.0776,3.0776,3.0971,3.1232,3.1362,3.1427,3.1427,3.1102,3.0669,3.0303,2.9934,2.9711,2.9484,2.9588,2.9607,2.955,2.9503,2.8986,2.8182,2.7725,2.714,2.6037,2.5698,2.5411,2.5181,2.4834,2.4287,2.3891,2.3362,2.2833,2.2237,2.2038,2.1773,2.1508,2.1441,2.1302,2.1176,2.1043,2.0711,2.0247,2.0247,2.0439,2.0247,2.0446,2.0911,2.1176,2.1236,2.1236,2.1229,2.1302,2.1368,2.1302,2.1302,2.1355,2.1447,2.1795,2.1899,2.2251,2.2791,2.3378,6.2689,6.2553,6.1952,6.1368,6.0958,6.084,6.0757,6.0531,6.0106,5.9788,5.9559,5.9082,5.8614,5.8083,5.8028,5.7653,5.7039,5.677,5.5968,5.5111,5.4371,5.3949,5.3572,5.2352,5.1897,5.1918,5.0821,5.0006,4.9344,4.8726,4.7983,4.7362,4.6692,4.6005,4.5567,4.5317,4.4676,4.3971,4.3593,4.3026,4.2281,4.1141,4.0047,3.8772,3.6785,3.4982,3.3894,3.3192,3.3387,3.397,3.2792,3.2403,3.2803,3.2273,3.1948,3.1883,3.1818,3.1818,3.1938,3.1883,3.1743,3.1297,3.1037,3.0623,3.0053,2.9879,2.9777,2.955,2.9814,2.9815,2.9815,2.9843,2.9489,2.8743,2.82,2.7135,2.5713,2.5274,2.5037,2.4318,2.4334,2.367,2.2965,2.2369,2.2171,2.1773,2.1508,2.1242,2.0977,2.0771,2.0771,2.0771,2.0512,2.0247,1.9781,1.931,1.9509,1.9642,1.9914,2.0313,2.0844,2.0977,2.1037,2.1037,2.0838,2.0911,2.111,2.1176,2.1309,2.1428,2.1586,2.154,2.1547,2.2291,2.2959,6.2379,6.1874,6.1561,6.1402,6.1282,6.1094,6.0986,6.0882,6.0266,5.9929,5.9767,5.9031,5.8607,5.845,5.8097,5.7612,5.6877,5.6399,5.5499,5.4431,5.4189,5.4111,5.375,5.2643,5.2145,5.1878,5.0837,5.0161,4.9776,4.922,4.8664,4.7921,4.7252,4.6707,4.6145,4.588,4.5943,4.5442,4.4536,4.3215,4.2078,4.0683,3.9219,3.7556,3.5896,3.4746,3.4035,3.3776,3.384,3.3776,3.3322,3.2868,3.2933,3.2403,3.2143,3.2143,3.2078,3.2013,3.2013,3.2013,3.1938,3.1688,3.1157,3.0753,3.0448,3.0009,2.9823,2.9654,2.9749,2.9927,2.9937,2.9937,2.961,2.9012,2.861,2.7732,2.6026,2.5115,2.4605,2.3896,2.3325,2.2833,2.2502,2.1965,2.164,2.1375,2.1043,2.0718,2.0512,2.0307,2.024,2.0307,1.9842,1.9515,1.9316,1.8844,1.8778,1.8977,1.9243,1.9515,2.0047,2.0379,2.0373,2.0307,2.0247,2.0512,2.0977,2.1176,2.1375,2.1375,2.1375,2.1375,2.1567,2.2104,2.2568,6.1953,6.1581,6.1459,6.1063,6.0544,6.0623,6.0604,6.0414,5.9901,5.9775,5.9714,5.903,5.8615,5.8579,5.8152,5.7474,5.6459,5.5499,5.4793,5.4189,5.4128,5.4128,5.3947,5.3141,5.2472,5.2045,5.0837,5.0284,5.0022,4.9529,4.885,4.8215,4.7548,4.7066,4.6567,4.613,4.5943,4.5678,4.4222,4.2773,4.1685,3.9729,3.776,3.6025,3.494,3.4358,3.4035,3.397,3.397,3.3905,3.3646,3.3462,3.3322,3.2857,3.2663,3.2857,3.2598,3.2468,3.2468,3.2143,3.1808,3.1492,3.1102,3.0649,3.0312,2.9953,2.9823,2.9673,2.9739,2.9937,2.9937,2.9937,2.9666,2.9405,2.9003,2.8021,2.6519,2.5532,2.4477,2.3487,2.2759,2.2362,2.1965,2.1634,2.1501,2.1375,2.1309,2.0977,2.0519,2.0247,1.9842,1.9642,1.911,1.8778,1.8711,1.8445,1.8184,1.8318,1.8584,1.8784,1.905,1.9376,1.9576,1.9775,2.0114,2.0579,2.1043,2.1242,2.1368,2.1375,2.1375,2.1375,2.1501,2.1766,2.2171,6.1659,6.1474,6.1354,6.0658,5.9817,6.0064,6.0132,5.9907,5.9527,5.9741,5.9692,5.9111,5.8928,5.8744,5.8299,5.7344,5.5997,5.4793,5.4189,5.4128,5.4128,5.4128,5.3947,5.3384,5.2715,5.2122,5.1005,5.0452,5.0099,4.9652,4.9159,4.8401,4.7859,4.7563,4.7128,4.6255,4.5866,4.5914,4.3719,4.1952,4.0734,3.8516,3.6207,3.4671,3.4229,3.4099,3.4035,3.397,3.397,3.397,3.4002,3.4089,3.3948,3.3581,3.3322,3.3905,3.3387,3.2998,3.2608,3.2208,3.1678,3.0906,3.0711,3.0447,2.9906,2.9833,2.9833,2.9749,2.9842,2.9937,2.9937,2.9937,2.9937,2.9731,2.9208,2.8217,2.6971,2.6059,2.4543,2.3031,2.2303,2.1972,2.17,2.1435,2.1435,2.1368,2.1309,2.1116,2.0652,2.012,1.9721,1.9213,1.8759,1.8305,1.8182,1.812,1.7846,1.8091,1.8213,1.8529,1.8723,1.9316,1.9775,1.9914,2.0247,2.0645,2.0977,2.1176,2.1309,2.1375,2.1375,2.1375,2.1375,2.1375,2.1839,6.1939,6.1856,6.1117,6.0661,6.0474,6.0373,6.0311,6.0279,6.0169,6.0224,6.0188,5.9766,5.957,5.9344,5.8776,5.7538,5.605,5.4733,5.4128,5.4128,5.4128,5.4128,5.3947,5.3384,5.2776,5.2167,5.1311,5.0698,5.0284,5.0038,4.9529,4.9097,4.885,4.854,4.7921,4.7237,4.6428,4.5899,4.3579,4.1635,4.0111,3.7748,3.5563,3.4164,3.4056,3.4067,3.3991,3.3981,3.397,3.4045,3.4228,3.4304,3.4304,3.3969,3.3905,3.3959,3.384,3.3341,3.2615,3.2184,3.1307,3.045,3.0217,3.0208,2.9964,2.9909,2.9899,2.9899,2.989,2.9937,2.9937,2.9946,2.9872,2.9741,2.9143,2.8152,2.6848,2.5524,2.4272,2.2767,2.2104,2.164,2.1501,2.1375,2.1375,2.1309,2.1176,2.1004,2.0624,2.0019,1.9407,1.891,1.8416,1.8055,1.7744,1.7723,1.7606,1.8165,1.8477,1.8886,1.9207,1.9788,2.0187,2.0384,2.0358,2.0512,2.0778,2.111,2.1309,2.1368,2.1375,2.1375,2.1375,2.1435,2.1707,6.1948,6.1797,6.1016,6.05,6.0268,6.0329,6.0389,6.0389,6.0389,6.0389,6.0279,5.9968,5.9766,5.9564,5.8941,5.7634,5.6008,5.4673,5.4128,5.4128,5.4128,5.4128,5.4007,5.3445,5.2776,5.2183,5.1495,5.0882,5.0284,5.0222,4.9837,4.9344,4.922,4.9035,4.8401,4.7285,4.6787,4.5899,4.3502,4.1191,3.9996,3.7247,3.5198,3.438,3.4164,3.4207,3.4239,3.4303,3.4335,3.4368,3.4454,3.4562,3.4541,3.4487,3.4346,3.4335,3.4052,3.3659,3.2938,3.261,3.1999,3.1289,3.082,3.0556,3.0358,3.0189,2.9946,2.9946,2.9881,2.9919,3.0079,2.9947,2.9797,2.9394,2.8683,2.7645,2.6314,2.4931,2.3693,2.2649,2.1993,2.1595,2.1441,2.1375,2.1375,2.1242,2.1116,2.0884,2.0603,2.0222,1.9754,1.9108,1.8696,1.8083,1.7764,1.7579,1.7508,1.8004,1.8535,1.8952,1.9541,2.0009,2.0608,2.1028,2.0888,2.0644,2.0924,2.1322,2.1382,2.1382,2.1389,2.1389,2.1375,2.1501,2.1714,6.1892,6.1589,6.0917,6.0385,6.0011,6.0243,6.0389,6.0389,6.0389,6.0389,6.0353,6.0078,5.9913,5.9631,5.8699,5.7417,5.5863,5.4621,5.4128,5.4128,5.4128,5.4128,5.3947,5.3445,5.2776,5.2167,5.1495,5.0882,5.0345,5.0222,4.9899,4.9529,4.9344,4.9097,4.8602,4.716,4.6787,4.5149,4.3075,4.0696,3.8973,3.7007,3.531,3.4629,3.4684,3.4717,3.4804,3.466,3.4681,3.4647,3.4711,3.4754,3.4765,3.4797,3.4819,3.4742,3.4269,3.3951,3.3523,3.3248,3.2616,3.1835,3.1522,3.1141,3.0725,3.0228,2.9966,2.9976,3.0013,3.0089,3.0202,2.9769,2.9374,2.8816,2.7886,2.6702,2.5597,2.4415,2.337,2.2507,2.1901,2.1589,2.1536,2.1389,2.1389,2.1536,2.1343,2.1297,2.1076,2.1088,2.0589,1.9756,1.9075,1.8343,1.7898,1.7625,1.7565,1.7726,1.8302,1.8754,1.9432,2.0122,2.0737,2.1335,2.1262,2.1089,2.135,2.1516,2.1564,2.157,2.1516,2.1475,2.1389,2.1389,2.1528,6.1985,6.1408,6.0687,6.0396,6.0316,6.0371,6.0389,6.0389,6.0389,6.0389,6.0389,6.0353,6.0279,5.9813,5.8292,5.6883,5.5661,5.4681,5.4197,5.4214,5.4146,5.4128,5.4007,5.3384,5.2776,5.2106,5.1495,5.0882,5.0329,5.0222,5.0161,4.9976,4.9467,4.8973,4.8339,4.6849,4.5336,4.3656,4.1521,3.9279,3.7541,3.7135,3.6796,3.6345,3.5976,3.5614,3.5494,3.5185,3.4887,3.4754,3.4971,3.5047,3.509,3.5262,3.5405,3.5241,3.4892,3.4282,3.385,3.3616,3.2998,3.2167,3.1528,3.0985,3.0541,3.0343,3.0202,3.041,3.0391,3.0325,3.0096,2.9278,2.8687,2.7833,2.6872,2.5849,2.4827,2.4028,2.3035,2.2656,2.2074,2.1887,2.1699,2.1577,2.1482,2.1577,2.1652,2.1605,2.1592,2.1565,2.1028,2.0121,1.9485,1.8817,1.8003,1.7792,1.7674,1.7636,1.802,1.859,1.9425,2.02,2.0937,2.1369,2.1403,2.1565,2.1693,2.1808,2.176,2.1692,2.1625,2.1536,2.1395,2.1469,2.1482,6.1975,6.1359,6.0717,6.0389,6.0389,6.0389,6.0389,6.0389,6.0389,6.0389,6.0389,6.0389,6.0094,5.9344,5.8085,5.6965,5.5905,5.4896,5.4437,5.4368,5.4248,5.4146,5.3826,5.3097,5.235,5.2106,5.1189,5.053,5.0222,5.0222,5.0222,5.0161,4.9853,4.922,4.7936,4.6475,4.4835,4.3067,4.1029,3.9002,3.7647,3.7398,3.7461,3.6986,3.6716,3.6442,3.609,3.589,3.5467,3.5288,3.5262,3.5284,3.5305,3.5448,3.5502,3.5424,3.487,3.4418,3.414,3.4052,3.331,3.256,3.184,3.1305,3.06,3.0363,3.0372,3.0476,3.0486,3.0342,3.0073,2.9405,2.8637,2.767,2.6251,2.559,2.4671,2.3605,2.2872,2.2624,2.2389,2.2072,2.1882,2.1808,2.172,2.174,2.1815,2.1848,2.1882,2.1949,2.1262,2.0213,1.9686,1.9214,1.8391,1.7837,1.7766,1.7717,1.7679,1.8354,1.9452,2.0214,2.0882,2.1561,2.1908,2.199,2.212,2.2004,2.1876,2.1794,2.1787,2.1652,2.1584,2.1489,2.1569,6.1544,6.1113,6.0637,6.0389,6.0389,6.0389,6.0389,6.0389,6.0389,6.0389,6.0346,6.0203,5.9587,5.8662,5.7804,5.678,5.6041,5.5144,5.4772,5.4574,5.442,5.4188,5.386,5.302,5.2472,5.2366,5.125,5.0594,5.0349,5.0164,4.9963,4.9992,4.967,4.8803,4.7419,4.5934,4.425,4.2301,4.0389,3.8947,3.8144,3.8167,3.8023,3.781,3.7529,3.7378,3.6879,3.6456,3.6086,3.5895,3.548,3.5413,3.5491,3.5502,3.531,3.5165,3.4629,3.4168,3.3898,3.3685,3.3519,3.2821,3.2019,3.1164,3.0733,3.0571,3.0417,3.0349,3.0627,3.0221,2.9651,2.9183,2.834,2.7325,2.6243,2.5638,2.4923,2.3841,2.3103,2.2853,2.2556,2.2222,2.2079,2.2045,2.1998,2.195,2.1971,2.2018,2.2127,2.2255,2.1586,2.057,2.0017,1.9538,1.8788,1.8158,1.797,1.7799,1.7755,1.8158,1.9184,1.9927,2.0525,2.1246,2.2054,2.2241,2.2228,2.2099,2.1977,2.1937,2.1889,2.1808,2.172,2.1685,2.1671,6.0532,6.0451,6.0408,6.0389,6.0389,6.0389,6.0389,6.0389,6.0389,6.0408,6.0203,5.9769,5.9111,5.8247,5.7282,5.6408,5.5846,5.5063,5.4848,5.4762,5.4625,5.4505,5.4064,5.3536,5.2965,5.2704,5.1564,5.0863,5.0542,4.9937,4.9625,4.9298,4.9221,4.7719,4.6364,4.5212,4.3307,4.1455,3.9812,3.9287,3.9027,3.9105,3.9147,3.9182,3.8865,3.8567,3.8433,3.725,3.6388,3.6186,3.5715,3.5513,3.5513,3.5513,3.531,3.4905,3.4568,3.3959,3.3282,3.3147,3.2934,3.2254,3.1548,3.1028,3.0779,3.0779,3.0584,3.0213,3.0465,3.0114,2.9207,2.8337,2.7799,2.7007,2.6201,2.5676,2.4957,2.4072,2.3404,2.3152,2.2784,2.2352,2.2235,2.2188,2.2154,2.2106,2.2099,2.214,2.2208,2.2247,2.1833,2.1142,2.052,1.9833,1.9077,1.8574,1.8211,1.7912,1.781,1.8241,1.8955,1.956,2.0345,2.1084,2.1853,2.2129,2.2337,2.2228,2.2147,2.2113,2.2045,2.1937,2.2031,2.2051,2.2011,6.0761,6.0389,6.0389,6.0389,6.0389,6.0389,6.0389,6.0389,6.0408,6.016,5.9769,5.9458,5.8773,5.7854,5.7374,5.67,5.6143,5.5635,5.5396,5.5276,5.5156,5.4968,5.4585,5.4115,5.3529,5.2764,5.1753,5.0731,5.0031,4.9639,4.9104,4.8807,4.882,4.8063,4.6684,4.453,4.2411,4.0925,3.9941,3.9716,3.9327,3.9454,3.9562,3.9647,3.9537,3.8803,3.8055,3.753,3.6724,3.6052,3.5715,3.5513,3.5523,3.5523,3.5321,3.4916,3.4646,3.3834,3.2944,3.2672,3.2265,3.1712,3.117,3.0977,3.0968,3.0987,3.0608,3.0401,3.0224,2.9774,2.8508,2.7953,2.7525,2.678,2.62,2.5742,2.5178,2.441,2.393,2.3725,2.3012,2.231,2.2323,2.2323,2.2289,2.2262,2.2193,2.2193,2.231,2.2274,2.1922,2.157,2.0947,2.0249,1.9423,1.8944,1.8388,1.8158,1.7923,1.836,1.8863,1.9619,2.0356,2.1079,2.1708,2.2129,2.2344,2.2344,2.2296,2.2235,2.214,2.2032,2.2161,2.2386,2.227,6.0822,6.0389,6.0389,6.0389,6.0389,6.0389,6.0389,6.0389,6.0389,6.0017,5.9396,5.9022,5.8335,5.7566,5.6971,5.6772,5.6263,5.5961,5.5824,5.567,5.5533,5.5378,5.5045,5.4386,5.3414,5.2649,5.1439,5.0407,4.9762,4.9299,4.8786,4.8542,4.8493,4.7775,4.5943,4.3819,4.1622,4.0576,4.0094,3.9977,3.9508,3.9562,3.9713,3.9659,3.9459,3.8936,3.8066,3.7463,3.6724,3.6119,3.5647,3.5513,3.5545,3.5499,3.5431,3.5161,3.4766,3.4167,3.337,3.2401,3.1654,3.1246,3.1178,3.1091,3.1051,3.0952,3.0384,2.9747,2.9646,2.9194,2.7798,2.755,2.7413,2.6797,2.6659,2.6208,2.5804,2.5179,2.4706,2.4293,2.3365,2.2344,2.2344,2.2344,2.233,2.231,2.2303,2.2234,2.2323,2.2268,2.2129,2.1777,2.1287,2.0595,1.9909,1.9285,1.8736,1.8452,1.8297,1.8372,1.8869,1.9631,2.0387,2.1086,2.1639,2.2129,2.2344,2.2344,2.2344,2.233,2.2235,2.2147,2.2298,2.2448,2.2421,6.0389,6.0389,6.0389,6.0389,6.0389,6.0389,6.0389,6.0389,6.0346,5.9893,5.9085,5.8068,5.7504,5.7138,5.6491,5.6292,5.6349,5.6029,5.5858,5.5858,5.5841,5.5601,5.4967,5.4199,5.3388,5.2711,5.1492,5.0339,4.962,4.8978,4.8515,4.8161,4.7873,4.6987,4.4597,4.2229,4.0828,4.039,3.9991,3.9853,3.9689,3.9713,3.9725,3.9604,3.9192,3.8657,3.8133,3.7262,3.6523,3.6119,3.5647,3.5523,3.5577,3.5671,3.5468,3.4808,3.4809,3.4302,3.3381,3.1935,3.1314,3.111,3.111,3.107,3.0962,3.0636,2.9982,2.9283,2.9129,2.8432,2.7728,2.7249,2.7137,2.6983,2.6854,2.6478,2.6073,2.5431,2.4805,2.4116,2.3158,2.2344,2.2344,2.2344,2.2344,2.2337,2.2337,2.2344,2.2344,2.2274,2.2199,2.206,2.1639,2.1224,2.0526,1.9701,1.9152,1.8874,1.8805,1.8944,1.9215,1.9909,2.0532,2.1155,2.1708,2.2274,2.2344,2.2344,2.2344,2.2344,2.2344,2.2296,2.251,2.2565,2.2455,6.0389,6.0389,6.0389,6.0389,6.0389,6.0389,6.0389,6.0346,5.9893,5.9147,5.813,5.7504,5.7127,5.6698,5.6458,5.6235,5.632,5.632,5.6183,5.6103,5.6023,5.544,5.4785,5.4245,5.3423,5.1953,5.0811,5.0013,4.9008,4.8624,4.84,4.8078,4.7122,4.5687,4.4767,4.3348,4.2385,4.0957,4.05,4.0204,3.9804,3.9738,3.9659,3.9671,3.9058,3.8535,3.8066,3.6993,3.6399,3.6006,3.5545,3.5531,3.565,3.5833,3.5718,3.5481,3.5519,3.4741,3.3557,3.2333,3.1586,3.1333,3.1119,3.0971,3.0613,3.0472,2.9709,2.8881,2.8655,2.8038,2.7466,2.731,2.7224,2.7033,2.6854,2.642,2.5906,2.5103,2.4392,2.3703,2.2813,2.2475,2.2344,2.235,2.235,2.2371,2.2378,2.2364,2.2364,2.235,2.2274,2.2274,2.1991,2.1639,2.1155,2.0424,1.9927,1.9701,1.9631,1.9701,2.0047,2.0355,2.0765,2.1401,2.1873,2.2344,2.2344,2.2344,2.2344,2.2344,2.2344,2.2344,2.2399,2.2392,2.2385,6.0389,6.0389,6.0389,6.0481,6.0573,6.0463,6.0265,5.9893,5.9085,5.8193,5.7504,5.7207,5.683,5.6515,5.6389,5.6389,5.6389,5.6389,5.5804,5.5804,5.566,5.4851,5.436,5.3901,5.2623,5.1155,5.0448,4.9786,4.8604,4.8314,4.8296,4.7956,4.6599,4.5707,4.4806,4.3505,4.1955,4.0665,4.0277,4.018,3.9853,3.9738,3.9738,3.9525,3.9058,3.8401,3.7664,3.6937,3.623,3.5812,3.5607,3.5682,3.5865,3.6027,3.608,3.6091,3.5958,3.5093,3.3781,3.3204,3.2412,3.1443,3.1223,3.0881,3.0362,3.0108,2.9445,2.8767,2.831,2.7881,2.7437,2.7375,2.7248,2.7118,2.6682,2.6255,2.5762,2.4964,2.3986,2.3296,2.2813,2.2475,2.235,2.2357,2.2357,2.2391,2.2418,2.2418,2.2432,2.2439,2.2452,2.2459,2.2389,2.2194,2.1833,2.1327,2.0878,2.0538,2.0412,2.0374,2.0638,2.0967,2.134,2.1655,2.2091,2.2432,2.2364,2.2344,2.2364,2.2357,2.2344,2.2344,2.2344,2.2344,2.2344,6.0408,6.0408,6.0426,6.0664,6.084,6.0415,5.994,5.9281,5.8093,5.7528,5.7402,5.679,5.6538,5.644,5.6406,5.6389,5.6263,5.6263,5.5487,5.468,5.4459,5.3822,5.3024,5.2286,5.1626,5.0934,5.0173,4.95,4.8346,4.8398,4.8559,4.8363,4.7258,4.6157,4.4703,4.3205,4.1553,4.0564,4.0107,4.0041,3.9834,3.975,3.9738,3.9525,3.907,3.8357,3.771,3.7004,3.6384,3.5997,3.5822,3.5973,3.6156,3.6382,3.6317,3.6242,3.6188,3.5319,3.4282,3.3838,3.309,3.1987,3.1296,3.0847,3.0357,2.9872,2.9202,2.8526,2.7977,2.77,2.737,2.7361,2.7345,2.6968,2.6461,2.6026,2.5524,2.4748,2.3753,2.3103,2.2613,2.235,2.2384,2.2391,2.2425,2.2493,2.2554,2.2635,2.2642,2.2649,2.2662,2.2669,2.2662,2.2656,2.2335,2.1899,2.1714,2.1377,2.1075,2.0973,2.1316,2.1578,2.1908,2.2232,2.2428,2.2527,2.2452,2.2411,2.2405,2.2398,2.2405,2.2357,2.2364,2.2344,2.2337,6.0573,6.0811,6.0829,6.0736,6.0478,5.9521,5.8897,5.8706,5.8261,5.7943,5.7432,5.6966,5.6783,5.6766,5.6509,5.6377,5.601,5.5424,5.4837,5.4141,5.3409,5.2477,5.1956,5.1562,5.0952,5.0262,4.9737,4.9495,4.8962,4.8816,4.8699,4.8531,4.7632,4.6471,4.5226,4.3934,4.2156,4.0735,4.0215,4.0015,3.9955,3.9882,3.9834,3.9609,3.9141,3.8462,3.7893,3.7251,3.6639,3.621,3.6117,3.6235,3.6393,3.6468,3.6436,3.6425,3.6323,3.5924,3.4889,3.4236,3.3496,3.2475,3.1482,3.0525,3.0075,2.9604,2.9058,2.835,2.7913,2.766,2.7573,2.7556,2.7516,2.7231,2.6573,2.584,2.5329,2.438,2.3445,2.2869,2.2447,2.2474,2.2439,2.2472,2.2513,2.2595,2.269,2.2784,2.2846,2.2852,2.2852,2.2859,2.2832,2.2812,2.2676,2.2365,2.2331,2.2165,2.1882,2.1724,2.2058,2.2379,2.2533,2.266,2.2696,2.2622,2.2596,2.252,2.254,2.2513,2.2506,2.2439,2.2378,2.2364,2.2413,6.0628,6.0958,6.0994,6.074,6.0139,5.9046,5.847,5.8317,5.8149,5.7754,5.7279,5.7194,5.7027,5.6763,5.6278,5.5892,5.5613,5.4322,5.3409,5.2509,5.2345,5.1512,5.1044,5.0999,5.065,4.9999,4.98,4.9792,4.9314,4.9269,4.9196,4.899,4.7888,4.6817,4.563,4.435,4.2841,4.1602,4.0811,4.0532,4.0252,4.0056,4.002,3.9826,3.9355,3.8786,3.8224,3.7567,3.7155,3.6597,3.6503,3.6691,3.6736,3.6651,3.6651,3.6651,3.6651,3.6179,3.5399,3.4939,3.3944,3.2808,3.1741,3.0773,2.9797,2.9198,2.8638,2.8003,2.7902,2.7792,2.7792,2.7792,2.7727,2.7591,2.6699,2.5743,2.4848,2.3959,2.3279,2.2674,2.2452,2.2479,2.2513,2.2617,2.2698,2.2764,2.2873,2.2954,2.3015,2.3035,2.3035,2.3035,2.2995,2.2954,2.2805,2.2676,2.2586,2.2599,2.2533,2.2509,2.2818,2.2879,2.287,2.2822,2.2812,2.273,2.2732,2.2696,2.271,2.2676,2.2712,2.2615,2.2527,2.2411,2.2523,6.0664,6.0994,6.0906,6.0442,5.9848,5.8779,5.827,5.8046,5.7703,5.7331,5.7142,5.7348,5.7232,5.6678,5.5861,5.5265,5.4571,5.3426,5.218,5.078,5.0852,5.0494,5.0329,5.0154,5.0252,5.0214,5.0133,4.9882,4.949,4.9474,4.9635,4.9516,4.8249,4.7071,4.6088,4.4453,4.3055,4.2098,4.1678,4.1465,4.0743,4.0478,4.0478,4.0374,3.9806,3.9216,3.8556,3.8202,3.7858,3.7336,3.7121,3.7289,3.6968,3.6834,3.6845,3.6845,3.6823,3.6522,3.5849,3.5267,3.4164,3.3058,3.2116,3.0664,2.9486,2.9018,2.8509,2.8052,2.78,2.78,2.78,2.78,2.7759,2.7442,2.681,2.5928,2.5107,2.4081,2.3061,2.2622,2.2601,2.2635,2.2683,2.273,2.2764,2.2927,2.3035,2.3103,2.3151,2.3185,2.3164,2.3158,2.3124,2.3063,2.2968,2.2859,2.2805,2.2825,2.2873,2.2934,2.2954,2.3042,2.3158,2.3069,2.2974,2.2886,2.2825,2.2873,2.2879,2.2818,2.2798,2.2798,2.2703,2.2567,2.2576,6.0903,6.095,6.0171,5.9469,5.8843,5.8068,5.7746,5.7622,5.7553,5.7468,5.7399,5.7386,5.7082,5.6434,5.5333,5.4671,5.399,5.241,5.1559,5.0797,5.0308,5.0045,4.9867,5.0081,5.0117,5.0139,5.0071,5.008,4.9907,4.9913,4.9802,4.9454,4.8227,4.7128,4.6495,4.4825,4.3673,4.2445,4.2495,4.2012,4.105,4.0611,4.0478,4.0502,4.0174,3.9608,3.9175,3.905,3.8566,3.7971,3.7806,3.7512,3.6947,3.6947,3.6877,3.6877,3.6888,3.6667,3.6094,3.517,3.3892,3.2621,3.1418,3.0007,2.9074,2.8898,2.8614,2.8069,2.78,2.78,2.78,2.78,2.7729,2.7356,2.6904,2.617,2.5368,2.4209,2.3051,2.2869,2.2841,2.2798,2.2852,2.2893,2.294,2.3022,2.3124,2.3198,2.3246,2.3201,2.3205,2.3191,2.3198,2.3151,2.3076,2.3015,2.2947,2.29,2.2913,2.2988,2.3069,2.3137,2.3191,2.3198,2.3137,2.3042,2.3002,2.3076,2.3063,2.2981,2.2947,2.2954,2.292,2.2798,2.2807,6.0752,6.064,5.9526,5.8954,5.8621,5.7656,5.7433,5.7724,5.7759,5.7462,5.7102,5.714,5.6836,5.5977,5.4803,5.3727,5.3033,5.1304,5.0591,5.0215,5.0119,4.9866,4.9855,5.0001,5.0083,5.0104,5.0104,5.0104,5.0264,5.0323,5.0167,4.9949,4.8719,4.7664,4.6959,4.5643,4.4237,4.2727,4.2972,4.2445,4.1473,4.1057,4.084,4.0828,4.0451,3.9971,3.9718,3.9535,3.9106,3.8625,3.8423,3.7721,3.7228,3.6942,3.6953,3.6974,3.6963,3.6737,3.6035,3.4889,3.3408,3.2074,3.093,2.9581,2.845,2.8274,2.8274,2.78,2.78,2.78,2.78,2.78,2.78,2.7578,2.6999,2.6246,2.5488,2.4588,2.3848,2.3551,2.3325,2.2907,2.2947,2.2954,2.3008,2.3103,2.3205,2.3225,2.328,2.3248,2.3259,2.3225,2.3232,2.3219,2.3158,2.3117,2.3076,2.3029,2.2974,2.3056,2.3144,2.3178,2.3219,2.3212,2.3205,2.3178,2.3171,2.3191,2.3191,2.3117,2.3103,2.3103,2.3056,2.3015,2.3045,6.0421,6.0215,5.904,5.8639,5.8701,5.757,5.7382,5.7913,5.7998,5.7456,5.6557,5.6696,5.6274,5.5291,5.3916,5.2724,5.1679,5.0617,5.0014,4.9813,4.9761,4.984,4.9972,5.0089,5.0104,5.0147,5.0191,5.0352,5.0528,5.0601,5.0693,5.0888,5.0022,4.8912,4.7607,4.6477,4.5197,4.3555,4.3021,4.2818,4.2231,4.1705,4.1512,4.1161,4.0813,4.0395,4.0116,3.9871,3.9555,3.9143,3.8751,3.8044,3.7483,3.7093,3.7071,3.7093,3.6693,3.6288,3.5514,3.4345,3.2871,3.1464,3.0451,2.9376,2.8173,2.7888,2.7816,2.7808,2.7808,2.7816,2.7816,2.7816,2.7816,2.7665,2.7023,2.6522,2.572,2.4997,2.4624,2.4239,2.3741,2.3249,2.3035,2.3035,2.309,2.3185,2.3225,2.3239,2.3253,2.3273,2.3259,2.3253,2.3253,2.3239,2.3212,2.3185,2.3144,2.311,2.3063,2.3144,2.3198,2.3205,2.3212,2.3219,2.3212,2.3205,2.3205,2.3212,2.3205,2.3219,2.3185,2.3164,2.3164,2.3137,2.3314,6.0387,5.9614,5.8784,5.826,5.7845,5.7515,5.7485,5.7605,5.7656,5.7337,5.6648,5.5571,5.4914,5.4124,5.2702,5.1663,5.1169,5.0294,5.0136,5.0001,5.0001,5.006,5.0162,5.0294,5.0147,5.0206,5.0367,5.0528,5.0733,5.0894,5.1011,5.1059,4.9799,4.8814,4.7929,4.6715,4.5255,4.3859,4.305,4.281,4.2414,4.1985,4.2031,4.1842,4.1842,4.1348,4.0983,4.0771,4.0311,3.9778,3.9079,3.8357,3.77,3.7276,3.7129,3.6874,3.6545,3.5727,3.487,3.3354,3.1732,3.0861,2.9754,2.858,2.7865,2.7865,2.7857,2.7849,2.7849,2.7849,2.7857,2.7865,2.7873,2.7626,2.7189,2.6888,2.6372,2.5728,2.519,2.4732,2.4303,2.3802,2.3301,2.3229,2.3158,2.3219,2.3219,2.3239,2.33,2.3293,2.3194,2.3273,2.3286,2.3246,2.3219,2.3212,2.3185,2.3158,2.313,2.3151,2.3171,2.3185,2.3198,2.3212,2.3225,2.3219,2.3225,2.3253,2.3266,2.3273,2.3232,2.3212,2.3225,2.3219,2.329]},{"header":{"parameterUnit":"m.s-1","parameterCategory":1,"la1":31.0,"la2":29.5877,"lo1":-88.7671,"lo2":-86.6584,"dy":0.0162,"dx":0.0185,"nx":115,"ny":88,"refTime":"2023-11-14T18:00:00:Z","depth":0,"parameterNumber":3,"parameterNumberName":"V-component_of_WINDS"},"data":[0.0,0.0,0.0,0.0,0.0,0.0,0.0,0.0,0.0,0.0,0.0,0.0,0.0,0.0,0.0,0.0,0.0,0.0,0.0,0.0,0.0,0.0,0.0,0.0,0.0,0.0,0.0,0.0,0.0,0.0,0.0,0.0,0.0,0.0,0.0,0.0,0.0,0.0,0.0,0.0,0.0,0.0,0.0,0.0,0.0,0.0,0.0,0.0,0.0,0.0,0.0,0.0,0.0,0.0,0.0,0.0,0.0,0.0,0.0,0.0,0.0,0.0,0.0,0.0,0.0,0.0,0.0,0.0,0.0,0.0,0.0,0.0,0.0,0.0,0.0,0.0,0.0,0.0,0.0,0.0,0.0,0.0,0.0,0.0,0.0,0.0,0.0,0.0,0.0,0.0,0.0,0.0,0.0,0.0,0.0,0.0,0.0,0.0,0.0,0.0,0.0,0.0,0.0,0.0,0.0,0.0,0.0,0.0,0.0,0.0,0.0,0.0,0.0,0.0,0.0,0.0,0.0,0.0,0.0,0.0,0.0,0.0,0.0,0.0,0.0,0.0,0.0,0.0,0.0,0.0,0.0,0.0,0.0,0.0,0.0,0.0,0.0,0.0,0.0,0.0,0.0,0.0,0.0,0.0,0.0,0.0,0.0,0.0,0.0,0.0,0.0,0.0,0.0,0.0,0.0,0.0,0.0,0.0,0.0,0.0,0.0,0.0,0.0,0.0,0.0,0.0,0.0,0.0,0.0,0.0,0.0,0.0,0.0,0.0,0.0,0.0,0.0,0.0,0.0,0.0,0.0,0.0,0.0,0.0,0.0,0.0,0.0,0.0,0.0,0.0,0.0,0.0,0.0,0.0,0.0,0.0,0.0,0.0,0.0,0.0,0.0,0.0,0.0,0.0,0.0,0.0,0.0,0.0,0.0,0.0,0.0,0.0,0.0,0.0,0.0,0.0,0.0,0.0,0.0,0.0,0.0,0.0,0.0,0.0,0.0,0.0,0.0,0.0,0.0,0.0,0.0,0.0,0.0,0.0,0.0,0.0,0.0,0.0,0.0,0.0,0.0,0.0,0.0,0.0,0.0,0.0,0.0,0.0,0.0,0.0,0.0,0.0,0.0,0.0,0.0,0.0,0.0,0.0,0.0,0.0,0.0,0.0,0.0,0.0,0.0,0.0,0.0,0.0,0.0,0.0,0.0,0.0,0.0,0.0,0.0,0.0,0.0,0.0,0.0,0.0,0.0,0.0,0.0,0.0,0.0,0.0,0.0,0.0,0.0,0.0,0.0,0.0,0.0,0.0,0.0,0.0,0.0,0.0,0.0,0.0,0.0,0.0,0.0,0.0,0.0,0.0,0.0,0.0,0.0,0.0,0.0,0.0,0.0,0.0,0.0,0.0,0.0,0.0,0.0,0.0,0.0,0.0,0.0,0.0,0.0,0.0,0.0,0.0,0.0,0.0,0.0,0.0,0.0,0.0,0.0,0.0,0.0,0.0,0.0,0.0,0.0,0.0,0.0,0.0,0.0,0.0,0.0,0.0,0.0,0.0,0.0,0.0,0.0,0.0,0.0,0.0,0.0,0.0,0.0,0.0,0.0,0.0,0.0,0.0,0.0,0.0,0.0,0.0,0.0,0.0,0.0,0.0,0.0,0.0,0.0,0.0,0.0,0.0,0.0,0.0,0.0,0.0,0.0,0.0,0.0,0.0,0.0,0.0,0.0,0.0,0.0,0.0,0.0,0.0,0.0,0.0,0.0,0.0,0.0,0.0,0.0,0.0,0.0,0.0,0.0,0.0,0.0,0.0,0.0,0.0,0.0,0.0,0.0,0.0,0.0,0.0,0.0,0.0,0.0,0.0,0.0,0.0,0.0,0.0,0.0,0.0,0.0,0.0,0.0,0.0,0.0,0.0,0.0,0.0,0.0,0.0,0.0,0.0,0.0,0.0,0.0,0.0,0.0,0.0,0.0,0.0,0.0,0.0,0.0,0.0,0.0,0.0,0.0,0.0,0.0,0.0,0.0,0.0,0.0,0.0,0.0,0.0,0.0,0.0,0.0,0.0,0.0,0.0,0.0,0.0,0.0,0.0,0.0,0.0,0.0,0.0,0.0,0.0,0.0,0.0,0.0,0.0,0.0,0.0,0.0,0.0,0.0,0.0,0.0,0.0,0.0,0.0,0.0,0.0,0.0,0.0,0.0,0.0,0.0,0.0,0.0,0.0,0.0,0.0,0.0,0.0,0.0,0.0,0.0,0.0,0.0,0.0,0.0,0.0,0.0,0.0,0.0,0.0,0.0,0.0,0.0,0.0,0.0,0.0,0.0,0.0,0.0,0.0,0.0,0.0,0.0,0.0,0.0,0.0,0.0,0.0,0.0,0.0,0.0,0.0,0.0,0.0,0.0,0.0,0.0,0.0,0.0,0.0,0.0,0.0,0.0,0.0,0.0,0.0,0.0,0.0,0.0,0.0,0.0,0.0,0.0,0.0,0.0,0.0,0.0,0.0,0.0,0.0,0.0,0.0,0.0,0.0,0.0,0.0,0.0,0.0,0.0,0.0,0.0,0.0,0.0,0.0,0.0,0.0,0.0,0.0,0.0,0.0,0.0,0.0,0.0,0.0,0.0,0.0,0.0,0.0,0.0,0.0,0.0,0.0,0.0,0.0,0.0,0.0,0.0,0.0,0.0,0.0,0.0,0.0,0.0,0.0,0.0,0.0,0.0,0.0,0.0,0.0,0.0,0.0,0.0,0.0,0.0,0.0,0.0,0.0,0.0,0.0,0.0,0.0,0.0,0.0,0.0,0.0,0.0,0.0,0.0,0.0,0.0,0.0,0.0,0.0,0.0,0.0,0.0,0.0,0.0,0.0,0.0,0.0,0.0,0.0,0.0,0.0,0.0,0.0,0.0,0.0,0.0,0.0,0.0,0.0,0.0,0.0,0.0,0.0,0.0,0.0,0.0,0.0,0.0,0.0,0.0,0.0,0.0,0.0,0.0,0.0,0.0,0.0,0.0,0.0,0.0,0.0,0.0,0.0,0.0,0.0,0.0,0.0,0.0,0.0,0.0,0.0,0.0,0.0,0.0,0.0,0.0,0.0,0.0,0.0,0.0,0.0,0.0,0.0,0.0,0.0,0.0,0.0,0.0,0.0,0.0,0.0,0.0,0.0,0.0,0.0,0.0,0.0,0.0,0.0,0.0,0.0,0.0,0.0,0.0,0.0,0.0,0.0,0.0,0.0,0.0,0.0,0.0,0.0,0.0,0.0,0.0,0.0,0.0,0.0,0.0,0.0,0.0,0.0,0.0,0.0,0.0,0.0,0.0,0.0,0.0,0.0,0.0,0.0,0.0,0.0,0.0,0.0,0.0,0.0,0.0,0.0,0.0,0.0,0.0,0.0,0.0,0.0,0.0,0.0,0.0,0.0,0.0,0.0,0.0,0.0,0.0,0.0,0.0,0.0,0.0,0.0,0.0,0.0,0.0,0.0,0.0,0.0,0.0,0.0,0.0,0.0,0.0,0.0,0.0,0.0,0.0,0.0,0.0,0.0,0.0,0.0,0.0,0.0,0.0,0.0,0.0,0.0,0.0,0.0,0.0,0.0,0.0,0.0,0.0,0.0,0.0,0.0,0.0,0.0,0.0,0.0,0.0,0.0,0.0,0.0,0.0,0.0,0.0,0.0,0.0,0.0,0.0,0.0,0.0,0.0,0.0,0.0,0.0,0.0,0.0,0.0,0.0,0.0,0.0,0.0,0.0,0.0,0.0,0.0,0.0,0.0,0.0,0.0,0.0,0.0,0.0,0.0,0.0,0.0,0.0,0.0,0.0,0.0,0.0,0.0,0.0,0.0,0.0,0.0,0.0,0.0,0.0,0.0,0.0,0.0,0.0,0.0,0.0,0.0,0.0,0.0,0.0,0.0,0.0,0.0,0.0,0.0,0.0,0.0,0.0,0.0,0.0,0.0,0.0,0.0,0.0,0.0,0.0,0.0,0.0,0.0,0.0,0.0,0.0,0.0,0.0,0.0,0.0,0.0,0.0,0.0,0.0,0.0,0.0,0.0,0.0,0.0,0.0,0.0,0.0,0.0,0.0,0.0,0.0,0.0,0.0,0.0,0.0,0.0,0.0,0.0,0.0,0.0,0.0,0.0,0.0,0.0,0.0,0.0,0.0,0.0,0.0,0.0,0.0,0.0,0.0,0.0,0.0,0.0,0.0,0.0,0.0,0.0,0.0,0.0,0.0,0.0,0.0,0.0,0.0,0.0,0.0,0.0,5.0617,0.0,0.0,0.0,0.0,0.0,0.0,0.0,0.0,0.0,0.0,0.0,0.0,0.0,0.0,0.0,0.0,0.0,0.0,0.0,0.0,0.0,0.0,0.0,0.0,0.0,0.0,0.0,0.0,0.0,0.0,0.0,0.0,0.0,0.0,0.0,0.0,0.0,0.0,0.0,0.0,0.0,0.0,0.0,0.0,0.0,0.0,0.0,0.0,0.0,0.0,0.0,0.0,0.0,0.0,0.0,0.0,0.0,0.0,0.0,0.0,0.0,0.0,0.0,0.0,0.0,0.0,0.0,0.0,0.0,0.0,0.0,0.0,0.0,0.0,0.0,0.0,0.0,0.0,0.0,0.0,0.0,0.0,0.0,0.0,0.0,0.0,0.0,0.0,0.0,0.0,0.0,0.0,0.0,0.0,0.0,0.0,0.0,0.0,0.0,0.0,0.0,0.0,0.0,0.0,0.0,0.0,0.0,0.0,0.0,0.0,5.2575,5.2245,5.1898,5.1559,5.1273,0.0,0.0,0.0,0.0,0.0,0.0,0.0,0.0,0.0,0.0,0.0,0.0,0.0,0.0,0.0,0.0,0.0,0.0,0.0,0.0,0.0,0.0,0.0,0.0,0.0,0.0,0.0,0.0,0.0,0.0,0.0,0.0,0.0,0.0,0.0,0.0,0.0,0.0,0.0,0.0,0.0,0.0,0.0,0.0,0.0,0.0,0.0,0.0,0.0,0.0,0.0,0.0,0.0,0.0,0.0,0.0,0.0,0.0,0.0,0.0,0.0,0.0,0.0,0.0,0.0,0.0,0.0,0.0,0.0,0.0,0.0,0.0,0.0,0.0,0.0,0.0,0.0,0.0,0.0,0.0,0.0,0.0,0.0,0.0,0.0,0.0,0.0,0.0,0.0,0.0,0.0,0.0,0.0,0.0,0.0,0.0,0.0,0.0,0.0,0.0,0.0,0.0,0.0,0.0,0.0,0.0,0.0,0.0,0.0,0.0,0.0,0.0,5.2094,5.1862,5.1929,0.0,0.0,0.0,0.0,0.0,0.0,0.0,0.0,0.0,0.0,0.0,0.0,0.0,0.0,0.0,0.0,0.0,0.0,0.0,0.0,0.0,0.0,0.0,0.0,0.0,0.0,0.0,0.0,0.0,0.0,0.0,0.0,0.0,0.0,0.0,0.0,0.0,0.0,0.0,0.0,0.0,0.0,0.0,0.0,0.0,0.0,0.0,0.0,0.0,0.0,0.0,0.0,0.0,0.0,0.0,0.0,0.0,0.0,0.0,0.0,0.0,0.0,0.0,0.0,0.0,0.0,0.0,0.0,0.0,0.0,0.0,0.0,0.0,0.0,0.0,0.0,0.0,0.0,0.0,0.0,0.0,0.0,0.0,0.0,0.0,0.0,0.0,0.0,0.0,0.0,0.0,0.0,0.0,0.0,0.0,0.0,0.0,0.0,0.0,0.0,0.0,0.0,0.0,0.0,0.0,0.0,0.0,0.0,0.0,0.0,5.2071,5.2071,5.2185,0.0,5.2606,0.0,0.0,0.0,0.0,0.0,0.0,0.0,0.0,0.0,0.0,0.0,0.0,0.0,0.0,0.0,0.0,0.0,0.0,0.0,0.0,0.0,0.0,0.0,0.0,0.0,0.0,0.0,0.0,0.0,0.0,0.0,0.0,0.0,0.0,0.0,0.0,0.0,0.0,0.0,0.0,0.0,0.0,0.0,0.0,0.0,0.0,0.0,0.0,0.0,0.0,0.0,0.0,0.0,0.0,0.0,0.0,0.0,0.0,0.0,0.0,0.0,0.0,0.0,0.0,0.0,0.0,0.0,0.0,0.0,0.0,0.0,0.0,0.0,0.0,0.0,0.0,0.0,0.0,0.0,0.0,0.0,0.0,0.0,0.0,0.0,0.0,0.0,0.0,0.0,0.0,0.0,0.0,0.0,0.0,0.0,0.0,0.0,0.0,0.0,0.0,0.0,0.0,0.0,0.0,0.0,0.0,0.0,0.0,0.0,0.0,5.2579,5.2579,5.2299,5.2314,0.0,0.0,0.0,0.0,0.0,0.0,0.0,0.0,0.0,0.0,0.0,0.0,0.0,0.0,0.0,0.0,0.0,0.0,0.0,0.0,0.0,0.0,0.0,0.0,0.0,0.0,0.0,0.0,0.0,0.0,0.0,0.0,0.0,0.0,0.0,0.0,0.0,0.0,0.0,0.0,0.0,0.0,0.0,0.0,0.0,0.0,0.0,0.0,0.0,0.0,0.0,0.0,0.0,0.0,0.0,0.0,0.0,0.0,0.0,0.0,0.0,0.0,0.0,0.0,0.0,0.0,0.0,0.0,0.0,0.0,0.0,0.0,0.0,0.0,0.0,0.0,0.0,0.0,0.0,0.0,0.0,0.0,0.0,0.0,0.0,0.0,0.0,0.0,0.0,0.0,0.0,0.0,0.0,0.0,0.0,0.0,0.0,0.0,0.0,0.0,0.0,0.0,0.0,0.0,0.0,0.0,0.0,0.0,0.0,0.0,5.3205,5.3011,5.3129,5.2516,5.239,5.2839,0.0,0.0,0.0,0.0,0.0,0.0,0.0,0.0,0.0,0.0,0.0,0.0,0.0,0.0,0.0,0.0,0.0,0.0,0.0,0.0,0.0,0.0,0.0,0.0,0.0,0.0,0.0,0.0,0.0,0.0,0.0,0.0,0.0,0.0,0.0,0.0,0.0,0.0,0.0,0.0,0.0,0.0,0.0,0.0,0.0,0.0,0.0,0.0,0.0,0.0,0.0,0.0,0.0,0.0,0.0,0.0,0.0,0.0,0.0,0.0,0.0,0.0,0.0,0.0,0.0,0.0,0.0,0.0,0.0,0.0,0.0,0.0,0.0,0.0,0.0,0.0,0.0,0.0,0.0,0.0,0.0,0.0,0.0,0.0,0.0,0.0,0.0,0.0,0.0,0.0,0.0,0.0,0.0,0.0,0.0,0.0,0.0,0.0,0.0,0.0,0.0,0.0,0.0,0.0,0.0,0.0,0.0,0.0,5.3253,5.2979,5.3047,5.3531,5.2928,5.2802,0.0,0.0,0.0,0.0,0.0,0.0,0.0,0.0,0.0,0.0,0.0,0.0,0.0,0.0,0.0,0.0,0.0,0.0,0.0,0.0,0.0,0.0,0.0,0.0,0.0,0.0,0.0,0.0,0.0,0.0,0.0,0.0,0.0,0.0,0.0,0.0,0.0,0.0,0.0,0.0,0.0,0.0,0.0,0.0,0.0,0.0,0.0,0.0,0.0,0.0,0.0,0.0,0.0,0.0,0.0,0.0,0.0,0.0,0.0,0.0,0.0,0.0,0.0,0.0,0.0,0.0,0.0,0.0,0.0,0.0,0.0,0.0,0.0,0.0,0.0,0.0,0.0,0.0,0.0,0.0,0.0,0.0,0.0,0.0,0.0,0.0,0.0,0.0,0.0,0.0,0.0,0.0,0.0,0.0,0.0,0.0,0.0,0.0,0.0,0.0,0.0,0.0,0.0,0.0,0.0,0.0,0.0,0.0,0.0,5.39,5.3619,5.35,5.3598,5.3206,5.3271,0.0,0.0,0.0,0.0,0.0,0.0,0.0,0.0,0.0,0.0,0.0,0.0,0.0,0.0,0.0,0.0,0.0,0.0,0.0,0.0,0.0,0.0,0.0,0.0,0.0,0.0,0.0,0.0,0.0,0.0,0.0,0.0,0.0,0.0,0.0,0.0,0.0,0.0,0.0,0.0,0.0,0.0,0.0,0.0,0.0,0.0,0.0,0.0,0.0,0.0,0.0,0.0,0.0,0.0,0.0,0.0,0.0,0.0,0.0,0.0,0.0,0.0,0.0,0.0,0.0,0.0,0.0,0.0,0.0,0.0,0.0,0.0,0.0,0.0,0.0,0.0,0.0,0.0,0.0,0.0,0.0,0.0,0.0,0.0,0.0,0.0,0.0,0.0,0.0,0.0,0.0,0.0,0.0,0.0,0.0,0.0,0.0,0.0,0.0,0.0,0.0,0.0,0.0,0.0,0.0,0.0,0.0,0.0,0.0,5.42,0.0,5.3982,0.0,5.3598,5.3699,0.0,0.0,0.0,0.0,0.0,0.0,0.0,0.0,0.0,0.0,0.0,0.0,0.0,0.0,0.0,0.0,0.0,0.0,0.0,0.0,0.0,0.0,0.0,0.0,0.0,0.0,0.0,0.0,0.0,0.0,0.0,0.0,0.0,0.0,0.0,0.0,0.0,0.0,0.0,0.0,0.0,0.0,0.0,0.0,0.0,0.0,0.0,0.0,0.0,0.0,0.0,0.0,0.0,0.0,0.0,0.0,0.0,0.0,0.0,0.0,0.0,0.0,0.0,0.0,0.0,0.0,0.0,0.0,0.0,0.0,0.0,0.0,0.0,0.0,0.0,0.0,0.0,0.0,0.0,0.0,0.0,0.0,0.0,0.0,0.0,0.0,0.0,0.0,0.0,0.0,0.0,0.0,0.0,0.0,0.0,0.0,0.0,0.0,0.0,0.0,0.0,0.0,0.0,0.0,0.0,0.0,0.0,0.0,5.3919,5.3945,5.4175,5.4428,5.4773,5.417,5.4067,0.0,0.0,0.0,0.0,0.0,0.0,0.0,0.0,0.0,0.0,0.0,0.0,0.0,0.0,0.0,0.0,0.0,0.0,0.0,0.0,0.0,0.0,0.0,0.0,0.0,0.0,0.0,0.0,0.0,0.0,0.0,0.0,0.0,0.0,0.0,0.0,0.0,0.0,0.0,0.0,0.0,0.0,0.0,0.0,0.0,0.0,0.0,0.0,0.0,0.0,0.0,0.0,0.0,0.0,0.0,0.0,0.0,0.0,0.0,0.0,0.0,0.0,0.0,0.0,0.0,0.0,0.0,0.0,0.0,0.0,0.0,0.0,0.0,0.0,0.0,0.0,0.0,0.0,0.0,0.0,0.0,0.0,0.0,0.0,0.0,0.0,0.0,0.0,0.0,0.0,0.0,0.0,0.0,0.0,0.0,0.0,0.0,0.0,0.0,0.0,0.0,0.0,0.0,0.0,0.0,0.0,0.0,0.0,0.0,5.4175,5.4252,5.4462,5.4803,5.4798,5.493,0.0,0.0,0.0,0.0,0.0,0.0,0.0,0.0,0.0,0.0,0.0,0.0,0.0,0.0,0.0,0.0,0.0,0.0,0.0,0.0,0.0,0.0,0.0,0.0,0.0,0.0,0.0,0.0,0.0,0.0,0.0,0.0,0.0,0.0,0.0,0.0,0.0,0.0,0.0,0.0,0.0,0.0,0.0,0.0,0.0,0.0,0.0,0.0,0.0,0.0,0.0,0.0,0.0,0.0,0.0,0.0,0.0,0.0,0.0,0.0,0.0,0.0,0.0,0.0,0.0,0.0,0.0,0.0,0.0,0.0,0.0,0.0,0.0,0.0,0.0,0.0,0.0,0.0,0.0,0.0,0.0,0.0,0.0,0.0,0.0,0.0,0.0,0.0,0.0,0.0,0.0,0.0,0.0,0.0,0.0,0.0,0.0,0.0,0.0,0.0,0.0,0.0,0.0,0.0,0.0,0.0,0.0,0.0,0.0,5.516,5.4759,5.4815,5.5471,5.5423,5.5398,5.5426,0.0,0.0,0.0,0.0,0.0,0.0,0.0,0.0,0.0,0.0,0.0,0.0,0.0,0.0,0.0,0.0,0.0,0.0,0.0,0.0,0.0,0.0,0.0,0.0,0.0,0.0,0.0,0.0,0.0,0.0,0.0,0.0,0.0,0.0,0.0,0.0,0.0,0.0,0.0,0.0,0.0,0.0,0.0,0.0,0.0,0.0,0.0,0.0,0.0,0.0,0.0,0.0,0.0,0.0,0.0,0.0,0.0,0.0,0.0,0.0,0.0,0.0,0.0,0.0,0.0,0.0,0.0,0.0,0.0,0.0,0.0,0.0,0.0,0.0,0.0,0.0,0.0,0.0,0.0,0.0,0.0,0.0,0.0,0.0,0.0,0.0,0.0,0.0,0.0,0.0,0.0,0.0,0.0,0.0,0.0,0.0,0.0,0.0,0.0,0.0,0.0,0.0,0.0,0.0,0.0,0.0,0.0,0.0,5.6873,5.5828,5.578,5.6666,5.6113,5.566,0.0,0.0,0.0,0.0,0.0,0.0,0.0,0.0,0.0,0.0,0.0,0.0,0.0,0.0,0.0,0.0,0.0,0.0,0.0,0.0,0.0,0.0,0.0,0.0,0.0,0.0,0.0,0.0,0.0,0.0,0.0,0.0,0.0,0.0,0.0,0.0,0.0,0.0,0.0,0.0,0.0,0.0,0.0,0.0,0.0,0.0,0.0,0.0,0.0,0.0,0.0,0.0,0.0,0.0,0.0,0.0,0.0,0.0,0.0,0.0,0.0,0.0,0.0,0.0,0.0,0.0,0.0,0.0,0.0,0.0,0.0,0.0,0.0,0.0,0.0,0.0,0.0,0.0,0.0,0.0,0.0,0.0,0.0,0.0,0.0,0.0,0.0,0.0,0.0,0.0,0.0,0.0,0.0,0.0,0.0,0.0,0.0,0.0,0.0,0.0,0.0,0.0,0.0,0.0,0.0,0.0,0.0,0.0,0.0,5.8809,5.9649,5.9441,5.8196,5.7324,5.6838,0.0,0.0,0.0,0.0,0.0,0.0,0.0,0.0,0.0,0.0,0.0,0.0,0.0,0.0,0.0,0.0,0.0,0.0,0.0,0.0,0.0,0.0,0.0,0.0,0.0,0.0,0.0,0.0,0.0,0.0,0.0,0.0,0.0,0.0,0.0,0.0,0.0,0.0,0.0,0.0,0.0,0.0,0.0,0.0,0.0,0.0,0.0,0.0,0.0,0.0,0.0,0.0,0.0,0.0,0.0,0.0,0.0,0.0,0.0,0.0,0.0,0.0,0.0,0.0,0.0,0.0,0.0,0.0,0.0,0.0,0.0,0.0,0.0,0.0,0.0,0.0,0.0,0.0,0.0,0.0,0.0,0.0,0.0,0.0,0.0,0.0,0.0,0.0,0.0,0.0,0.0,0.0,0.0,0.0,0.0,0.0,0.0,0.0,0.0,0.0,0.0,0.0,0.0,0.0,0.0,0.0,0.0,0.0,5.9538,6.0296,6.2267,6.2757,6.1643,5.9774,5.8487,0.0,0.0,0.0,0.0,0.0,0.0,0.0,0.0,0.0,0.0,0.0,0.0,0.0,0.0,0.0,0.0,0.0,0.0,0.0,0.0,0.0,0.0,0.0,0.0,0.0,0.0,0.0,0.0,0.0,0.0,0.0,0.0,0.0,0.0,0.0,0.0,0.0,0.0,0.0,0.0,0.0,0.0,0.0,0.0,0.0,0.0,0.0,0.0,0.0,0.0,0.0,0.0,0.0,0.0,0.0,0.0,0.0,0.0,0.0,0.0,0.0,0.0,0.0,0.0,0.0,0.0,0.0,0.0,0.0,0.0,0.0,0.0,0.0,0.0,0.0,0.0,0.0,0.0,0.0,0.0,0.0,0.0,0.0,0.0,0.0,0.0,0.0,0.0,0.0,0.0,0.0,0.0,0.0,0.0,0.0,0.0,0.0,0.0,0.0,0.0,0.0,0.0,0.0,0.0,0.0,0.0,0.0,0.0,6.1454,6.191,6.4361,6.571,6.575,6.2626,6.0332,0.0,0.0,0.0,0.0,0.0,0.0,0.0,0.0,0.0,0.0,0.0,0.0,0.0,0.0,0.0,0.0,0.0,0.0,0.0,0.0,0.0,0.0,0.0,0.0,0.0,0.0,0.0,0.0,0.0,0.0,0.0,0.0,0.0,0.0,0.0,0.0,0.0,0.0,0.0,0.0,0.0,0.0,0.0,0.0,0.0,0.0,0.0,0.0,0.0,0.0,0.0,0.0,0.0,0.0,0.0,0.0,0.0,0.0,0.0,0.0,0.0,0.0,0.0,0.0,0.0,0.0,0.0,0.0,0.0,0.0,0.0,0.0,0.0,0.0,0.0,0.0,0.0,0.0,0.0,0.0,0.0,0.0,0.0,0.0,0.0,0.0,0.0,0.0,0.0,0.0,0.0,0.0,0.0,0.0,0.0,0.0,0.0,0.0,0.0,0.0,0.0,0.0,0.0,0.0,0.0,0.0,0.0,0.0,6.374,6.5736,6.7716,6.8275,6.7353,6.3665,6.1538,0.0,0.0,0.0,0.0,0.0,0.0,0.0,0.0,0.0,0.0,0.0,0.0,0.0,0.0,0.0,0.0,0.0,0.0,0.0,0.0,0.0,0.0,0.0,0.0,0.0,0.0,0.0,0.0,0.0,0.0,0.0,0.0,0.0,0.0,0.0,0.0,0.0,0.0,0.0,0.0,0.0,0.0,0.0,0.0,0.0,0.0,0.0,0.0,6.6021,0.0,0.0,0.0,0.0,0.0,0.0,0.0,0.0,0.0,0.0,0.0,0.0,0.0,0.0,0.0,0.0,0.0,0.0,0.0,0.0,0.0,0.0,0.0,0.0,0.0,0.0,0.0,0.0,0.0,0.0,0.0,0.0,0.0,0.0,0.0,0.0,0.0,0.0,0.0,0.0,0.0,0.0,0.0,0.0,0.0,0.0,0.0,0.0,0.0,0.0,0.0,0.0,0.0,0.0,0.0,0.0,0.0,0.0,0.0,6.4948,6.7143,6.8845,6.9542,6.9107,6.6583,6.4354,0.0,0.0,0.0,0.0,0.0,0.0,0.0,0.0,0.0,0.0,0.0,0.0,0.0,0.0,0.0,0.0,0.0,0.0,0.0,0.0,0.0,0.0,0.0,0.0,0.0,0.0,0.0,0.0,0.0,0.0,0.0,0.0,0.0,0.0,0.0,0.0,0.0,0.0,0.0,0.0,0.0,0.0,0.0,0.0,0.0,0.0,0.0,0.0,0.0,0.0,0.0,0.0,0.0,0.0,0.0,0.0,0.0,0.0,0.0,0.0,0.0,0.0,0.0,0.0,0.0,0.0,0.0,0.0,0.0,0.0,0.0,0.0,0.0,0.0,0.0,0.0,0.0,0.0,0.0,0.0,0.0,0.0,0.0,0.0,0.0,0.0,0.0,0.0,0.0,0.0,0.0,0.0,0.0,0.0,0.0,0.0,0.0,0.0,0.0,0.0,0.0,0.0,0.0,0.0,0.0,0.0,0.0,6.4009,6.5869,6.8011,6.9412,7.0319,7.0776,6.9667,6.7422,6.3959,0.0,0.0,0.0,0.0,0.0,0.0,0.0,0.0,0.0,0.0,0.0,0.0,0.0,0.0,0.0,0.0,0.0,0.0,0.0,0.0,0.0,0.0,0.0,0.0,0.0,0.0,0.0,0.0,0.0,0.0,0.0,0.0,0.0,0.0,0.0,0.0,0.0,0.0,6.5636,6.5503,0.0,0.0,0.0,0.0,0.0,0.0,0.0,0.0,6.5715,0.0,0.0,0.0,0.0,0.0,0.0,0.0,0.0,0.0,0.0,0.0,0.0,0.0,0.0,0.0,0.0,0.0,0.0,0.0,0.0,0.0,0.0,0.0,0.0,0.0,0.0,0.0,0.0,0.0,0.0,0.0,0.0,0.0,0.0,0.0,0.0,0.0,0.0,0.0,0.0,0.0,0.0,0.0,0.0,0.0,0.0,0.0,0.0,0.0,0.0,0.0,0.0,0.0,0.0,0.0,0.0,6.5409,6.5733,6.7604,7.1148,7.164,7.1729,7.1381,7.0289,6.8585,6.619,0.0,0.0,0.0,0.0,0.0,0.0,0.0,0.0,0.0,0.0,0.0,0.0,0.0,0.0,0.0,0.0,0.0,0.0,0.0,0.0,0.0,0.0,0.0,0.0,0.0,0.0,0.0,0.0,0.0,0.0,0.0,0.0,0.0,0.0,0.0,0.0,0.0,0.0,0.0,6.5975,6.5724,0.0,0.0,0.0,0.0,0.0,0.0,0.0,0.0,6.6222,0.0,0.0,0.0,0.0,0.0,0.0,0.0,0.0,0.0,0.0,0.0,0.0,0.0,0.0,0.0,0.0,0.0,0.0,0.0,0.0,0.0,0.0,0.0,0.0,0.0,0.0,0.0,0.0,0.0,0.0,0.0,0.0,0.0,0.0,0.0,0.0,0.0,0.0,0.0,0.0,0.0,0.0,0.0,0.0,0.0,0.0,0.0,0.0,0.0,0.0,0.0,0.0,0.0,0.0,0.0,6.6333,6.7424,6.9415,7.2466,7.2784,7.2957,7.3019,7.1783,6.9961,0.0,0.0,0.0,0.0,0.0,0.0,0.0,0.0,0.0,0.0,0.0,0.0,0.0,0.0,0.0,0.0,0.0,0.0,0.0,0.0,0.0,0.0,0.0,0.0,0.0,0.0,0.0,0.0,0.0,0.0,0.0,0.0,0.0,0.0,0.0,0.0,0.0,0.0,0.0,0.0,6.6293,6.6458,6.7064,0.0,0.0,0.0,0.0,0.0,0.0,6.6759,6.7093,0.0,0.0,0.0,0.0,0.0,0.0,0.0,0.0,0.0,0.0,0.0,0.0,0.0,0.0,0.0,0.0,0.0,0.0,0.0,0.0,0.0,0.0,0.0,0.0,0.0,0.0,0.0,0.0,0.0,0.0,0.0,0.0,0.0,0.0,0.0,0.0,0.0,0.0,0.0,0.0,0.0,0.0,0.0,0.0,0.0,0.0,0.0,0.0,0.0,0.0,0.0,0.0,0.0,0.0,0.0,6.706,6.8969,7.102,7.3306,7.3704,7.4114,7.4636,7.2855,7.0955,0.0,0.0,0.0,0.0,0.0,0.0,0.0,0.0,0.0,0.0,0.0,0.0,0.0,0.0,0.0,0.0,0.0,0.0,0.0,0.0,0.0,0.0,0.0,0.0,0.0,0.0,0.0,0.0,0.0,0.0,0.0,0.0,0.0,0.0,0.0,0.0,0.0,0.0,0.0,0.0,0.0,6.7605,6.7958,6.7682,0.0,0.0,0.0,0.0,6.6663,6.7789,0.0,0.0,0.0,0.0,0.0,0.0,0.0,0.0,0.0,0.0,0.0,0.0,0.0,0.0,0.0,0.0,0.0,0.0,0.0,0.0,0.0,0.0,0.0,0.0,0.0,0.0,0.0,0.0,0.0,0.0,0.0,0.0,0.0,0.0,0.0,0.0,0.0,0.0,0.0,0.0,0.0,0.0,0.0,0.0,0.0,0.0,0.0,0.0,0.0,0.0,0.0,0.0,0.0,0.0,0.0,0.0,6.8441,7.0074,7.206,7.4302,7.4852,7.5145,7.5175,7.2392,7.0719,0.0,0.0,0.0,0.0,0.0,0.0,0.0,0.0,0.0,0.0,0.0,0.0,0.0,0.0,0.0,0.0,0.0,0.0,0.0,0.0,0.0,0.0,0.0,0.0,0.0,0.0,0.0,0.0,0.0,0.0,0.0,0.0,0.0,0.0,0.0,0.0,0.0,0.0,0.0,0.0,0.0,6.9391,7.0288,6.9612,6.9025,0.0,0.0,6.9272,6.9168,7.0111,0.0,0.0,0.0,0.0,0.0,0.0,0.0,0.0,0.0,0.0,0.0,0.0,0.0,0.0,0.0,0.0,0.0,0.0,0.0,0.0,0.0,0.0,0.0,0.0,0.0,0.0,0.0,0.0,0.0,0.0,0.0,0.0,0.0,0.0,0.0,0.0,0.0,0.0,0.0,0.0,0.0,0.0,0.0,0.0,0.0,0.0,0.0,0.0,0.0,0.0,0.0,0.0,0.0,0.0,0.0,6.7909,6.9484,7.1713,7.3708,7.5357,7.5777,7.6122,7.6468,7.3149,7.1241,0.0,0.0,0.0,0.0,0.0,0.0,0.0,0.0,0.0,0.0,0.0,0.0,0.0,0.0,0.0,0.0,0.0,0.0,0.0,0.0,0.0,0.0,0.0,0.0,0.0,0.0,0.0,0.0,0.0,0.0,0.0,0.0,0.0,0.0,0.0,0.0,0.0,0.0,0.0,0.0,0.0,0.0,7.0804,7.1177,0.0,0.0,0.0,7.1235,7.0155,0.0,0.0,0.0,0.0,0.0,0.0,0.0,0.0,0.0,0.0,0.0,0.0,0.0,0.0,0.0,0.0,0.0,0.0,0.0,0.0,0.0,0.0,0.0,0.0,0.0,0.0,0.0,0.0,0.0,0.0,0.0,0.0,0.0,0.0,0.0,0.0,0.0,0.0,0.0,0.0,0.0,0.0,0.0,0.0,0.0,0.0,0.0,0.0,0.0,0.0,0.0,0.0,0.0,0.0,0.0,0.0,0.0,7.0772,7.3521,7.5637,7.699,7.7146,7.7451,7.7894,7.4673,0.0,0.0,0.0,0.0,0.0,0.0,0.0,0.0,0.0,0.0,0.0,0.0,0.0,0.0,0.0,0.0,0.0,0.0,0.0,0.0,0.0,0.0,0.0,0.0,0.0,0.0,0.0,6.3768,0.0,0.0,0.0,0.0,0.0,0.0,0.0,0.0,0.0,0.0,0.0,0.0,0.0,0.0,7.2608,7.2011,7.2916,7.354,0.0,0.0,7.3413,7.1925,7.394,7.4702,0.0,0.0,0.0,0.0,0.0,0.0,0.0,0.0,0.0,0.0,0.0,0.0,0.0,0.0,0.0,0.0,0.0,0.0,0.0,0.0,0.0,0.0,0.0,0.0,0.0,0.0,0.0,0.0,5.8132,0.0,0.0,0.0,0.0,0.0,0.0,0.0,0.0,0.0,0.0,0.0,0.0,0.0,0.0,0.0,0.0,0.0,0.0,0.0,0.0,0.0,0.0,0.0,0.0,0.0,0.0,7.2554,7.5489,7.7853,7.9542,7.9535,7.9494,7.9501,7.7202,7.4895,0.0,0.0,0.0,0.0,0.0,0.0,0.0,0.0,0.0,0.0,0.0,0.0,0.0,0.0,0.0,0.0,0.0,0.0,0.0,0.0,0.0,0.0,0.0,0.0,0.0,0.0,0.0,0.0,0.0,0.0,0.0,0.0,0.0,0.0,0.0,0.0,0.0,0.0,0.0,0.0,0.0,7.5074,7.4984,7.5088,7.5551,0.0,0.0,7.609,7.5601,7.7164,7.7379,7.4409,0.0,0.0,0.0,0.0,0.0,0.0,0.0,0.0,0.0,0.0,0.0,0.0,0.0,0.0,0.0,0.0,0.0,0.0,0.0,0.0,0.0,0.0,0.0,0.0,0.0,5.9535,0.0,0.0,6.0848,0.0,0.0,0.0,0.0,0.0,0.0,0.0,0.0,0.0,0.0,0.0,0.0,0.0,0.0,0.0,0.0,0.0,0.0,0.0,0.0,0.0,0.0,0.0,0.0,7.2392,7.3659,7.6907,7.9152,8.021,8.0381,8.0648,8.1045,7.8483,7.638,0.0,0.0,0.0,0.0,0.0,0.0,0.0,0.0,0.0,0.0,0.0,0.0,0.0,0.0,0.0,0.0,0.0,0.0,0.0,0.0,0.0,0.0,0.0,0.0,0.0,0.0,0.0,0.0,6.6913,6.7359,6.6914,0.0,0.0,0.0,0.0,0.0,0.0,0.0,0.0,0.0,0.0,7.6866,7.7123,7.8352,0.0,0.0,7.962,7.9346,7.7857,7.8539,7.8203,7.5041,7.4498,0.0,0.0,0.0,0.0,0.0,0.0,0.0,0.0,0.0,0.0,0.0,0.0,0.0,0.0,0.0,0.0,0.0,0.0,0.0,0.0,0.0,0.0,0.0,0.0,0.0,0.0,0.0,0.0,0.0,0.0,0.0,0.0,0.0,0.0,0.0,0.0,0.0,0.0,0.0,0.0,0.0,0.0,0.0,0.0,0.0,0.0,0.0,0.0,0.0,0.0,0.0,0.0,7.3901,7.4977,7.836,8.044,8.1173,8.1334,8.1719,8.2277,8.0038,7.8103,0.0,0.0,0.0,0.0,0.0,0.0,0.0,0.0,0.0,0.0,0.0,0.0,0.0,0.0,0.0,0.0,0.0,0.0,0.0,0.0,0.0,0.0,0.0,0.0,0.0,0.0,0.0,0.0,6.8203,6.8754,6.8772,0.0,0.0,0.0,0.0,0.0,0.0,0.0,0.0,0.0,0.0,7.8602,7.8766,8.0326,8.1295,8.0744,8.1183,8.0997,7.9551,7.9515,7.8846,7.6457,0.0,0.0,0.0,0.0,0.0,0.0,0.0,0.0,0.0,0.0,0.0,0.0,0.0,0.0,0.0,0.0,0.0,0.0,0.0,0.0,0.0,0.0,0.0,0.0,0.0,0.0,0.0,6.2653,0.0,0.0,6.2648,0.0,0.0,0.0,0.0,0.0,0.0,0.0,0.0,0.0,0.0,0.0,0.0,0.0,0.0,0.0,0.0,0.0,0.0,0.0,0.0,0.0,0.0,7.5364,7.6743,7.9816,8.1823,8.2734,8.2727,8.2909,8.3305,8.204,8.0381,7.8376,0.0,0.0,0.0,0.0,0.0,0.0,0.0,0.0,0.0,0.0,0.0,0.0,0.0,0.0,0.0,0.0,0.0,0.0,0.0,0.0,0.0,0.0,0.0,0.0,0.0,0.0,6.7833,6.9132,7.0447,0.0,0.0,0.0,0.0,0.0,0.0,0.0,0.0,0.0,0.0,7.853,8.0317,7.9923,8.0561,8.114,8.1038,8.0747,8.0604,8.0893,8.0275,7.9652,0.0,0.0,0.0,0.0,0.0,0.0,0.0,0.0,0.0,0.0,0.0,0.0,0.0,0.0,0.0,0.0,0.0,0.0,0.0,0.0,0.0,0.0,0.0,0.0,0.0,0.0,0.0,6.4061,6.3176,0.0,0.0,0.0,0.0,0.0,0.0,0.0,0.0,0.0,0.0,0.0,6.7548,6.8023,0.0,0.0,0.0,0.0,0.0,0.0,0.0,0.0,0.0,0.0,0.0,0.0,7.6835,7.7947,8.1,8.3097,8.4022,8.3989,8.41,8.4405,8.3683,8.1946,7.9108,0.0,0.0,0.0,0.0,0.0,0.0,0.0,0.0,0.0,0.0,0.0,0.0,0.0,0.0,0.0,0.0,0.0,0.0,0.0,0.0,0.0,0.0,0.0,0.0,0.0,6.9996,0.0,0.0,0.0,0.0,0.0,0.0,0.0,0.0,0.0,0.0,0.0,7.6858,7.8395,7.9672,8.0663,8.1295,8.2453,8.3599,0.0,0.0,0.0,0.0,0.0,0.0,0.0,0.0,0.0,0.0,0.0,0.0,0.0,0.0,8.1563,7.8371,7.7754,7.7672,7.7693,0.0,0.0,0.0,0.0,0.0,0.0,0.0,0.0,0.0,0.0,0.0,0.0,0.0,0.0,6.4858,0.0,6.4147,0.0,0.0,0.0,0.0,0.0,0.0,0.0,0.0,6.7486,6.8029,6.8724,6.9175,6.9685,0.0,7.1545,7.1625,0.0,0.0,0.0,0.0,0.0,0.0,0.0,0.0,7.7939,7.9101,8.2067,8.4181,8.5282,8.5372,8.5458,8.5614,8.4977,8.3206,8.0236,7.841,7.6607,0.0,0.0,0.0,0.0,0.0,0.0,0.0,0.0,0.0,0.0,0.0,0.0,0.0,0.0,0.0,0.0,0.0,0.0,0.0,0.0,0.0,0.0,0.0,7.1913,0.0,0.0,0.0,0.0,0.0,0.0,0.0,0.0,0.0,7.7402,7.7981,7.9166,8.1001,8.1759,8.2185,8.2214,0.0,0.0,0.0,0.0,0.0,0.0,0.0,8.3222,8.2884,8.2818,8.3334,8.497,8.6332,8.7172,8.7172,0.0,0.0,8.172,8.0922,8.1008,8.1277,8.2575,8.3824,8.442,8.5614,8.6778,0.0,0.0,0.0,0.0,0.0,0.0,0.0,0.0,6.4568,6.4559,0.0,6.476,0.0,0.0,0.0,0.0,0.0,0.0,0.0,0.0,6.8749,6.9517,7.0423,7.0546,7.1058,7.1974,7.2763,7.3122,7.3155,7.3551,0.0,0.0,0.0,0.0,0.0,0.0,7.8664,8.042,8.3099,8.5212,8.6553,8.683,8.6957,8.6977,8.5864,8.4168,8.1943,8.0513,7.9094,7.7683,7.5262,0.0,0.0,0.0,0.0,0.0,0.0,0.0,0.0,0.0,0.0,0.0,0.0,0.0,0.0,0.0,0.0,0.0,0.0,0.0,0.0,7.3799,0.0,0.0,0.0,0.0,0.0,0.0,0.0,0.0,0.0,0.0,8.0015,8.0686,8.1888,8.3447,0.0,0.0,0.0,0.0,8.6512,8.4096,8.4183,8.4785,8.5193,8.5495,8.6051,8.7112,0.0,0.0,8.9627,8.948,8.939,8.9312,8.988,8.9044,8.5865,8.5246,8.537,8.6162,8.6475,8.7184,8.8655,8.9084,8.9449,6.5848,0.0,0.0,0.0,0.0,6.7578,6.7066,6.5341,6.6094,6.5937,6.5149,6.558,0.0,0.0,0.0,0.0,0.0,0.0,6.884,6.9487,7.0363,7.1104,7.1803,7.3049,7.4239,7.5371,7.5775,7.6448,7.7288,7.7282,7.5914,7.3404,0.0,0.0,0.0,0.0,8.13,8.3569,8.5315,8.6688,8.7665,8.7782,8.7695,8.7411,8.6684,8.5746,8.464,8.3205,8.1896,8.0695,7.9385,0.0,0.0,0.0,0.0,0.0,0.0,0.0,0.0,0.0,0.0,0.0,0.0,0.0,0.0,0.0,0.0,0.0,0.0,0.0,7.4479,7.5925,7.6556,0.0,0.0,0.0,0.0,0.0,0.0,0.0,0.0,0.0,8.5135,8.2986,8.1929,0.0,0.0,8.3602,8.3576,8.5894,8.771,8.8033,0.0,0.0,0.0,8.9943,8.9477,9.0031,9.1728,9.3226,9.3905,9.4737,9.5368,9.5332,9.5548,9.5339,9.4246,9.1195,8.9247,8.9338,9.0679,9.2021,9.2646,9.4356,9.6065,6.7648,6.7009,6.7603,6.7636,6.7363,6.8451,6.8014,6.6525,6.7337,6.7302,6.6693,6.7049,6.7418,6.7764,6.7651,0.0,0.0,0.0,7.0631,7.1301,7.2438,7.3317,7.4065,7.5305,7.6516,7.7655,7.8453,7.9061,7.9548,8.0081,7.9103,7.6809,0.0,0.0,7.9268,8.1164,8.3198,8.5215,8.6639,8.7899,8.896,8.9001,8.8943,8.8765,8.8212,8.7433,8.6555,8.5677,8.4608,8.3349,8.2316,8.0833,0.0,0.0,0.0,0.0,0.0,0.0,0.0,0.0,0.0,0.0,0.0,7.5151,7.4484,0.0,0.0,0.0,7.6913,7.6895,7.6907,7.7646,0.0,0.0,0.0,0.0,0.0,0.0,0.0,8.3364,8.5621,8.7503,8.8252,8.6265,8.5269,8.6734,8.6666,8.6448,8.6341,0.0,9.0269,9.0611,9.1102,9.1992,9.3451,9.3344,9.3438,9.4689,9.5916,9.7023,9.7634,9.8407,9.8962,9.898,9.9029,9.9154,9.9406,9.6951,9.4723,9.4082,9.5068,9.6257,9.6963,9.8709,10.0232,6.9814,7.0474,7.1367,7.0419,6.8598,6.9851,6.9519,6.8089,6.8392,6.8691,6.897,6.8961,6.892,6.8916,6.9309,0.0,7.0957,7.197,7.2841,7.3568,7.48,7.5892,7.6806,7.7563,7.8418,7.9408,8.0889,8.1275,8.0843,8.2335,8.2709,8.2079,8.1297,8.1224,8.1963,8.3273,8.4654,8.5983,8.7528,8.8998,9.0448,9.0437,9.0484,9.0628,9.0124,8.9192,8.7899,8.7752,8.711,8.5772,8.4412,8.3278,8.232,0.0,0.0,0.0,0.0,0.0,0.0,0.0,0.0,0.0,0.0,0.0,0.0,0.0,0.0,7.9466,8.0224,0.0,8.057,7.95,0.0,0.0,0.0,8.2101,8.4169,8.581,8.7017,8.7608,0.0,0.0,9.007,0.0,9.0852,9.2408,9.2279,9.158,9.0352,9.2447,9.3674,9.2306,9.2967,9.3953,9.5137,9.6077,9.7568,9.9723,10.0565,10.0676,10.0929,10.1037,10.1034,10.1109,10.1032,10.1273,10.1981,10.1998,10.1705,9.9931,9.9562,9.997,10.1197,10.1811,10.2461,7.327,7.4108,7.4389,7.2154,6.8597,6.9638,6.9458,6.8539,6.9991,7.0555,7.0437,7.0854,7.0897,7.0671,7.2058,7.2911,7.3408,7.4718,7.5676,7.6289,7.7361,7.8091,7.8651,8.0342,8.1676,8.2676,8.3496,8.4329,8.5086,8.5334,8.5402,8.53,8.5276,8.4753,8.3843,8.4904,8.6506,8.8593,8.9331,9.0486,9.206,9.1674,9.1306,9.1053,9.092,9.0486,8.9691,8.9025,8.8615,8.8453,8.6878,8.5509,8.4412,8.1945,0.0,0.0,0.0,0.0,0.0,0.0,0.0,0.0,0.0,7.73,7.6392,0.0,7.7994,0.0,8.2143,8.4183,8.4836,8.4736,0.0,0.0,8.5457,8.598,8.7624,8.9017,8.9683,8.9296,9.088,9.2436,9.343,9.404,9.5231,9.7427,9.4641,9.2589,9.3436,9.5383,9.6442,9.5652,9.7,9.8425,9.8185,9.9446,10.0942,10.2351,10.3024,10.3569,10.4201,10.433,10.433,10.4348,10.4541,10.474,10.484,10.545,10.5677,10.4982,10.3923,10.3142,10.3588,10.4466,10.5359,7.5936,7.6714,7.6755,7.5101,7.2525,7.2631,7.2273,7.1721,7.2761,7.3271,7.337,7.3549,7.3568,7.3532,7.4469,7.5326,7.6075,7.6819,7.7788,7.8892,7.9701,8.0535,8.1391,8.2943,8.4146,8.5187,8.5756,8.6518,8.747,8.7628,8.7769,8.7913,8.8603,8.8332,8.7057,8.6628,8.7096,8.8515,8.9833,9.1433,9.3303,9.3143,9.2501,9.1327,9.129,9.0464,8.8774,8.8227,8.7884,8.7705,8.683,8.5882,8.496,8.3061,8.1626,0.0,0.0,0.0,0.0,0.0,0.0,0.0,0.0,0.0,0.0,0.0,8.1245,8.2662,8.5291,8.6951,8.7188,8.7305,8.7793,8.8873,8.9213,9.0114,9.1955,9.3417,9.4116,9.3717,9.5052,9.6251,9.6887,9.7268,9.8171,9.9997,9.7966,9.6458,9.6863,9.7729,9.8151,9.8214,9.9058,10.0084,10.0529,10.2143,10.3478,10.4032,10.4535,10.5019,10.5556,10.6019,10.6296,10.6314,10.6734,10.725,10.752,10.7984,10.8433,10.8497,10.783,10.7049,10.6456,10.6958,10.7588,7.8197,7.8911,7.8998,7.8668,7.8041,7.7206,7.648,7.5836,7.5836,7.6131,7.6603,7.6318,7.6381,7.6639,7.6765,7.756,7.8755,7.8881,7.9802,8.1451,8.1991,8.2935,8.4276,8.5192,8.6147,8.7063,8.7753,8.8378,8.8898,8.9457,8.9841,9.0094,9.1224,9.1323,9.0351,8.8539,8.7685,8.7738,9.0032,9.2144,9.4089,9.4038,9.3105,9.134,9.1119,8.9803,8.7148,8.6962,8.6608,8.5936,8.5875,8.5757,8.5454,8.4339,8.3645,0.0,8.2508,0.0,0.0,0.0,0.0,0.0,0.0,0.0,0.0,8.4769,8.5984,8.7508,8.8798,8.9513,8.9292,8.93,9.0139,9.2225,9.3072,9.4322,9.6381,9.7802,9.8651,9.8651,9.9261,9.9741,9.9981,10.0074,10.037,10.1387,10.1573,10.1183,10.0555,9.9908,9.9794,10.06,10.0209,10.097,10.272,10.4467,10.5601,10.5656,10.612,10.6228,10.6593,10.7388,10.7959,10.7922,10.8539,10.9268,11.0055,11.0242,11.0524,11.1107,11.1093,11.061,10.9321,10.8908,10.9297,8.0572,8.1721,8.1741,8.1536,8.1248,8.1303,7.9932,7.7618,7.7558,7.7572,7.7726,7.7861,7.809,7.8474,7.9285,8.0254,8.1352,8.1909,8.2983,8.4296,8.4411,8.486,8.5671,8.6914,8.7617,8.7897,8.9419,9.0293,9.0425,9.1198,9.1527,9.1412,9.1897,9.1767,9.112,0.0,0.0,0.0,9.2259,9.3342,9.3248,9.1594,9.0618,9.0324,8.9765,0.0,8.8603,8.8273,8.8081,8.8006,8.7264,0.0,0.0,0.0,0.0,0.0,0.0,0.0,0.0,0.0,0.0,0.0,8.9614,8.8905,8.6731,8.7682,8.9135,9.0738,9.169,9.2981,9.4816,9.5035,9.5734,9.743,9.7672,9.8079,9.9149,9.9446,9.9483,9.9483,9.963,10.0315,10.1741,10.1944,10.2556,10.4021,10.443,10.4356,10.4152,10.2962,10.234,10.2682,10.3018,10.3766,10.4798,10.6509,10.7643,10.7955,10.8984,10.9656,10.9838,11.0583,11.0956,11.0449,11.1063,11.1751,11.1976,11.252,11.2916,11.296,11.3448,11.3169,11.0684,11.0008,10.9929,8.3374,0.0,8.4075,8.409,0.0,8.3999,8.3455,8.2548,8.084,8.0163,8.0332,8.0814,8.1112,8.1322,8.1943,8.2629,8.3282,8.3706,8.4665,8.6159,8.648,8.7165,8.8219,8.9331,8.995,9.0117,9.1341,9.211,9.24,9.3107,9.345,9.3474,9.3972,9.4101,9.3967,9.5388,9.5083,9.2989,9.3684,9.4451,9.5224,9.4232,9.3193,9.2266,0.0,0.0,0.0,0.0,0.0,0.0,0.0,0.0,0.0,0.0,0.0,9.0385,8.9473,8.9426,9.0674,9.1247,9.2139,9.3584,9.4831,9.3986,9.048,9.1861,9.3436,9.4669,9.5497,9.664,9.8213,9.8449,9.8932,10.0121,10.0551,10.1054,10.1833,10.2241,10.2389,10.2426,10.2389,10.2816,10.3688,10.3799,10.4375,10.5656,10.5954,10.6214,10.6472,10.491,10.3682,10.4343,10.562,10.6701,10.7419,10.8483,10.9451,10.9691,11.0288,11.0811,11.0976,11.2077,11.2806,11.2486,11.342,11.4337,11.4375,11.4675,11.4884,11.4702,11.4983,11.4852,11.3224,11.2586,11.236,8.5794,8.5875,8.5945,8.6156,8.6416,8.6002,8.6498,8.7363,0.0,0.0,0.0,8.3532,8.3805,8.4086,8.4293,8.4722,8.534,8.534,8.6273,8.7951,8.8446,8.9374,9.0665,9.151,9.2043,9.2377,9.298,9.3578,9.4129,9.4643,9.5141,9.5617,9.6245,9.6797,9.7399,9.8771,9.8417,9.6371,9.5203,9.5462,9.723,9.7082,9.6095,9.4172,9.4156,9.289,9.0236,9.0022,8.9629,8.8978,8.9636,9.0342,9.1004,9.1336,9.1991,9.2951,9.2518,9.3038,9.4994,9.494,9.5843,9.8158,9.9397,9.8372,9.4462,9.6064,9.7595,9.8486,9.9118,9.988,10.0827,10.0938,10.1272,10.209,10.2758,10.3409,10.4133,10.4765,10.508,10.5359,10.5303,10.5619,10.5917,10.6028,10.6344,10.7272,10.7848,10.8126,10.8788,10.7154,10.5686,10.6481,10.7977,10.9246,10.9763,11.0456,11.0999,11.1034,11.1293,11.1459,11.1738,11.2952,11.3962,11.3869,11.5314,11.6177,11.6365,11.6327,11.6348,11.62,11.6163,11.6126,11.5937,11.5394,11.5001,8.6678,8.6982,8.6964,8.7063,8.7207,8.7721,8.8135,8.8149,8.5886,8.4682,8.4376,8.391,8.4339,8.5406,8.5436,8.6485,8.8176,8.821,8.9001,0.0,9.0484,9.0905,9.1591,9.1987,9.2433,9.298,9.3578,9.4155,9.4668,9.503,9.5832,9.704,9.7266,9.8231,9.9767,9.925,9.9299,10.0041,9.7782,9.6415,9.6056,9.5107,9.4115,9.3112,9.3318,9.2866,9.1729,9.1348,9.104,9.0932,9.116,9.2119,9.3854,9.3945,9.4855,9.6995,9.7138,9.7714,9.9119,9.9215,9.9627,10.0558,10.1314,10.0484,9.7775,9.8858,10.0121,10.0901,10.1124,10.183,10.3241,10.3427,10.3724,10.4505,10.4765,10.495,10.5136,10.5285,10.5656,10.6288,10.64,10.7181,10.839,10.8834,10.9349,11.035,11.1023,11.1957,11.2252,11.0952,10.9633,10.9721,11.0604,11.1173,11.1328,11.1816,11.2394,11.2408,11.2963,11.3396,11.3537,11.4782,11.5518,11.4956,11.6233,11.7134,11.7229,11.7229,11.7248,11.7193,11.7155,11.7136,11.7099,11.6949,11.665,8.8767,8.9395,8.9087,8.9672,9.0803,9.0981,9.0859,9.0423,8.9284,8.785,8.6514,8.6494,8.6955,8.7675,8.7889,8.8582,8.9662,8.9662,9.0244,9.1211,9.1564,9.2058,9.2778,9.3581,9.4289,9.4972,9.5711,9.6476,9.7278,9.7688,9.8452,9.9372,9.9954,10.0824,10.1865,10.1607,10.1837,10.263,9.9909,9.8434,9.84,9.7884,9.7492,9.7288,9.7423,9.717,9.6399,9.6197,9.5884,9.5423,9.6028,9.6817,9.7782,9.8124,9.8817,10.0057,10.0014,10.0374,10.1399,10.2322,10.274,10.2621,10.403,10.4159,10.2346,10.2251,10.2461,10.2833,10.3241,10.3835,10.4726,10.5191,10.56,10.5972,10.6884,10.7424,10.7311,10.7739,10.8111,10.8369,10.869,10.9174,10.9975,11.0751,11.1599,11.2599,11.3849,11.4969,11.5411,11.4649,11.3651,11.3123,11.3094,11.3329,11.3601,11.3944,11.4259,11.4343,11.4962,11.5346,11.5565,11.6458,11.6875,11.6782,11.7539,11.8144,11.8257,11.8203,11.8111,11.813,11.8092,11.813,11.8092,11.8092,11.7905,9.0352,9.1075,9.0742,9.1763,9.352,9.3209,9.2869,9.2545,9.2155,9.1008,8.9405,8.9286,8.9493,8.9934,9.0332,9.0734,9.1141,9.1398,9.186,9.2483,9.3018,9.3616,9.4301,9.5406,9.6276,9.6989,9.7709,9.8586,9.956,10.001,10.0543,10.1233,10.2142,10.2818,10.3204,10.3765,10.4231,10.447,10.2491,10.137,10.1337,10.1424,10.1556,10.1633,10.187,10.1668,10.0992,10.097,10.0685,10.0169,10.0819,10.1257,10.1445,10.1943,10.2327,10.2614,10.2399,10.2692,10.3673,10.4929,10.5422,10.4943,10.6815,10.7707,10.6894,10.6194,10.5564,10.5266,10.5731,10.627,10.6716,10.7236,10.7608,10.7738,10.8911,10.9583,10.9547,11.0125,11.0741,11.0833,11.1245,11.1558,11.2098,11.2891,11.3921,11.5089,11.6318,11.7229,11.7534,11.7643,11.7203,11.6444,11.5575,11.5329,11.6048,11.607,11.607,11.6242,11.6583,11.6733,11.691,11.7502,11.7941,11.7962,11.8538,11.8975,11.9126,11.9017,11.8873,11.8818,11.8726,11.8747,11.8636,11.8618,11.8655,9.0103,9.0408,9.0899,9.1782,9.3229,9.2694,9.2937,9.3629,9.3302,9.3231,9.3028,9.1235,9.0834,9.1424,9.2042,9.2714,9.3412,9.4425,9.4968,9.5304,9.5765,9.6125,9.6384,9.7116,9.7778,9.8284,9.8727,9.9385,10.0203,10.0321,10.0778,10.1712,10.2677,10.327,10.3415,10.4646,10.5482,10.5686,10.629,10.5634,10.3724,10.3954,10.3897,10.3389,10.4251,10.4333,10.3448,10.3448,10.3529,10.3634,10.3665,10.3803,10.392,10.4033,10.4333,10.4923,10.4951,10.5601,10.6936,10.7295,10.7603,10.8109,10.9465,11.0329,11.0236,11.0778,11.0368,10.9061,10.8764,10.9025,10.9845,11.0125,11.029,11.0472,11.0844,11.0899,11.1081,11.1076,11.1676,11.3252,11.3509,11.428,11.5401,11.6075,11.6842,11.7692,11.8098,11.8639,11.9148,11.9278,11.9326,11.9087,11.8239,11.7329,11.7375,11.7497,11.7497,11.7581,11.7528,11.7601,11.7708,11.7957,11.822,11.8605,11.8808,11.9316,11.9492,11.958,11.9371,11.906,11.901,11.9053,11.8784,11.873,11.8711,9.23,9.3284,9.3714,9.452,9.5402,9.5428,9.5666,9.5998,9.6135,9.63,9.6233,9.4959,9.4142,9.3825,9.407,9.4486,9.4971,9.5393,9.577,9.61,9.6397,9.6808,9.7299,9.7895,9.8604,9.9433,9.9962,10.0686,10.1657,10.273,10.378,10.4792,10.5644,10.6049,10.6129,10.7073,10.7976,10.8661,10.9216,10.9104,10.8354,10.6805,10.5654,10.5133,10.5543,10.5663,10.5325,10.5386,10.5483,10.5563,10.5658,10.5721,10.5799,10.569,10.5988,10.6736,10.7616,10.841,10.9137,10.9625,11.0056,11.0411,11.1799,11.267,11.2745,11.3725,11.4047,11.3225,11.1522,11.0788,11.1682,11.1884,11.2104,11.268,11.3256,11.3592,11.3416,11.3935,11.461,11.516,11.541,11.5805,11.6658,11.7508,11.8394,11.9249,11.9501,11.9738,12.0058,12.0112,12.0089,12.0091,11.9611,11.9138,11.8667,11.8523,11.8582,11.8688,11.8994,11.9109,11.8987,11.9207,11.9448,11.9372,11.9179,11.9055,11.9049,11.8606,11.8249,11.8556,11.9211,11.928,11.9037,11.9002,11.9002,9.4001,9.5341,9.6039,9.6655,9.7241,9.7514,9.7684,9.7819,9.8155,9.8388,9.8421,9.7943,9.735,9.6653,9.6043,9.5832,9.5987,9.6372,9.6685,9.6921,9.7276,9.7882,9.863,9.9194,10.0021,10.1014,10.1697,10.2519,10.3547,10.491,10.622,10.7184,10.7979,10.8323,10.8487,10.9459,11.0409,11.0987,11.1622,11.2055,11.1871,11.0051,10.8406,10.7443,10.7415,10.7484,10.7501,10.7721,10.7853,10.7853,10.8016,10.8112,10.8096,10.7935,10.8251,10.904,11.0139,11.1058,11.1608,11.2261,11.2742,11.3111,11.4311,11.4995,11.5221,11.6054,11.6676,11.6503,11.4373,11.3274,11.364,11.3822,11.412,11.4774,11.5513,11.5781,11.5627,11.6299,11.6672,11.687,11.7039,11.7342,11.7707,11.8584,11.9443,11.9915,12.0144,12.0312,12.0312,12.0296,12.0235,12.0067,12.0095,12.0001,11.9658,11.93,11.9286,11.9276,11.9552,11.9432,11.9746,11.9708,11.9714,11.8922,11.8781,11.869,11.8726,11.8082,11.7534,11.8139,11.8753,11.914,11.895,11.9088,11.9263,9.4269,9.5558,9.6618,9.7374,9.7649,9.7716,9.7919,9.8387,9.8621,9.8917,9.9245,9.9433,9.9718,9.9667,9.7803,9.6733,9.665,9.7781,9.8391,9.8512,9.9052,9.9936,10.0942,10.1583,10.235,10.3141,10.3756,10.457,10.547,10.616,10.6988,10.8075,10.896,10.9258,10.9568,11.1368,11.2267,11.2185,11.3467,11.4162,11.3755,11.362,11.2474,11.0685,11.0479,11.0385,11.0477,11.0783,11.0938,11.0975,11.0976,11.1173,11.1214,11.1116,11.1406,11.2157,11.2538,11.3394,11.4709,11.5072,11.5445,11.6154,11.6777,11.744,11.7284,11.7656,11.7928,11.8153,11.7324,11.6653,11.6336,11.6179,11.641,11.6695,11.6842,11.6983,11.7151,11.7254,11.7692,11.8233,11.8439,11.8709,11.9622,12.0075,12.0129,12.0258,12.0312,12.0342,12.0357,12.0342,12.0097,11.969,11.9596,11.9634,12.0183,11.962,11.9361,11.9326,11.8958,11.8586,11.8382,11.8305,11.845,11.8529,11.8319,11.8281,11.8351,11.818,11.7866,11.8043,11.8302,11.853,11.8542,11.9114,11.9232,9.6923,9.8236,9.8896,9.9376,9.9715,9.9951,10.0085,10.0252,10.0385,10.0517,10.0549,10.0473,10.0464,10.0525,9.9718,9.9266,9.9173,9.9692,10.0136,10.0531,10.0802,10.1416,10.2359,10.2623,10.3098,10.3847,10.4467,10.5438,10.6716,10.7588,10.8597,10.9676,11.0887,11.1555,11.1745,11.2777,11.3602,11.4058,11.4829,11.5116,11.5088,11.5171,11.4609,11.3528,11.2662,11.2365,11.2621,11.2184,11.2059,11.2353,11.183,11.1741,11.2344,11.3325,11.3968,11.4324,11.4969,11.5668,11.6259,11.644,11.662,11.6993,11.7686,11.8144,11.8304,11.8682,11.9035,11.9147,11.9078,11.8785,11.8475,11.774,11.7351,11.7876,11.8006,11.806,11.8238,11.8558,11.905,11.9332,11.9434,11.9691,12.0053,12.0319,12.0423,12.0438,12.0549,12.0593,12.0607,12.0607,12.0484,12.0321,12.0273,12.0378,12.0695,11.9575,11.8801,11.8829,11.8677,11.8638,11.8472,11.8459,11.8626,11.8562,11.8268,11.7706,11.7745,11.7703,11.7489,11.7489,11.7761,11.841,11.8052,11.8818,11.8878,9.9077,9.9995,10.0573,10.0915,10.1086,10.132,10.1387,10.142,10.1519,10.1585,10.1518,10.1376,10.1434,10.1494,10.1468,10.1576,10.1694,10.1285,10.1257,10.1682,10.1802,10.2445,10.3354,10.3475,10.4014,10.4897,10.5507,10.6599,10.799,10.8895,11.0001,11.1287,11.2595,11.3196,11.3327,11.4103,11.4869,11.5238,11.5592,11.5921,11.618,11.6259,11.6164,11.5724,11.4967,11.442,11.4234,11.3763,11.3624,11.3814,11.3397,11.3397,11.4054,11.5102,11.589,11.6209,11.6854,11.7422,11.7766,11.787,11.799,11.8087,11.8536,11.8861,11.898,11.9353,11.9618,11.9776,11.9792,11.9792,11.9527,11.8558,11.8065,11.8823,11.8975,11.9013,11.9013,11.9467,11.9727,11.9846,11.9998,12.019,12.0334,12.0497,12.0569,12.0584,12.075,12.0848,12.0848,12.0889,12.0763,12.0572,12.0394,12.0232,12.0171,11.924,11.9111,11.9163,11.8779,11.8689,11.8701,11.8701,11.8675,11.8585,11.8164,11.7476,11.7119,11.708,11.7089,11.7058,11.7958,11.8843,11.8704,11.8679,11.8529,10.0658,10.0573,10.1548,10.1754,10.1487,10.1486,10.1486,10.1653,10.185,10.2083,10.2249,10.2408,10.2765,10.2953,10.2978,10.3326,10.3519,10.2479,10.1892,10.2047,10.2218,10.3072,10.4241,10.4304,10.5177,10.6653,10.7335,10.8351,10.9581,11.0045,11.1117,11.2663,11.3612,11.4072,11.3999,11.5138,11.5653,11.5517,11.5952,11.6506,11.701,11.6957,11.6969,11.7185,11.7247,11.6644,11.5399,11.5637,11.5769,11.5881,11.6078,11.6426,11.6328,11.6748,11.7173,11.7794,11.8195,11.8673,11.9312,11.9521,11.9473,11.9527,11.9716,11.9624,11.9641,11.9716,11.9754,11.9641,11.9641,11.9678,11.9505,11.8823,11.8671,11.9581,11.9429,11.9354,11.9597,11.9787,11.989,12.0042,12.0266,12.0482,12.054,12.0665,12.0736,12.0792,12.0889,12.0984,12.0997,12.1077,12.0786,12.03,12.0262,12.0364,11.9647,11.8989,11.9403,11.966,11.9097,11.8776,11.885,11.8874,11.8898,11.8806,11.8466,11.7817,11.7525,11.7502,11.7592,11.7783,11.8689,11.8954,11.8565,11.825,11.8137,10.1959,10.1868,10.2186,10.229,10.2157,10.2151,10.2414,10.2919,10.3051,10.3353,10.3824,10.4219,10.4414,10.4471,10.4478,10.4553,10.4668,10.3956,10.3626,10.3626,10.3716,10.4174,10.4884,10.507,10.6032,10.7686,10.8295,10.9171,11.0451,11.1338,11.2197,11.3013,11.4194,11.4813,11.4825,11.5591,11.5892,11.5814,11.5961,11.6267,11.6595,11.6617,11.6727,11.6908,11.7144,11.7136,11.6942,11.6833,11.693,11.7311,11.6802,11.6835,11.7485,11.824,11.874,11.8984,11.9211,11.9386,11.9651,11.9759,11.9792,11.9792,11.9792,11.9792,11.9792,11.9792,11.9581,11.911,11.8975,11.8785,11.8179,11.7875,11.8141,11.8899,11.8444,11.847,11.9075,11.97,12.0144,12.0334,12.0415,12.0555,12.0679,12.0802,12.0858,12.0916,12.0984,12.1038,12.113,12.1182,12.1156,12.0824,12.076,12.0695,12.0396,12.0199,12.0444,12.0434,11.9858,11.9462,11.9406,11.9403,11.9323,11.9092,11.8753,11.8386,11.8096,11.8086,11.8253,11.814,11.8511,11.8294,11.7782,11.7791,11.8013,10.3039,10.2946,10.3361,10.3464,10.3329,10.332,10.3585,10.3957,10.4024,10.4359,10.4829,10.5093,10.5352,10.5507,10.5544,10.5589,10.5679,10.5413,10.5359,10.5343,10.479,10.4951,10.5517,10.6226,10.7267,10.8631,10.9239,11.0062,11.1301,11.2092,11.2774,11.3458,11.452,11.513,11.5202,11.5513,11.5784,11.5947,11.5924,11.6039,11.6326,11.6394,11.655,11.6843,11.7228,11.7602,11.789,11.783,11.7959,11.8226,11.7792,11.7827,11.8439,11.9101,11.9539,11.9606,11.9727,11.9792,11.9792,11.9792,11.9792,11.9792,11.9792,11.9792,11.9792,11.9792,11.9543,11.9164,11.9088,11.8823,11.8368,11.7913,11.8103,11.852,11.7901,11.7746,11.8432,11.9307,11.9883,12.0025,12.0326,12.0631,12.0806,12.09,12.0916,12.1038,12.113,12.1169,12.1271,12.1334,12.1334,12.1308,12.1281,12.1328,12.1488,12.1485,12.1535,12.1216,12.0781,12.0527,12.0411,12.0385,12.0358,11.9885,11.9492,11.9146,11.8818,11.9102,11.9296,11.8968,11.8791,11.9073,11.915,11.8599,11.8543,10.4056,10.3898,10.4808,10.4977,10.4636,10.4633,10.4599,10.4768,10.4801,10.5033,10.5396,10.5628,10.5915,10.6293,10.6416,10.647,10.6685,10.6605,10.6656,10.6588,10.5947,10.556,10.6017,10.7521,10.8724,10.9591,11.0185,11.1017,11.2053,11.2487,11.3062,11.3984,11.4588,11.4996,11.513,11.5202,11.5465,11.5808,11.5738,11.5877,11.6304,11.6349,11.655,11.6988,11.752,11.7907,11.8163,11.8562,11.8874,11.8984,11.8938,11.9022,11.919,11.9421,11.9606,11.9776,11.9792,11.9776,11.9792,11.9759,11.9705,11.971,11.9743,11.9716,11.9608,11.9662,11.9619,11.9316,11.9392,11.9505,11.924,11.8747,11.8422,11.8454,11.8027,11.79,11.799,11.8899,11.9596,11.9754,12.0235,12.0872,12.0971,12.0997,12.1077,12.1195,12.1309,12.1359,12.1421,12.1482,12.1577,12.1577,12.153,12.1589,12.1647,12.1624,12.1635,12.1554,12.1274,12.1162,12.1062,12.1062,12.11,12.0639,12.0242,11.9896,11.9819,12.0157,12.0299,12.0187,12.0305,12.0703,12.0273,11.9406,11.8802,10.5091,10.5204,10.5279,10.5247,10.5112,10.4838,10.5072,10.5512,10.5777,10.6247,10.6819,10.7412,10.76,10.7858,10.7565,10.7481,10.7502,10.727,10.7081,10.7195,10.7398,10.7361,10.7654,10.867,10.9677,11.0398,11.1003,11.183,11.2841,11.3098,11.3566,11.4129,11.4611,11.4934,11.4971,11.5105,11.525,11.5418,11.556,11.5654,11.5794,11.6039,11.6281,11.6595,11.7064,11.7503,11.7888,11.8581,11.8985,11.9021,11.9266,11.9438,11.9421,11.9573,11.971,11.9759,11.9776,11.9727,11.9606,11.9573,11.9505,11.9387,11.9522,11.9346,11.8778,11.9386,11.9148,11.8482,11.8482,11.8709,11.8141,11.7913,11.7819,11.8014,11.8379,11.8622,11.8913,11.9744,12.0402,12.0468,12.0695,12.0905,12.1024,12.1104,12.1208,12.1322,12.1396,12.1407,12.1518,12.1553,12.1612,12.1612,12.16,12.1658,12.1693,12.1658,12.167,12.1716,12.1616,12.147,12.142,12.142,12.142,12.1293,12.1023,12.0716,12.0908,12.1166,12.1216,12.1062,12.0799,12.0677,12.0131,11.9405,11.9034,10.5874,10.6048,10.6022,10.6089,10.6156,10.5916,10.6353,10.7028,10.7056,10.7525,10.8234,10.8388,10.8577,10.8668,10.848,10.8431,10.8518,10.8289,10.8361,10.8691,10.911,10.9142,10.9166,10.9728,11.0456,11.1213,11.1814,11.2473,11.3092,11.3457,11.3782,11.4129,11.451,11.4761,11.4934,11.4996,11.5178,11.537,11.5536,11.5631,11.5784,11.6131,11.6424,11.6719,11.7175,11.775,11.824,11.8729,11.8949,11.8967,11.9161,11.9352,11.9301,11.9438,11.9539,11.9539,11.9539,11.9489,11.9421,11.9387,11.9369,11.9369,11.9455,11.9123,11.8773,11.9229,11.9164,11.8255,11.8671,11.8747,11.852,11.833,11.8458,11.8813,11.9201,11.9335,11.8981,11.9614,12.0194,12.0403,12.0714,12.1064,12.1143,12.1246,12.1347,12.1457,12.1494,12.1541,12.1589,12.16,12.1585,12.1647,12.167,12.1727,12.1805,12.1805,12.1733,12.1805,12.1772,12.1693,12.1647,12.1597,12.1597,12.1558,12.1585,12.1574,12.1585,12.1585,12.1497,12.1242,12.0903,12.0725,12.0422,12.0043,11.9572,10.6424,10.6459,10.69,10.7236,10.747,10.7671,10.8212,10.892,10.8574,10.8839,10.9409,10.8957,10.8944,10.9095,10.8991,10.9146,10.9424,10.9344,10.9844,11.0233,11.0557,11.0459,10.9991,11.0533,11.1136,11.1816,11.249,11.2812,11.3146,11.3413,11.373,11.399,11.4308,11.4586,11.4761,11.486,11.5069,11.5298,11.5442,11.5654,11.597,11.6379,11.6719,11.7149,11.7788,11.8336,11.8693,11.8931,11.8877,11.8712,11.9002,11.9108,11.9039,11.9144,11.9231,11.9249,11.9266,11.9266,11.9193,11.9249,11.9246,11.9404,11.9472,11.9215,11.8877,11.9283,11.9429,11.852,11.93,11.9581,11.9581,11.9695,11.9662,11.9723,12.0053,11.9617,11.9052,11.9225,11.9714,11.9862,12.0616,12.1067,12.1322,12.1433,12.147,12.1541,12.1589,12.1635,12.1681,12.1677,12.1677,12.1677,12.1761,12.1805,12.1881,12.1917,12.1886,12.1864,12.186,12.1794,12.1704,12.1681,12.1631,12.1631,12.1666,12.1693,12.1658,12.1647,12.1624,12.1523,12.1257,12.1385,12.1423,12.1011,12.0568,10.6561,10.69,10.7846,10.8251,10.8454,10.9231,10.9739,10.9975,11.0136,11.0231,11.0363,11.0006,10.979,10.9784,10.9265,10.9212,10.9552,10.9799,11.0257,11.0832,11.095,11.0945,11.0816,11.1303,11.1667,11.2049,11.2526,11.2829,11.2956,11.3199,11.344,11.3756,11.4077,11.4344,11.4572,11.4636,11.4611,11.481,11.5081,11.5584,11.6002,11.6499,11.7,11.7544,11.8102,11.8487,11.8693,11.8767,11.8749,11.8767,11.8895,11.9021,11.9003,11.9108,11.9179,11.9179,11.9196,11.9214,11.9214,11.9214,11.9193,11.9301,11.94,11.9182,11.8534,11.9251,11.9337,11.8937,11.9316,11.9754,11.9792,11.9792,11.9873,11.9979,12.0036,12.0121,12.0183,12.0416,12.0601,12.0823,12.1054,12.1347,12.1409,12.1467,12.1565,12.1612,12.167,12.1765,12.1761,12.1755,12.1766,12.1755,12.1832,12.1924,12.1956,12.199,12.2001,12.197,12.1928,12.1924,12.1838,12.1783,12.1744,12.1755,12.1805,12.1761,12.1681,12.1647,12.1612,12.1612,12.1612,12.1612,12.1538,12.1482,12.1396,10.7035,10.7745,10.8353,10.8757,10.9225,11.0074,11.0753,11.1123,11.1046,11.1247,11.1279,11.0582,11.0095,11.0026,10.9368,10.924,10.9769,11.0257,11.0653,11.095,11.098,11.098,11.1068,11.1413,11.1729,11.1929,11.2526,11.2774,11.2848,11.3065,11.336,11.3589,11.3912,11.4154,11.4359,11.4536,11.4611,11.4675,11.5202,11.5748,11.6103,11.6828,11.752,11.8063,11.843,11.86,11.8693,11.8712,11.8712,11.873,11.8804,11.8896,11.8895,11.8984,11.9037,11.8984,11.9055,11.9091,11.9091,11.9179,11.9228,11.9352,11.9455,11.9047,11.8811,11.9305,11.9337,11.9013,11.9278,11.9792,11.9792,11.9792,11.9819,11.9884,11.9941,12.0175,12.0555,12.0768,12.0986,12.1182,12.1321,12.1395,12.1467,12.1527,12.155,12.1612,12.1624,12.1681,12.1799,12.1805,12.1832,12.1864,12.1949,12.2001,12.2011,12.2051,12.213,12.211,12.207,12.2039,12.1998,12.1907,12.1875,12.1843,12.1827,12.1749,12.167,12.1635,12.1574,12.1612,12.1612,12.1612,12.155,12.1503,12.147,10.788,10.8794,10.8996,10.943,11.0025,11.0913,11.1764,11.2372,11.1955,11.2062,11.2265,11.1026,11.0681,11.0336,10.9644,10.9573,11.0049,11.0653,11.095,11.098,11.098,11.098,11.1068,11.1296,11.1615,11.1936,11.2407,11.2656,11.2856,11.3011,11.3226,11.351,11.3782,11.3948,11.4129,11.4485,11.46,11.4538,11.5394,11.6048,11.644,11.7233,11.7967,11.8468,11.8637,11.8674,11.8693,11.8712,11.8712,11.8712,11.8824,11.8881,11.888,11.8822,11.8895,11.873,11.8877,11.8985,11.9093,11.9161,11.9263,11.9505,11.9556,11.9341,11.9115,11.9375,11.9375,11.9316,11.9413,11.9792,11.9792,11.9792,11.9792,11.9803,11.9932,12.0129,12.0415,12.0655,12.0973,12.1309,12.1445,12.1506,12.1515,12.1562,12.1562,12.1574,12.1624,12.1697,12.1777,12.1866,12.1931,12.217,12.232,12.2941,12.3038,12.2613,12.2614,12.242,12.2323,12.2157,12.2088,12.1956,12.1843,12.186,12.1805,12.1738,12.1681,12.1647,12.1624,12.1612,12.1612,12.1612,12.1612,12.1612,12.153,10.9338,10.961,11.0827,11.1434,11.1669,11.2655,11.3131,11.3369,11.3162,11.3265,11.3196,11.2403,11.1888,11.161,11.0541,11.0089,11.0153,11.0683,11.098,11.098,11.098,11.098,11.1068,11.1296,11.1586,11.1872,11.2267,11.2545,11.2774,11.2883,11.3065,11.3253,11.336,11.3493,11.3756,11.4041,11.4373,11.4502,11.5405,11.6162,11.6697,11.7483,11.8163,11.8656,11.8768,11.8806,11.8787,11.8749,11.8712,11.8731,11.9369,11.9632,11.9632,11.9199,11.8974,11.8918,11.8992,11.9214,11.9374,11.933,11.9441,11.9623,11.9802,11.9764,11.9624,11.9678,11.9641,11.9641,11.9603,11.9792,11.9792,11.983,11.9809,11.9841,11.9948,12.0144,12.0482,12.073,12.0988,12.1359,12.1482,12.1565,12.155,12.1612,12.1612,12.1624,12.1647,12.1835,12.2019,12.208,12.21,12.2415,12.2767,12.3571,12.4286,12.3658,12.332,12.2923,12.2718,12.2261,12.2131,12.192,12.1855,12.2218,12.2064,12.1761,12.1716,12.1658,12.1624,12.1574,12.1612,12.1612,12.1612,12.1562,12.1553,11.0052,11.0629,11.1507,11.201,11.2312,11.3165,11.3576,11.3576,11.3576,11.3576,11.3369,11.2783,11.2403,11.2024,11.0851,11.0127,11.0219,11.0713,11.098,11.098,11.098,11.098,11.1039,11.1267,11.1586,11.1908,11.2183,11.2462,11.2774,11.2801,11.2929,11.3146,11.3199,11.328,11.351,11.3979,11.4184,11.4502,11.5392,11.632,11.6778,11.7684,11.8353,11.8675,11.9144,11.9294,11.9406,11.9876,11.9988,12.0101,12.0402,12.0533,12.0458,12.027,12.0026,11.9988,11.9988,12.0099,12.0298,12.0388,12.0471,12.0173,12.0254,12.0039,11.9807,11.9689,11.983,11.983,11.9846,11.9998,12.0361,12.0112,12.0068,12.0409,12.034,12.0342,12.056,12.0853,12.1182,12.1461,12.1621,12.1692,12.16,12.1612,12.1612,12.1635,12.1697,12.1935,12.23,12.2482,12.2559,12.3254,12.3712,12.4238,12.4915,12.4586,12.4083,12.3696,12.3104,12.2685,12.2514,12.2438,12.2735,12.3179,12.2767,12.2135,12.177,12.1701,12.1651,12.1651,12.1689,12.1689,12.1612,12.155,12.1592,11.0799,11.1683,11.205,11.2382,11.2715,11.33,11.3576,11.3576,11.3576,11.3576,11.3507,11.2989,11.2679,11.2298,11.1421,11.0592,11.038,11.0912,11.098,11.098,11.098,11.098,11.1068,11.1267,11.1586,11.1872,11.2183,11.2462,11.2746,11.2801,11.2902,11.3065,11.3146,11.3253,11.3466,11.4031,11.4184,11.48,11.5594,11.6536,11.7329,11.8046,11.8728,11.905,11.9725,12.0082,12.0138,12.0627,12.0946,12.1078,12.1303,12.1453,12.1491,12.1603,12.1678,12.166,12.151,12.1396,12.1394,12.1429,12.1195,12.0918,12.0798,12.0413,12.0157,12.0122,12.0188,12.0225,12.0377,12.068,12.1135,12.08,12.0897,12.1191,12.1088,12.0755,12.1073,12.1357,12.1642,12.1805,12.1876,12.205,12.2139,12.1689,12.1689,12.2139,12.2213,12.234,12.2655,12.3129,12.3451,12.4299,12.484,12.5068,12.5369,12.5408,12.4982,12.4644,12.385,12.319,12.3124,12.3132,12.3505,12.376,12.3337,12.2732,12.2251,12.2024,12.2293,12.2331,12.2024,12.1793,12.1689,12.1689,12.1704,11.2401,11.2806,11.324,11.3439,11.3438,11.3541,11.3576,11.3576,11.3576,11.3576,11.3576,11.3507,11.3369,11.3086,11.2427,11.1789,11.1487,11.1188,11.112,11.1155,11.1015,11.098,11.1039,11.1296,11.1586,11.1901,11.2183,11.2462,11.2711,11.2801,11.2829,11.291,11.3092,11.3306,11.3536,11.4159,11.4726,11.5418,11.6244,11.7392,11.8615,11.8906,11.942,12.0048,12.0486,12.0715,12.0791,12.1207,12.1415,12.1453,12.196,12.2223,12.2373,12.2974,12.3217,12.2899,12.2186,12.1303,12.1546,12.1732,12.1821,12.1639,12.1362,12.0897,12.0808,12.0858,12.1135,12.1969,12.1893,12.191,12.2127,12.2246,12.2426,12.2383,12.2157,12.1938,12.2031,12.2191,12.2422,12.2612,12.2837,12.295,12.3062,12.237,12.1831,12.237,12.2793,12.292,12.324,12.3879,12.4407,12.5269,12.5686,12.5906,12.6104,12.6094,12.5756,12.5485,12.476,12.3926,12.3956,12.403,12.3868,12.3953,12.3748,12.3879,12.3817,12.3678,12.3408,12.3024,12.2639,12.2139,12.1727,12.1754,12.1831,11.2674,11.301,11.3445,11.3576,11.3576,11.3576,11.3576,11.3576,11.3576,11.3576,11.3576,11.3576,11.3467,11.3244,11.293,11.2711,11.2282,11.1778,11.1612,11.1471,11.1226,11.1015,11.1127,11.1477,11.1787,11.1901,11.2323,11.2664,11.2801,11.2801,11.2801,11.2829,11.2965,11.3199,11.3792,11.4312,11.4923,11.5764,11.6874,11.806,11.895,11.952,11.995,12.0506,12.1038,12.1324,12.1593,12.2141,12.2427,12.256,12.2974,12.3049,12.3124,12.3367,12.3555,12.3537,12.3126,12.2807,12.2844,12.2787,12.2707,12.2585,12.229,12.2146,12.1881,12.1779,12.1817,12.2234,12.2272,12.2549,12.2897,12.2777,12.3119,12.322,12.3171,12.3031,12.2979,12.3228,12.3406,12.3571,12.3812,12.3988,12.4101,12.3678,12.3178,12.3293,12.3716,12.3909,12.4498,12.5279,12.5794,12.6283,12.6524,12.6676,12.6837,12.6916,12.6414,12.6065,12.5795,12.5145,12.5019,12.4977,12.4788,12.5069,12.5445,12.551,12.5447,12.4793,12.4062,12.3601,12.3166,12.2793,12.2408,12.187,12.1935,11.291,11.3144,11.3444,11.3576,11.3576,11.3576,11.3576,11.3576,11.3576,11.3576,11.3643,11.3674,11.3558,11.3291,11.3293,11.311,11.3173,11.244,11.2144,11.1893,11.1577,11.1255,11.1197,11.1471,11.1729,11.1822,11.2295,11.2806,11.3087,11.3169,11.3215,11.2946,11.3387,11.3763,11.4304,11.4951,11.5652,11.642,11.7923,11.8983,11.9612,12.0137,12.0593,12.1069,12.1565,12.202,12.2294,12.2829,12.3304,12.3401,12.348,12.3499,12.3518,12.3555,12.3651,12.3651,12.3559,12.3728,12.3802,12.382,12.3743,12.3567,12.3252,12.2988,12.2694,12.2613,12.2853,12.3151,12.3123,12.3504,12.3803,12.3633,12.399,12.4217,12.4131,12.3938,12.3885,12.4097,12.4277,12.4442,12.4735,12.5231,12.5216,12.5024,12.4755,12.4486,12.4601,12.487,12.5486,12.6217,12.6452,12.674,12.6828,12.6942,12.7135,12.7187,12.6858,12.6646,12.6336,12.62,12.6009,12.5814,12.5599,12.6113,12.6688,12.6537,12.6063,12.5332,12.4639,12.4409,12.4139,12.3678,12.3178,12.2589,12.2512,11.3544,11.3543,11.361,11.3576,11.3576,11.3576,11.3576,11.3576,11.3576,11.361,11.3674,11.3903,11.4158,11.4163,11.3645,11.3602,11.4184,11.274,11.2454,11.2279,11.1998,11.1752,11.1619,11.1613,11.1669,11.1749,11.2495,11.3242,11.3685,11.4165,11.379,11.3378,11.4221,11.5026,11.5662,11.6076,11.68,11.7677,11.8985,12.0022,12.0559,12.1026,12.1382,12.1946,12.2334,12.2551,12.2593,12.3039,12.3338,12.3397,12.3534,12.3593,12.3593,12.3593,12.3651,12.3765,12.386,12.4028,12.4212,12.4248,12.4264,12.416,12.3938,12.3586,12.3447,12.3447,12.3817,12.4351,12.4209,12.4536,12.4952,12.5232,12.5072,12.5046,12.4938,12.4808,12.4755,12.4928,12.5135,12.5301,12.5606,12.5962,12.6101,12.5832,12.564,12.537,12.5332,12.5563,12.5947,12.6575,12.6647,12.6764,12.6867,12.7015,12.7171,12.7127,12.7061,12.6945,12.6723,12.678,12.6833,12.6623,12.6222,12.6418,12.6763,12.6715,12.6678,12.6063,12.5601,12.5409,12.5024,12.4409,12.4154,12.3873,12.4038,11.3378,11.3576,11.3576,11.3576,11.3576,11.3576,11.3576,11.3576,11.361,11.3742,11.3903,11.4066,11.4421,11.4625,11.4604,11.4504,11.4952,11.4069,11.3578,11.3332,11.3086,11.27,11.2539,11.2505,11.2699,11.2671,11.3397,11.3943,11.421,11.5019,11.5333,11.5332,11.5538,11.5855,11.646,11.7342,11.8125,11.8854,11.9806,12.0663,12.1037,12.1652,12.1987,12.2247,12.2364,12.2599,12.2793,12.2995,12.3238,12.3436,12.3534,12.3593,12.363,12.363,12.3688,12.3803,12.3879,12.4103,12.4302,12.4374,12.448,12.4582,12.4437,12.4243,12.4205,12.4281,12.4495,12.4828,12.4991,12.522,12.5354,12.5439,12.5453,12.5654,12.5617,12.5472,12.5507,12.5579,12.5671,12.571,12.6081,12.6524,12.6601,12.6601,12.6409,12.6255,12.6267,12.6267,12.6524,12.6729,12.6751,12.6772,12.6876,12.695,12.7118,12.723,12.7311,12.7187,12.7023,12.7118,12.7163,12.7009,12.6735,12.6814,12.6748,12.6715,12.6717,12.6717,12.6447,12.6101,12.5563,12.4947,12.4885,12.4964,12.5103,11.3344,11.3576,11.3576,11.3576,11.3576,11.3576,11.3576,11.3576,11.3576,11.3773,11.4098,11.4292,11.4644,11.4989,11.4893,11.5122,11.5197,11.4736,11.4456,11.414,11.3859,11.3543,11.3488,11.3545,11.3574,11.3715,11.4525,11.5068,11.5476,11.6142,11.6697,11.701,11.7073,11.7325,11.7761,11.8776,11.9605,11.9964,12.0702,12.1235,12.1594,12.1987,12.2225,12.2284,12.2349,12.2557,12.283,12.3015,12.3238,12.3417,12.3554,12.3593,12.3705,12.38,12.3819,12.3896,12.4048,12.4255,12.4269,12.4445,12.4637,12.474,12.4757,12.4698,12.4829,12.5014,12.5354,12.5106,12.529,12.5516,12.5713,12.5568,12.5598,12.5731,12.576,12.5655,12.5778,12.5865,12.5999,12.6079,12.6453,12.6717,12.6717,12.6717,12.664,12.6524,12.6486,12.6498,12.6601,12.669,12.6715,12.6736,12.678,12.6894,12.7043,12.7139,12.7261,12.7263,12.7167,12.7195,12.7202,12.7086,12.6927,12.6853,12.676,12.6715,12.6717,12.6717,12.6717,12.664,12.6101,12.5601,12.5654,12.5706,12.5553,11.3576,11.3576,11.3576,11.3576,11.3576,11.3576,11.3576,11.3576,11.3643,11.3838,11.426,11.4736,11.502,11.5071,11.4868,11.5096,11.5373,11.4877,11.4526,11.4526,11.4491,11.3999,11.3959,11.411,11.4492,11.4504,11.5314,11.6291,11.6897,11.7336,11.8035,11.8644,11.8676,11.8904,11.9279,12.0924,12.1363,12.0933,12.1724,12.1975,12.2151,12.2225,12.2262,12.2343,12.2435,12.2604,12.2809,12.3077,12.3298,12.3417,12.3554,12.363,12.3818,12.44,12.4459,12.4199,12.4726,12.4745,12.4307,12.4605,12.4723,12.4774,12.4774,12.4904,12.5052,12.5494,12.6094,12.5897,12.6173,12.6292,12.6048,12.5833,12.5977,12.593,12.5998,12.5918,12.6042,12.6054,12.6139,12.6272,12.6491,12.6717,12.6717,12.6717,12.6717,12.6678,12.6678,12.6717,12.6717,12.6729,12.6703,12.6727,12.676,12.683,12.6905,12.7075,12.7199,12.724,12.7251,12.723,12.715,12.7043,12.6944,12.6841,12.6748,12.6729,12.6717,12.6717,12.6717,12.6717,12.6717,12.6447,12.6449,12.636,12.6142,11.3576,11.3576,11.3576,11.3576,11.3576,11.3576,11.3576,11.3643,11.3838,11.4228,11.4705,11.502,11.5208,11.5289,11.5276,11.5298,11.5474,11.5474,11.5193,11.5188,11.5184,11.5422,11.5345,11.5342,11.5552,11.6007,11.6682,11.7111,11.7409,11.8117,11.8674,11.9184,11.9817,11.9995,12.0133,12.0942,12.1159,12.1526,12.1926,12.2147,12.2278,12.23,12.2284,12.2321,12.2477,12.2684,12.283,12.3158,12.3375,12.3531,12.3705,12.3912,12.4325,12.4964,12.5078,12.5023,12.5419,12.4745,12.4421,12.4462,12.4654,12.4798,12.4812,12.509,12.5701,12.6016,12.6479,12.6991,12.7283,12.746,12.7505,12.7458,12.7397,12.6838,12.6677,12.6329,12.6276,12.6199,12.6219,12.635,12.6554,12.6654,12.6717,12.6755,12.6755,12.6871,12.6909,12.6832,12.6832,12.6755,12.6729,12.6729,12.6739,12.676,12.6841,12.7159,12.7159,12.7075,12.7086,12.7075,12.7021,12.717,12.7064,12.7038,12.6878,12.6717,12.6717,12.6717,12.6717,12.6717,12.6717,12.6717,12.6628,12.6589,12.6551,11.3576,11.3576,11.3576,11.3748,11.3921,11.3714,11.3642,11.3838,11.426,11.4673,11.502,11.5211,11.5398,11.5553,11.5614,11.5614,11.5614,11.5614,11.5854,11.5854,11.588,11.6136,11.6409,11.6752,11.6819,11.7299,11.7775,11.8183,11.8252,11.8835,11.9348,11.9822,12.0607,12.124,12.1452,12.1799,12.1846,12.22,12.237,12.2525,12.2427,12.23,12.23,12.2327,12.2477,12.2726,12.2954,12.3215,12.3547,12.3872,12.4175,12.4438,12.5076,12.564,12.5827,12.5865,12.5659,12.5214,12.5251,12.5284,12.5612,12.5818,12.5229,12.5313,12.6163,12.6626,12.7223,12.7778,12.836,12.8414,12.839,12.8443,12.8191,12.7579,12.7232,12.6922,12.6624,12.6585,12.6337,12.6466,12.6554,12.6654,12.6755,12.6794,12.6794,12.6986,12.714,12.714,12.7217,12.7255,12.7332,12.7371,12.7383,12.7496,12.7479,12.7446,12.7323,12.6982,12.7082,12.7286,12.7599,12.7862,12.7523,12.7272,12.7316,12.7217,12.6832,12.6717,12.6832,12.6794,12.6717,12.6717,12.6717,12.6717,12.6717,11.361,11.361,11.3645,11.4093,11.4575,11.4225,11.4078,11.4334,11.4942,11.5226,11.5289,11.5635,11.5759,11.5719,11.5649,11.5614,11.5676,11.5676,11.6006,11.6432,11.6622,11.6917,11.7367,11.7783,11.8202,11.8374,11.8741,11.9319,11.9286,11.9602,12.0,12.0458,12.1525,12.2031,12.2405,12.2859,12.285,12.3015,12.2754,12.2776,12.2597,12.2337,12.23,12.2327,12.2515,12.2821,12.3103,12.344,12.4072,12.451,12.4926,12.5452,12.609,12.6879,12.6653,12.6391,12.6203,12.6287,12.6289,12.6287,12.6525,12.6527,12.5814,12.5764,12.6446,12.7484,12.808,12.8672,12.9193,12.8933,12.8764,12.8725,12.8649,12.825,12.7916,12.7567,12.723,12.6946,12.6619,12.658,12.6629,12.6755,12.6948,12.6986,12.7178,12.7563,12.7909,12.8371,12.8409,12.8448,12.8525,12.8563,12.8525,12.8486,12.8305,12.7864,12.7619,12.7319,12.7647,12.7901,12.824,12.8513,12.8338,12.8124,12.8011,12.7755,12.7332,12.7101,12.7063,12.7025,12.7063,12.6794,12.6832,12.6717,12.6678,11.3921,11.4369,11.4404,11.4983,11.5869,11.6188,11.6374,11.6471,11.6694,11.6852,11.7104,11.6636,11.6422,11.6387,11.586,11.575,11.5798,11.6036,11.6272,11.677,11.7535,11.8211,11.8782,11.9294,11.9853,12.0229,12.0447,12.042,12.0806,12.0823,12.0534,12.0686,12.2092,12.2455,12.3003,12.3637,12.3965,12.3987,12.3541,12.3154,12.2968,12.2745,12.2597,12.2588,12.2738,12.3157,12.3701,12.4018,12.4689,12.5505,12.5695,12.6108,12.6916,12.7179,12.7066,12.7029,12.6936,12.6847,12.6609,12.6665,12.6944,12.7289,12.6855,12.745,12.8038,12.8549,12.9074,12.9551,12.9926,12.978,12.9719,12.9642,12.9451,12.9152,12.8811,12.8442,12.8066,12.7653,12.7272,12.6861,12.6897,12.7051,12.7255,12.7448,12.7678,12.814,12.8679,12.9217,12.9563,12.9602,12.9602,12.964,12.9487,12.9371,12.8602,12.8061,12.7869,12.7739,12.8184,12.8528,12.8789,12.8971,12.9023,12.8922,12.8717,12.8294,12.7743,12.7717,12.7832,12.7678,12.764,12.7255,12.6909,12.6832,12.6705,11.4024,11.4645,11.4714,11.56,11.6924,11.7305,11.7594,11.7931,11.7753,11.7599,11.744,11.7264,11.7085,11.6866,11.684,11.6852,11.6595,11.716,11.7535,11.8111,11.8611,11.9358,12.0069,12.0512,12.0786,12.1269,12.135,12.1143,12.1675,12.1946,12.1765,12.1637,12.2747,12.3368,12.4103,12.5023,12.5754,12.547,12.4908,12.4054,12.3652,12.351,12.3399,12.3257,12.3408,12.3956,12.4539,12.4821,12.5433,12.6329,12.6519,12.6912,12.759,12.7817,12.7817,12.7817,12.7817,12.7749,12.7643,12.7608,12.7795,12.8011,12.8199,12.8796,12.9066,12.9363,12.9848,13.0346,13.0567,13.0751,13.0751,13.0751,13.0445,13.0154,12.9782,12.9417,12.8956,12.8488,12.7938,12.7372,12.7332,12.7486,12.7678,12.7859,12.832,12.9102,12.9717,13.0179,13.0525,13.0641,13.0641,13.0641,13.041,13.0179,12.9333,12.8602,12.8499,12.8576,12.9023,12.9305,12.941,12.9756,13.0115,12.9845,12.9371,12.8909,12.8512,12.8717,12.8794,12.8602,12.8397,12.8256,12.7755,12.7101,12.6923,11.4093,11.4714,11.4849,11.6108,11.7775,11.7571,11.7998,11.8848,11.8146,11.7545,11.7159,11.758,11.7506,11.7341,11.7775,11.8013,11.8034,11.8428,11.894,11.9629,11.9981,12.0598,12.1132,12.1458,12.1883,12.1602,12.1594,12.2119,12.211,12.2453,12.2852,12.2942,12.4073,12.4859,12.5558,12.6188,12.6837,12.7199,12.6391,12.5515,12.493,12.4811,12.4811,12.4721,12.4822,12.509,12.5377,12.5689,12.6038,12.6805,12.7356,12.7674,12.8133,12.8456,12.8493,12.8493,12.8418,12.8423,12.845,12.853,12.8909,12.9278,12.9716,12.9906,12.9978,12.9884,13.0276,13.0575,13.0789,13.0789,13.0789,13.0789,13.0598,13.0505,13.0317,12.9978,12.9542,12.9141,12.8732,12.8294,12.8179,12.8371,12.864,12.8909,12.9102,13.0025,13.0641,13.1025,13.1295,13.1487,13.1372,13.1333,13.1141,13.0794,13.0256,12.964,12.9333,12.9448,12.9717,13.0064,13.0179,13.0679,13.1333,13.0833,13.0294,12.9794,12.9448,12.9717,12.9756,12.941,12.9294,12.9294,12.8756,12.7986,12.7628,11.4541,11.4782,11.5897,11.6872,11.7539,11.7749,11.7907,11.8142,11.8002,11.7826,11.7686,11.7822,11.8013,11.8151,11.8326,11.859,11.9159,11.982,12.0189,12.0767,12.1268,12.1757,12.2463,12.2797,12.3078,12.3322,12.3349,12.3177,12.3331,12.354,12.3458,12.3177,12.4417,12.5631,12.6241,12.6802,12.774,12.8483,12.7931,12.6939,12.6104,12.522,12.4811,12.4885,12.5032,12.5622,12.5922,12.6247,12.6885,12.7676,12.7888,12.8178,12.8586,12.8586,12.8606,12.8606,12.8644,12.8666,12.8787,12.9002,12.9304,12.963,12.9927,13.03,13.0471,13.035,13.0413,13.0651,13.0789,13.0789,13.0789,13.0789,13.0804,13.0803,13.0777,13.0447,13.0128,12.9832,12.9487,12.9282,12.9128,12.9294,12.9602,12.9833,13.0102,13.0564,13.1141,13.1564,13.1833,13.2,13.1602,13.1525,13.1564,13.1295,13.0871,13.0525,13.0141,12.9871,12.9948,13.0371,13.0833,13.1218,13.1525,13.1564,13.1218,13.0679,13.0448,13.0871,13.0794,13.0333,13.0141,13.0179,12.9987,12.9294,12.8936,11.471,11.5564,11.6668,11.7439,11.7737,11.756,11.7756,11.8353,11.8423,11.8306,11.822,11.8463,11.8825,11.9362,11.9562,11.9792,12.0528,12.1232,12.1573,12.1982,12.2317,12.2843,12.3395,12.3757,12.3766,12.4011,12.4011,12.4011,12.4409,12.4554,12.4364,12.441,12.5483,12.6222,12.6861,12.8004,12.8703,12.9336,12.9131,12.8483,12.7404,12.6594,12.5926,12.5888,12.6133,12.6532,12.6693,12.7078,12.766,12.8337,12.8683,12.889,12.9033,12.8831,12.8869,12.8944,12.8906,12.8646,12.8845,12.9079,12.947,12.9847,13.0084,13.0398,13.0689,13.0567,13.0567,13.0789,13.0789,13.0789,13.0789,13.0789,13.0789,13.0796,13.0877,13.083,13.0742,13.0675,13.0256,12.9834,12.9796,12.991,13.0141,13.0179,13.0487,13.1025,13.1602,13.1718,13.2025,13.2269,13.191,13.1718,13.1756,13.1679,13.1333,13.1102,13.0871,13.0602,13.0294,13.0756,13.1256,13.1448,13.1679,13.1641,13.1602,13.1448,13.141,13.1525,13.1525,13.1102,13.1025,13.1025,13.0756,13.0525,13.0282,11.4841,11.6446,11.7133,11.7772,11.822,11.7385,11.765,11.8739,11.8914,11.8787,11.8742,11.9368,11.9826,12.0627,12.1632,12.1984,12.2303,12.2577,12.2824,12.2906,12.2969,12.3359,12.3685,12.3974,12.4011,12.4119,12.4228,12.4626,12.5061,12.5242,12.5668,12.6348,12.6987,12.7628,12.8828,12.9448,12.9652,13.0172,13.0226,13.0087,12.9252,12.8355,12.7761,12.7628,12.774,12.7873,12.796,12.816,12.8625,12.9037,12.9522,12.9732,12.9651,12.9357,12.9282,12.9357,12.9024,12.8936,12.9151,12.9305,12.9728,13.0117,13.0277,13.0484,13.0789,13.085,13.0865,13.0827,13.0827,13.0865,13.0865,13.0865,13.0865,13.0857,13.0991,13.1094,13.1174,13.1274,13.0867,13.0383,13.0475,13.0603,13.0641,13.0641,13.0948,13.1487,13.1718,13.1795,13.1872,13.1987,13.191,13.1872,13.1872,13.1795,13.1641,13.1487,13.1256,13.1064,13.0794,13.1256,13.1564,13.1602,13.1641,13.1679,13.1641,13.1602,13.1602,13.1641,13.1602,13.1679,13.1487,13.1372,13.1372,13.1218,13.1385,11.5388,11.6842,11.7262,11.7654,11.7946,11.776,11.7861,11.8107,11.8212,11.8541,11.9434,12.0025,12.0498,12.0855,12.1568,12.2267,12.3152,12.3512,12.3702,12.3757,12.3757,12.3902,12.4155,12.4481,12.4119,12.4264,12.4662,12.5061,12.5568,12.5966,12.6256,12.6574,12.7032,12.7791,12.8834,12.9445,13.0046,13.0606,13.0792,13.0542,13.0055,12.9455,12.9358,12.9255,12.9255,12.9414,12.9489,12.9556,12.9823,13.0109,13.0362,13.0536,13.0402,12.9995,12.9753,12.9663,12.931,12.9376,12.9569,12.9847,13.0293,13.1064,13.1159,13.094,13.1094,13.1094,13.1056,13.1018,13.1018,13.1018,13.1056,13.1094,13.1133,13.1025,13.1077,13.1059,13.1084,13.1212,13.1118,13.1046,13.1126,13.1218,13.1308,13.132,13.1333,13.1679,13.1679,13.1795,13.2141,13.2102,13.1961,13.1987,13.2064,13.1833,13.1679,13.1641,13.1487,13.1333,13.1179,13.1295,13.141,13.1487,13.1564,13.1641,13.1718,13.1679,13.1718,13.1872,13.1949,13.1987,13.1756,13.1641,13.1718,13.1679,13.1667]}]]